[[{"header":{"parameterUnit":"m.s-1","parameterCategory":1,"la1":31.0,"la2":29.5877,"lo1":-88.7671,"lo2":-86.6584,"dx":0.0162,"dy":0.0185,"nx":115,"ny":88,"refTime":"2022-12-31T12:00:00:Z","depth":0,"parameterNumber":2,"parameterNumberName":"U-component_of_WINDS"},"data":[0.0,0.0,0.0,0.0,0.0,0.0,0.0,0.0,0.0,0.0,0.0,0.0,0.0,0.0,0.0,0.0,0.0,0.0,0.0,0.0,0.0,0.0,0.0,0.0,0.0,0.0,0.0,0.0,0.0,0.0,0.0,0.0,0.0,0.0,0.0,0.0,0.0,0.0,0.0,0.0,0.0,0.0,0.0,0.0,0.0,0.0,0.0,0.0,0.0,0.0,0.0,0.0,0.0,0.0,0.0,0.0,0.0,0.0,0.0,0.0,0.0,0.0,0.0,0.0,0.0,0.0,0.0,0.0,0.0,0.0,0.0,0.0,0.0,0.0,0.0,0.0,0.0,0.0,0.0,0.0,0.0,0.0,0.0,0.0,0.0,0.0,0.0,0.0,0.0,0.0,0.0,0.0,0.0,0.0,0.0,0.0,0.0,0.0,0.0,0.0,0.0,0.0,0.0,0.0,0.0,0.0,0.0,0.0,0.0,0.0,0.0,0.0,0.0,0.0,0.0,0.0,0.0,0.0,0.0,0.0,0.0,0.0,0.0,0.0,0.0,0.0,0.0,0.0,0.0,0.0,0.0,0.0,0.0,0.0,0.0,0.0,0.0,0.0,0.0,0.0,0.0,0.0,0.0,0.0,0.0,0.0,0.0,0.0,0.0,0.0,0.0,0.0,0.0,0.0,0.0,0.0,0.0,0.0,0.0,0.0,0.0,0.0,0.0,0.0,0.0,0.0,0.0,0.0,0.0,0.0,0.0,0.0,0.0,0.0,0.0,0.0,0.0,0.0,0.0,0.0,0.0,0.0,0.0,0.0,0.0,0.0,0.0,0.0,0.0,0.0,0.0,0.0,0.0,0.0,0.0,0.0,0.0,0.0,0.0,0.0,0.0,0.0,0.0,0.0,0.0,0.0,0.0,0.0,0.0,0.0,0.0,0.0,0.0,0.0,0.0,0.0,0.0,0.0,0.0,0.0,0.0,0.0,0.0,0.0,0.0,0.0,0.0,0.0,0.0,0.0,0.0,0.0,0.0,0.0,0.0,0.0,0.0,0.0,0.0,0.0,0.0,0.0,0.0,0.0,0.0,0.0,0.0,0.0,0.0,0.0,0.0,0.0,0.0,0.0,0.0,0.0,0.0,0.0,0.0,0.0,0.0,0.0,0.0,0.0,0.0,0.0,0.0,0.0,0.0,0.0,0.0,0.0,0.0,0.0,0.0,0.0,0.0,0.0,0.0,0.0,0.0,0.0,0.0,0.0,0.0,0.0,0.0,0.0,0.0,0.0,0.0,0.0,0.0,0.0,0.0,0.0,0.0,0.0,0.0,0.0,0.0,0.0,0.0,0.0,0.0,0.0,0.0,0.0,0.0,0.0,0.0,0.0,0.0,0.0,0.0,0.0,0.0,0.0,0.0,0.0,0.0,0.0,0.0,0.0,0.0,0.0,0.0,0.0,0.0,0.0,0.0,0.0,0.0,0.0,0.0,0.0,0.0,0.0,0.0,0.0,0.0,0.0,0.0,0.0,0.0,0.0,0.0,0.0,0.0,0.0,0.0,0.0,0.0,0.0,0.0,0.0,0.0,0.0,0.0,0.0,0.0,0.0,0.0,0.0,0.0,0.0,0.0,0.0,0.0,0.0,0.0,0.0,0.0,0.0,0.0,0.0,0.0,0.0,0.0,0.0,0.0,0.0,0.0,0.0,0.0,0.0,0.0,0.0,0.0,0.0,0.0,0.0,0.0,0.0,0.0,0.0,0.0,0.0,0.0,0.0,0.0,0.0,0.0,0.0,0.0,0.0,0.0,0.0,0.0,0.0,0.0,0.0,0.0,0.0,0.0,0.0,0.0,0.0,0.0,0.0,0.0,0.0,0.0,0.0,0.0,0.0,0.0,0.0,0.0,0.0,0.0,0.0,0.0,0.0,0.0,0.0,0.0,0.0,0.0,0.0,0.0,0.0,0.0,0.0,0.0,0.0,0.0,0.0,0.0,0.0,0.0,0.0,0.0,0.0,0.0,0.0,0.0,0.0,0.0,0.0,0.0,0.0,0.0,0.0,0.0,0.0,0.0,0.0,0.0,0.0,0.0,0.0,0.0,0.0,0.0,0.0,0.0,0.0,0.0,0.0,0.0,0.0,0.0,0.0,0.0,0.0,0.0,0.0,0.0,0.0,0.0,0.0,0.0,0.0,0.0,0.0,0.0,0.0,0.0,0.0,0.0,0.0,0.0,0.0,0.0,0.0,0.0,0.0,0.0,0.0,0.0,0.0,0.0,0.0,0.0,0.0,0.0,0.0,0.0,0.0,0.0,0.0,0.0,0.0,0.0,0.0,0.0,0.0,0.0,0.0,0.0,0.0,0.0,0.0,0.0,0.0,0.0,0.0,0.0,0.0,0.0,0.0,0.0,0.0,0.0,0.0,0.0,0.0,0.0,0.0,0.0,0.0,0.0,0.0,0.0,0.0,0.0,0.0,0.0,0.0,0.0,0.0,0.0,0.0,0.0,0.0,0.0,0.0,0.0,0.0,0.0,0.0,0.0,0.0,0.0,0.0,0.0,0.0,0.0,0.0,0.0,0.0,0.0,0.0,0.0,0.0,0.0,0.0,0.0,0.0,0.0,0.0,0.0,0.0,0.0,0.0,0.0,0.0,0.0,0.0,0.0,0.0,0.0,0.0,0.0,0.0,0.0,0.0,0.0,0.0,0.0,0.0,0.0,0.0,0.0,0.0,0.0,0.0,0.0,0.0,0.0,0.0,0.0,0.0,0.0,0.0,0.0,0.0,0.0,0.0,0.0,0.0,0.0,0.0,0.0,0.0,0.0,0.0,0.0,0.0,0.0,0.0,0.0,0.0,0.0,0.0,0.0,0.0,0.0,0.0,0.0,0.0,0.0,0.0,0.0,0.0,0.0,0.0,0.0,0.0,0.0,0.0,0.0,0.0,0.0,0.0,0.0,0.0,0.0,0.0,0.0,0.0,0.0,0.0,0.0,0.0,0.0,0.0,0.0,0.0,0.0,0.0,0.0,0.0,0.0,0.0,0.0,0.0,0.0,0.0,0.0,0.0,0.0,0.0,0.0,0.0,0.0,0.0,0.0,0.0,0.0,0.0,0.0,0.0,0.0,0.0,0.0,0.0,0.0,0.0,0.0,0.0,0.0,0.0,0.0,0.0,0.0,0.0,0.0,0.0,0.0,0.0,0.0,0.0,0.0,0.0,0.0,0.0,0.0,0.0,0.0,0.0,0.0,0.0,0.0,0.0,0.0,0.0,0.0,0.0,0.0,0.0,0.0,0.0,0.0,0.0,0.0,0.0,0.0,0.0,0.0,0.0,0.0,0.0,0.0,0.0,0.0,0.0,0.0,0.0,0.0,0.0,0.0,0.0,0.0,0.0,0.0,0.0,0.0,0.0,0.0,0.0,0.0,0.0,0.0,0.0,0.0,0.0,0.0,0.0,0.0,0.0,0.0,0.0,0.0,0.0,0.0,0.0,0.0,0.0,0.0,0.0,0.0,0.0,0.0,0.0,0.0,0.0,0.0,0.0,0.0,0.0,0.0,0.0,0.0,0.0,0.0,0.0,0.0,0.0,0.0,0.0,0.0,0.0,0.0,0.0,0.0,0.0,0.0,0.0,0.0,0.0,0.0,0.0,0.0,0.0,0.0,0.0,0.0,0.0,0.0,0.0,0.0,0.0,0.0,0.0,0.0,0.0,0.0,0.0,0.0,0.0,0.0,0.0,0.0,0.0,0.0,0.0,0.0,0.0,0.0,0.0,0.0,0.0,0.0,0.0,0.0,0.0,0.0,0.0,0.0,0.0,0.0,0.0,0.0,0.0,0.0,0.0,0.0,0.0,0.0,0.0,0.0,0.0,0.0,0.0,0.0,0.0,0.0,0.0,0.0,0.0,0.0,0.0,0.0,0.0,0.0,0.0,0.0,0.0,0.0,0.0,0.0,0.0,0.0,0.0,0.0,0.0,0.0,0.0,0.0,0.0,0.0,0.0,0.0,0.0,0.0,0.0,0.0,0.0,0.0,0.0,0.0,0.0,0.0,0.0,0.0,0.0,0.0,0.0,0.0,0.0,0.0,0.0,0.0,0.0,0.0,0.0,0.0,0.0,0.0,0.0,0.0,0.0,0.0,0.0,0.0,0.0,0.0,0.0,0.0,0.0,0.0,0.0,0.0,0.0,0.0,0.0,0.0,0.0,0.0,0.0,0.0,0.0,0.0,0.0,0.0,0.0,0.0,0.0,0.0,0.0,-0.8421,0.0,0.0,0.0,-0.8922,0.0,0.0,0.0,0.0,0.0,0.0,0.0,0.0,0.0,0.0,0.0,0.0,0.0,0.0,0.0,0.0,0.0,0.0,0.0,0.0,0.0,0.0,0.0,0.0,0.0,0.0,0.0,0.0,0.0,0.0,0.0,0.0,0.0,0.0,0.0,0.0,0.0,0.0,0.0,0.0,0.0,0.0,0.0,0.0,0.0,0.0,0.0,0.0,0.0,0.0,0.0,0.0,0.0,0.0,0.0,0.0,0.0,0.0,0.0,0.0,0.0,0.0,0.0,0.0,0.0,0.0,0.0,0.0,0.0,0.0,0.0,0.0,0.0,0.0,0.0,0.0,0.0,0.0,0.0,0.0,0.0,0.0,0.0,0.0,0.0,0.0,0.0,0.0,0.0,0.0,0.0,0.0,0.0,0.0,0.0,0.0,0.0,0.0,0.0,0.0,0.0,0.0,0.0,0.0,0.0,0.0,0.0,0.0,0.0,0.0,-0.8527,-0.8646,-0.9054,-0.9145,-0.883,0.0,0.0,0.0,0.0,0.0,0.0,0.0,0.0,0.0,0.0,0.0,0.0,0.0,0.0,0.0,0.0,0.0,0.0,0.0,0.0,0.0,0.0,0.0,0.0,0.0,0.0,0.0,0.0,0.0,0.0,0.0,0.0,0.0,0.0,0.0,0.0,0.0,0.0,0.0,0.0,0.0,0.0,0.0,0.0,0.0,0.0,0.0,0.0,0.0,0.0,0.0,0.0,0.0,0.0,0.0,0.0,0.0,0.0,0.0,0.0,0.0,0.0,0.0,0.0,0.0,0.0,0.0,0.0,0.0,0.0,0.0,0.0,0.0,0.0,0.0,0.0,0.0,0.0,0.0,0.0,0.0,0.0,0.0,0.0,0.0,0.0,0.0,0.0,0.0,0.0,0.0,0.0,0.0,0.0,0.0,0.0,0.0,0.0,0.0,0.0,0.0,0.0,0.0,0.0,0.0,0.0,0.0,0.0,0.0,0.0,0.0,0.0,-0.9159,-0.9263,-0.9197,0.0,0.0,0.0,0.0,0.0,0.0,0.0,0.0,0.0,0.0,0.0,0.0,0.0,0.0,0.0,0.0,0.0,0.0,0.0,0.0,0.0,0.0,0.0,0.0,0.0,0.0,0.0,0.0,0.0,0.0,0.0,0.0,0.0,0.0,0.0,0.0,0.0,0.0,0.0,0.0,0.0,0.0,0.0,0.0,0.0,0.0,0.0,0.0,0.0,0.0,0.0,0.0,0.0,0.0,0.0,0.0,0.0,0.0,0.0,0.0,0.0,0.0,0.0,0.0,0.0,0.0,0.0,0.0,0.0,0.0,0.0,0.0,0.0,0.0,0.0,0.0,0.0,0.0,0.0,0.0,0.0,0.0,0.0,0.0,0.0,0.0,0.0,0.0,0.0,0.0,0.0,0.0,0.0,0.0,0.0,0.0,0.0,0.0,0.0,0.0,0.0,0.0,0.0,0.0,0.0,0.0,0.0,0.0,0.0,0.0,-0.8434,-0.8804,-0.9159,0.0,-1.0249,0.0,0.0,0.0,0.0,0.0,0.0,0.0,0.0,0.0,0.0,0.0,0.0,0.0,0.0,0.0,0.0,0.0,0.0,0.0,0.0,0.0,0.0,0.0,0.0,0.0,0.0,0.0,0.0,0.0,0.0,0.0,0.0,0.0,0.0,0.0,0.0,0.0,0.0,0.0,0.0,0.0,0.0,0.0,0.0,0.0,0.0,0.0,0.0,0.0,0.0,0.0,0.0,0.0,0.0,0.0,0.0,0.0,0.0,0.0,0.0,0.0,0.0,0.0,0.0,0.0,0.0,0.0,0.0,0.0,0.0,0.0,0.0,0.0,0.0,0.0,0.0,0.0,0.0,0.0,0.0,0.0,0.0,0.0,0.0,0.0,0.0,0.0,0.0,0.0,0.0,0.0,0.0,0.0,0.0,0.0,0.0,0.0,0.0,0.0,0.0,0.0,0.0,0.0,0.0,0.0,0.0,0.0,0.0,0.0,0.0,-0.7664,-0.8156,-0.8143,-0.8672,0.0,0.0,0.0,0.0,0.0,0.0,0.0,0.0,0.0,0.0,0.0,0.0,0.0,0.0,0.0,0.0,0.0,0.0,0.0,0.0,0.0,0.0,0.0,0.0,0.0,0.0,0.0,0.0,0.0,0.0,0.0,0.0,0.0,0.0,0.0,0.0,0.0,0.0,0.0,0.0,0.0,0.0,0.0,0.0,0.0,0.0,0.0,0.0,0.0,0.0,0.0,0.0,0.0,0.0,0.0,0.0,0.0,0.0,0.0,0.0,0.0,0.0,0.0,0.0,0.0,0.0,0.0,0.0,0.0,0.0,0.0,0.0,0.0,0.0,0.0,0.0,0.0,0.0,0.0,0.0,0.0,0.0,0.0,0.0,0.0,0.0,0.0,0.0,0.0,0.0,0.0,0.0,0.0,0.0,0.0,0.0,0.0,0.0,0.0,0.0,0.0,0.0,0.0,0.0,0.0,0.0,0.0,0.0,0.0,0.0,-0.6858,-0.7182,-0.7931,-0.7984,-0.8554,-0.9821,0.0,0.0,0.0,0.0,0.0,0.0,0.0,0.0,0.0,0.0,0.0,0.0,0.0,0.0,0.0,0.0,0.0,0.0,0.0,0.0,0.0,0.0,0.0,0.0,0.0,0.0,0.0,0.0,0.0,0.0,0.0,0.0,0.0,0.0,0.0,0.0,0.0,0.0,0.0,0.0,0.0,0.0,0.0,0.0,0.0,0.0,0.0,0.0,0.0,0.0,0.0,0.0,0.0,0.0,0.0,0.0,0.0,0.0,0.0,0.0,0.0,0.0,0.0,0.0,0.0,0.0,0.0,0.0,0.0,0.0,0.0,0.0,0.0,0.0,0.0,0.0,0.0,0.0,0.0,0.0,0.0,0.0,0.0,0.0,0.0,0.0,0.0,0.0,0.0,0.0,0.0,0.0,0.0,0.0,0.0,0.0,0.0,0.0,0.0,0.0,0.0,0.0,0.0,0.0,0.0,0.0,0.0,0.0,-0.6416,-0.6642,-0.7343,-0.8672,-0.9368,-1.0095,0.0,0.0,0.0,0.0,0.0,0.0,0.0,0.0,0.0,0.0,0.0,0.0,0.0,0.0,0.0,0.0,0.0,0.0,0.0,0.0,0.0,0.0,0.0,0.0,0.0,0.0,0.0,0.0,0.0,0.0,0.0,0.0,0.0,0.0,0.0,0.0,0.0,0.0,0.0,0.0,0.0,0.0,0.0,0.0,0.0,0.0,0.0,0.0,0.0,0.0,0.0,0.0,0.0,0.0,0.0,0.0,0.0,0.0,0.0,0.0,0.0,0.0,0.0,0.0,0.0,0.0,0.0,0.0,0.0,0.0,0.0,0.0,0.0,0.0,0.0,0.0,0.0,0.0,0.0,0.0,0.0,0.0,0.0,0.0,0.0,0.0,0.0,0.0,0.0,0.0,0.0,0.0,0.0,0.0,0.0,0.0,0.0,0.0,0.0,0.0,0.0,0.0,0.0,0.0,0.0,0.0,0.0,0.0,0.0,-0.6273,-0.6912,-0.7331,-0.7682,-0.8712,-0.9717,0.0,0.0,0.0,0.0,0.0,0.0,0.0,0.0,0.0,0.0,0.0,0.0,0.0,0.0,0.0,0.0,0.0,0.0,0.0,0.0,0.0,0.0,0.0,0.0,0.0,0.0,0.0,0.0,0.0,0.0,0.0,0.0,0.0,0.0,0.0,0.0,0.0,0.0,0.0,0.0,0.0,0.0,0.0,0.0,0.0,0.0,0.0,0.0,0.0,0.0,0.0,0.0,0.0,0.0,0.0,0.0,0.0,0.0,0.0,0.0,0.0,0.0,0.0,0.0,0.0,0.0,0.0,0.0,0.0,0.0,0.0,0.0,0.0,0.0,0.0,0.0,0.0,0.0,0.0,0.0,0.0,0.0,0.0,0.0,0.0,0.0,0.0,0.0,0.0,0.0,0.0,0.0,0.0,0.0,0.0,0.0,0.0,0.0,0.0,0.0,0.0,0.0,0.0,0.0,0.0,0.0,0.0,0.0,0.0,-0.6322,-0.7345,-0.7811,-0.7746,-0.9044,-1.0028,0.0,0.0,0.0,0.0,0.0,0.0,0.0,0.0,0.0,0.0,0.0,0.0,0.0,0.0,0.0,0.0,0.0,0.0,0.0,0.0,0.0,0.0,0.0,0.0,0.0,0.0,0.0,0.0,0.0,0.0,0.0,0.0,0.0,0.0,0.0,0.0,0.0,0.0,0.0,0.0,0.0,0.0,0.0,0.0,0.0,0.0,0.0,0.0,0.0,0.0,0.0,0.0,0.0,0.0,0.0,0.0,0.0,0.0,0.0,0.0,0.0,0.0,0.0,0.0,0.0,0.0,0.0,0.0,0.0,0.0,0.0,0.0,0.0,0.0,0.0,0.0,0.0,0.0,0.0,0.0,0.0,0.0,0.0,0.0,0.0,0.0,0.0,0.0,0.0,0.0,0.0,0.0,0.0,0.0,0.0,0.0,0.0,0.0,0.0,0.0,0.0,0.0,0.0,0.0,0.0,0.0,0.0,0.0,-0.5776,-0.6578,-0.7857,-0.8626,-0.9081,-1.0477,-1.1295,0.0,0.0,0.0,0.0,0.0,0.0,0.0,0.0,0.0,0.0,0.0,0.0,0.0,0.0,0.0,0.0,0.0,0.0,0.0,0.0,0.0,0.0,0.0,0.0,0.0,0.0,0.0,0.0,0.0,0.0,0.0,0.0,0.0,0.0,0.0,0.0,0.0,0.0,0.0,0.0,0.0,0.0,0.0,0.0,0.0,0.0,0.0,0.0,0.0,0.0,0.0,0.0,0.0,0.0,0.0,0.0,0.0,0.0,0.0,0.0,0.0,0.0,0.0,0.0,0.0,0.0,0.0,0.0,0.0,0.0,0.0,0.0,0.0,0.0,0.0,0.0,0.0,0.0,0.0,0.0,0.0,0.0,0.0,0.0,0.0,0.0,0.0,0.0,0.0,0.0,0.0,0.0,0.0,0.0,0.0,0.0,0.0,0.0,0.0,0.0,0.0,0.0,0.0,0.0,0.0,0.0,0.0,0.0,0.0,-0.6473,-0.7349,-0.8062,-0.864,-0.9726,-1.0444,0.0,0.0,0.0,0.0,0.0,0.0,0.0,0.0,0.0,0.0,0.0,0.0,0.0,0.0,0.0,0.0,0.0,0.0,0.0,0.0,0.0,0.0,0.0,0.0,0.0,0.0,0.0,0.0,0.0,0.0,0.0,0.0,0.0,0.0,0.0,0.0,0.0,0.0,0.0,0.0,0.0,0.0,0.0,0.0,0.0,0.0,0.0,0.0,0.0,0.0,0.0,0.0,0.0,0.0,0.0,0.0,0.0,0.0,0.0,0.0,0.0,0.0,0.0,0.0,0.0,0.0,0.0,0.0,0.0,0.0,0.0,0.0,0.0,0.0,0.0,0.0,0.0,0.0,0.0,0.0,0.0,0.0,0.0,0.0,0.0,0.0,0.0,0.0,0.0,0.0,0.0,0.0,0.0,0.0,0.0,0.0,0.0,0.0,0.0,0.0,0.0,0.0,0.0,0.0,0.0,0.0,0.0,0.0,0.0,-0.7431,-0.8058,-0.8491,-0.8731,-0.9371,-0.9892,-1.025,0.0,0.0,0.0,0.0,0.0,0.0,0.0,0.0,0.0,0.0,0.0,0.0,0.0,0.0,0.0,0.0,0.0,0.0,0.0,0.0,0.0,0.0,0.0,0.0,0.0,0.0,0.0,0.0,0.0,0.0,0.0,0.0,0.0,0.0,0.0,0.0,0.0,0.0,0.0,0.0,0.0,0.0,0.0,0.0,0.0,0.0,0.0,0.0,0.0,0.0,0.0,0.0,0.0,0.0,0.0,0.0,0.0,0.0,0.0,0.0,0.0,0.0,0.0,0.0,0.0,0.0,0.0,0.0,0.0,0.0,0.0,0.0,0.0,0.0,0.0,0.0,0.0,0.0,0.0,0.0,0.0,0.0,0.0,0.0,0.0,0.0,0.0,0.0,0.0,0.0,0.0,0.0,0.0,0.0,0.0,0.0,0.0,0.0,0.0,0.0,0.0,0.0,0.0,0.0,0.0,0.0,0.0,0.0,-0.9129,-0.9719,-0.9833,-0.9287,-0.9366,-0.9709,0.0,0.0,0.0,0.0,0.0,0.0,0.0,0.0,0.0,0.0,0.0,0.0,0.0,0.0,0.0,0.0,0.0,0.0,0.0,0.0,0.0,0.0,0.0,0.0,0.0,0.0,0.0,0.0,0.0,0.0,0.0,0.0,0.0,0.0,0.0,0.0,0.0,0.0,0.0,0.0,0.0,0.0,0.0,0.0,0.0,0.0,0.0,0.0,0.0,0.0,0.0,0.0,0.0,0.0,0.0,0.0,0.0,0.0,0.0,0.0,0.0,0.0,0.0,0.0,0.0,0.0,0.0,0.0,0.0,0.0,0.0,0.0,0.0,0.0,0.0,0.0,0.0,0.0,0.0,0.0,0.0,0.0,0.0,0.0,0.0,0.0,0.0,0.0,0.0,0.0,0.0,0.0,0.0,0.0,0.0,0.0,0.0,0.0,0.0,0.0,0.0,0.0,0.0,0.0,0.0,0.0,0.0,0.0,0.0,-0.997,-0.9833,-0.9635,-0.9447,-0.8742,-0.896,0.0,0.0,0.0,0.0,0.0,0.0,0.0,0.0,0.0,0.0,0.0,0.0,0.0,0.0,0.0,0.0,0.0,0.0,0.0,0.0,0.0,0.0,0.0,0.0,0.0,0.0,0.0,0.0,0.0,0.0,0.0,0.0,0.0,0.0,0.0,0.0,0.0,0.0,0.0,0.0,0.0,0.0,0.0,0.0,0.0,0.0,0.0,0.0,0.0,0.0,0.0,0.0,0.0,0.0,0.0,0.0,0.0,0.0,0.0,0.0,0.0,0.0,0.0,0.0,0.0,0.0,0.0,0.0,0.0,0.0,0.0,0.0,0.0,0.0,0.0,0.0,0.0,0.0,0.0,0.0,0.0,0.0,0.0,0.0,0.0,0.0,0.0,0.0,0.0,0.0,0.0,0.0,0.0,0.0,0.0,0.0,0.0,0.0,0.0,0.0,0.0,0.0,0.0,0.0,0.0,0.0,0.0,0.0,-0.8786,-0.9948,-0.9673,-0.9265,-0.8819,-0.7819,-0.8199,0.0,0.0,0.0,0.0,0.0,0.0,0.0,0.0,0.0,0.0,0.0,0.0,0.0,0.0,0.0,0.0,0.0,0.0,0.0,0.0,0.0,0.0,0.0,0.0,0.0,0.0,0.0,0.0,0.0,0.0,0.0,0.0,0.0,0.0,0.0,0.0,0.0,0.0,0.0,0.0,0.0,0.0,0.0,0.0,0.0,0.0,0.0,0.0,0.0,0.0,0.0,0.0,0.0,0.0,0.0,0.0,0.0,0.0,0.0,0.0,0.0,0.0,0.0,0.0,0.0,0.0,0.0,0.0,0.0,0.0,0.0,0.0,0.0,0.0,0.0,0.0,0.0,0.0,0.0,0.0,0.0,0.0,0.0,0.0,0.0,0.0,0.0,0.0,0.0,0.0,0.0,0.0,0.0,0.0,0.0,0.0,0.0,0.0,0.0,0.0,0.0,0.0,0.0,0.0,0.0,0.0,0.0,0.0,-0.8768,-0.9389,-0.9226,-0.8632,-0.7819,-0.6874,-0.7446,0.0,0.0,0.0,0.0,0.0,0.0,0.0,0.0,0.0,0.0,0.0,0.0,0.0,0.0,0.0,0.0,0.0,0.0,0.0,0.0,0.0,0.0,0.0,0.0,0.0,0.0,0.0,0.0,0.0,0.0,0.0,0.0,0.0,0.0,0.0,0.0,0.0,0.0,0.0,0.0,0.0,0.0,0.0,0.0,0.0,0.0,0.0,0.0,0.0,0.0,0.0,0.0,0.0,0.0,0.0,0.0,0.0,0.0,0.0,0.0,0.0,0.0,0.0,0.0,0.0,0.0,0.0,0.0,0.0,0.0,0.0,0.0,0.0,0.0,0.0,0.0,0.0,0.0,0.0,0.0,0.0,0.0,0.0,0.0,0.0,0.0,0.0,0.0,0.0,0.0,0.0,0.0,0.0,0.0,0.0,0.0,0.0,0.0,0.0,0.0,0.0,0.0,0.0,0.0,0.0,0.0,0.0,0.0,-0.8889,-0.9414,-0.8233,-0.7658,-0.7834,-0.6635,-0.7024,0.0,0.0,0.0,0.0,0.0,0.0,0.0,0.0,0.0,0.0,0.0,0.0,0.0,0.0,0.0,0.0,0.0,0.0,0.0,0.0,0.0,0.0,0.0,0.0,0.0,0.0,0.0,0.0,0.0,0.0,0.0,0.0,0.0,0.0,0.0,0.0,0.0,0.0,0.0,0.0,0.0,0.0,0.0,0.0,0.0,0.0,0.0,0.0,-1.0861,0.0,0.0,0.0,0.0,0.0,0.0,0.0,0.0,0.0,0.0,0.0,0.0,0.0,0.0,0.0,0.0,0.0,0.0,0.0,0.0,0.0,0.0,0.0,0.0,0.0,0.0,0.0,0.0,0.0,0.0,0.0,0.0,0.0,0.0,0.0,0.0,0.0,0.0,0.0,0.0,0.0,0.0,0.0,0.0,0.0,0.0,0.0,0.0,0.0,0.0,0.0,0.0,0.0,0.0,0.0,0.0,0.0,0.0,0.0,-0.8064,-0.8268,-0.696,-0.6328,-0.6416,-0.5534,-0.6013,0.0,0.0,0.0,0.0,0.0,0.0,0.0,0.0,0.0,0.0,0.0,0.0,0.0,0.0,0.0,0.0,0.0,0.0,0.0,0.0,0.0,0.0,0.0,0.0,0.0,0.0,0.0,0.0,0.0,0.0,0.0,0.0,0.0,0.0,0.0,0.0,0.0,0.0,0.0,0.0,0.0,0.0,0.0,0.0,0.0,0.0,0.0,0.0,0.0,0.0,0.0,0.0,0.0,0.0,0.0,0.0,0.0,0.0,0.0,0.0,0.0,0.0,0.0,0.0,0.0,0.0,0.0,0.0,0.0,0.0,0.0,0.0,0.0,0.0,0.0,0.0,0.0,0.0,0.0,0.0,0.0,0.0,0.0,0.0,0.0,0.0,0.0,0.0,0.0,0.0,0.0,0.0,0.0,0.0,0.0,0.0,0.0,0.0,0.0,0.0,0.0,0.0,0.0,0.0,0.0,0.0,0.0,-0.6732,-0.6791,-0.6675,-0.5571,-0.4914,-0.4919,-0.4297,-0.4751,-0.6485,0.0,0.0,0.0,0.0,0.0,0.0,0.0,0.0,0.0,0.0,0.0,0.0,0.0,0.0,0.0,0.0,0.0,0.0,0.0,0.0,0.0,0.0,0.0,0.0,0.0,0.0,0.0,0.0,0.0,0.0,0.0,0.0,0.0,0.0,0.0,0.0,0.0,0.0,-0.964,-1.0441,0.0,0.0,0.0,0.0,0.0,0.0,0.0,0.0,-1.2228,0.0,0.0,0.0,0.0,0.0,0.0,0.0,0.0,0.0,0.0,0.0,0.0,0.0,0.0,0.0,0.0,0.0,0.0,0.0,0.0,0.0,0.0,0.0,0.0,0.0,0.0,0.0,0.0,0.0,0.0,0.0,0.0,0.0,0.0,0.0,0.0,0.0,0.0,0.0,0.0,0.0,0.0,0.0,0.0,0.0,0.0,0.0,0.0,0.0,0.0,0.0,0.0,0.0,0.0,0.0,0.0,-0.5701,-0.5589,-0.56,-0.5857,-0.4016,-0.3582,-0.4746,-0.3244,-0.3333,-0.5218,0.0,0.0,0.0,0.0,0.0,0.0,0.0,0.0,0.0,0.0,0.0,0.0,0.0,0.0,0.0,0.0,0.0,0.0,0.0,0.0,0.0,0.0,0.0,0.0,0.0,0.0,0.0,0.0,0.0,0.0,0.0,0.0,0.0,0.0,0.0,0.0,0.0,0.0,0.0,-1.1548,-1.1662,0.0,0.0,0.0,0.0,0.0,0.0,0.0,0.0,-1.3683,0.0,0.0,0.0,0.0,0.0,0.0,0.0,0.0,0.0,0.0,0.0,0.0,0.0,0.0,0.0,0.0,0.0,0.0,0.0,0.0,0.0,0.0,0.0,0.0,0.0,0.0,0.0,0.0,0.0,0.0,0.0,0.0,0.0,0.0,0.0,0.0,0.0,0.0,0.0,0.0,0.0,0.0,0.0,0.0,0.0,0.0,0.0,0.0,0.0,0.0,0.0,0.0,0.0,0.0,0.0,-0.5455,-0.4956,-0.4579,-0.4372,-0.2956,-0.2598,-0.3492,-0.2985,-0.3578,0.0,0.0,0.0,0.0,0.0,0.0,0.0,0.0,0.0,0.0,0.0,0.0,0.0,0.0,0.0,0.0,0.0,0.0,0.0,0.0,0.0,0.0,0.0,0.0,0.0,0.0,0.0,0.0,0.0,0.0,0.0,0.0,0.0,0.0,0.0,0.0,0.0,0.0,0.0,0.0,-1.1875,-1.2588,-1.3591,0.0,0.0,0.0,0.0,0.0,0.0,-1.4752,-1.4956,0.0,0.0,0.0,0.0,0.0,0.0,0.0,0.0,0.0,0.0,0.0,0.0,0.0,0.0,0.0,0.0,0.0,0.0,0.0,0.0,0.0,0.0,0.0,0.0,0.0,0.0,0.0,0.0,0.0,0.0,0.0,0.0,0.0,0.0,0.0,0.0,0.0,0.0,0.0,0.0,0.0,0.0,0.0,0.0,0.0,0.0,0.0,0.0,0.0,0.0,0.0,0.0,0.0,0.0,0.0,-0.4909,-0.4391,-0.3699,-0.2877,-0.1985,-0.1621,-0.1701,-0.2187,-0.3465,0.0,0.0,0.0,0.0,0.0,0.0,0.0,0.0,0.0,0.0,0.0,0.0,0.0,0.0,0.0,0.0,0.0,0.0,0.0,0.0,0.0,0.0,0.0,0.0,0.0,0.0,0.0,0.0,0.0,0.0,0.0,0.0,0.0,0.0,0.0,0.0,0.0,0.0,0.0,0.0,0.0,-1.3207,-1.4124,-1.4076,0.0,0.0,0.0,0.0,-1.4753,-1.5796,0.0,0.0,0.0,0.0,0.0,0.0,0.0,0.0,0.0,0.0,0.0,0.0,0.0,0.0,0.0,0.0,0.0,0.0,0.0,0.0,0.0,0.0,0.0,0.0,0.0,0.0,0.0,0.0,0.0,0.0,0.0,0.0,0.0,0.0,0.0,0.0,0.0,0.0,0.0,0.0,0.0,0.0,0.0,0.0,0.0,0.0,0.0,0.0,0.0,0.0,0.0,0.0,0.0,0.0,0.0,0.0,-0.2994,-0.3225,-0.2793,-0.1748,-0.0737,-0.0,0.0626,0.0517,-0.1255,0.0,0.0,0.0,0.0,0.0,0.0,0.0,0.0,0.0,0.0,0.0,0.0,0.0,0.0,0.0,0.0,0.0,0.0,0.0,0.0,0.0,0.0,0.0,0.0,0.0,0.0,0.0,0.0,0.0,0.0,0.0,0.0,0.0,0.0,0.0,0.0,0.0,0.0,0.0,0.0,0.0,-1.3006,-1.4473,-1.4606,-1.4299,0.0,0.0,-1.6253,-1.4669,-1.6787,0.0,0.0,0.0,0.0,0.0,0.0,0.0,0.0,0.0,0.0,0.0,0.0,0.0,0.0,0.0,0.0,0.0,0.0,0.0,0.0,0.0,0.0,0.0,0.0,0.0,0.0,0.0,0.0,0.0,0.0,0.0,0.0,0.0,0.0,0.0,0.0,0.0,0.0,0.0,0.0,0.0,0.0,0.0,0.0,0.0,0.0,0.0,0.0,0.0,0.0,0.0,0.0,0.0,0.0,0.0,-0.4665,-0.4214,-0.4039,-0.2959,-0.074,0.0747,0.1861,0.2458,0.1945,0.0086,0.0,0.0,0.0,0.0,0.0,0.0,0.0,0.0,0.0,0.0,0.0,0.0,0.0,0.0,0.0,0.0,0.0,0.0,0.0,0.0,0.0,0.0,0.0,0.0,0.0,0.0,0.0,0.0,0.0,0.0,0.0,0.0,0.0,0.0,0.0,0.0,0.0,0.0,0.0,0.0,0.0,0.0,-1.4458,-1.493,0.0,0.0,0.0,-1.6744,-1.5615,0.0,0.0,0.0,0.0,0.0,0.0,0.0,0.0,0.0,0.0,0.0,0.0,0.0,0.0,0.0,0.0,0.0,0.0,0.0,0.0,0.0,0.0,0.0,0.0,0.0,0.0,0.0,0.0,0.0,0.0,0.0,0.0,0.0,0.0,0.0,0.0,0.0,0.0,0.0,0.0,0.0,0.0,0.0,0.0,0.0,0.0,0.0,0.0,0.0,0.0,0.0,0.0,0.0,0.0,0.0,0.0,0.0,-0.5326,-0.471,-0.3041,-0.0281,0.171,0.3035,0.3721,0.2913,0.0,0.0,0.0,0.0,0.0,0.0,0.0,0.0,0.0,0.0,0.0,0.0,0.0,0.0,0.0,0.0,0.0,0.0,0.0,0.0,0.0,0.0,0.0,0.0,0.0,0.0,0.0,-0.7977,0.0,0.0,0.0,0.0,0.0,0.0,0.0,0.0,0.0,0.0,0.0,0.0,0.0,0.0,-1.3446,-1.4199,-1.5002,-1.5955,0.0,0.0,-1.7177,-1.6955,-1.8722,-1.9069,0.0,0.0,0.0,0.0,0.0,0.0,0.0,0.0,0.0,0.0,0.0,0.0,0.0,0.0,0.0,0.0,0.0,0.0,0.0,0.0,0.0,0.0,0.0,0.0,0.0,0.0,0.0,0.0,0.0,0.0,0.0,0.0,0.0,0.0,0.0,0.0,0.0,0.0,0.0,0.0,0.0,0.0,0.0,0.0,0.0,0.0,0.0,0.0,0.0,0.0,0.0,0.0,0.0,0.0,-0.5333,-0.5107,-0.4269,-0.2633,-0.0391,0.1465,0.2999,0.408,0.3628,0.2726,0.0,0.0,0.0,0.0,0.0,0.0,0.0,0.0,0.0,0.0,0.0,0.0,0.0,0.0,0.0,0.0,0.0,0.0,0.0,0.0,0.0,0.0,0.0,0.0,0.0,0.0,0.0,0.0,0.0,0.0,0.0,0.0,0.0,0.0,0.0,0.0,0.0,0.0,0.0,0.0,0.0,-1.316,-1.388,-1.4955,-1.6175,0.0,-1.7303,-1.7439,-1.8259,-1.989,-1.9864,-1.6162,0.0,0.0,0.0,0.0,0.0,0.0,0.0,0.0,0.0,0.0,0.0,0.0,0.0,0.0,0.0,0.0,0.0,0.0,0.0,0.0,0.0,0.0,0.0,0.0,0.0,0.0,0.0,0.0,0.0,0.0,0.0,0.0,0.0,0.0,0.0,0.0,0.0,0.0,0.0,0.0,0.0,0.0,0.0,0.0,0.0,0.0,0.0,0.0,0.0,0.0,0.0,0.0,0.0,-0.524,-0.4218,-0.4135,-0.3065,-0.0784,0.1287,0.2961,0.3971,0.4618,0.3964,0.0,0.0,0.0,0.0,0.0,0.0,0.0,0.0,0.0,0.0,0.0,0.0,0.0,0.0,0.0,0.0,0.0,0.0,0.0,0.0,0.0,0.0,0.0,0.0,0.0,0.0,0.0,0.0,-1.1758,-1.2331,-1.1706,0.0,0.0,0.0,0.0,0.0,0.0,0.0,0.0,0.0,0.0,-1.4595,-1.5643,-1.6074,0.0,0.0,-1.6842,-1.593,-1.617,-1.6599,-1.6354,-1.4304,-1.3291,0.0,0.0,0.0,0.0,0.0,0.0,0.0,0.0,0.0,0.0,0.0,0.0,0.0,0.0,0.0,0.0,0.0,0.0,0.0,0.0,0.0,0.0,0.0,0.0,0.0,0.0,0.0,0.0,0.0,0.0,0.0,0.0,0.0,0.0,0.0,0.0,0.0,0.0,0.0,0.0,0.0,0.0,0.0,0.0,0.0,0.0,0.0,0.0,0.0,0.0,0.0,0.0,-0.4979,-0.3764,-0.4257,-0.3396,-0.1283,0.0899,0.25,0.3358,0.4051,0.35,0.0,0.0,0.0,0.0,0.0,0.0,0.0,0.0,0.0,0.0,0.0,0.0,0.0,0.0,0.0,0.0,0.0,0.0,0.0,0.0,0.0,0.0,0.0,0.0,0.0,0.0,0.0,0.0,-1.2103,-1.2217,-1.0622,0.0,0.0,0.0,0.0,0.0,0.0,0.0,0.0,0.0,0.0,-1.5541,-1.5943,-1.5966,-1.6276,-1.7173,-1.5751,-1.4758,-1.5258,-1.4886,-1.4205,-1.3221,0.0,0.0,0.0,0.0,0.0,0.0,0.0,0.0,0.0,0.0,0.0,0.0,0.0,0.0,0.0,0.0,0.0,0.0,0.0,0.0,0.0,0.0,0.0,0.0,0.0,0.0,0.0,-0.5406,0.0,0.0,-0.3868,0.0,0.0,0.0,0.0,0.0,0.0,0.0,0.0,0.0,0.0,0.0,0.0,0.0,0.0,0.0,0.0,0.0,0.0,0.0,0.0,0.0,0.0,-0.4538,-0.421,-0.4647,-0.3917,-0.2011,0.01,0.1406,0.191,0.1507,0.0893,-0.0,0.0,0.0,0.0,0.0,0.0,0.0,0.0,0.0,0.0,0.0,0.0,0.0,0.0,0.0,0.0,0.0,0.0,0.0,0.0,0.0,0.0,0.0,0.0,0.0,0.0,0.0,-1.0551,-1.1075,-1.0591,0.0,0.0,0.0,0.0,0.0,0.0,0.0,0.0,0.0,-1.2789,-1.4922,-1.5724,-1.4212,-1.4074,-1.443,-1.4687,-1.3856,-1.3984,-1.6492,-1.574,-1.4538,0.0,0.0,0.0,0.0,0.0,0.0,0.0,0.0,0.0,0.0,0.0,0.0,0.0,0.0,0.0,0.0,0.0,0.0,0.0,0.0,0.0,0.0,0.0,0.0,0.0,0.0,0.0,-0.6642,-0.6929,0.0,0.0,0.0,0.0,0.0,0.0,0.0,0.0,0.0,0.0,0.0,-1.4569,-1.4403,0.0,0.0,0.0,0.0,0.0,0.0,0.0,0.0,0.0,0.0,0.0,0.0,-0.5339,-0.5309,-0.516,-0.4722,-0.382,-0.2111,-0.1106,-0.0906,-0.1405,-0.2761,-0.4862,0.0,0.0,0.0,0.0,0.0,0.0,0.0,0.0,0.0,0.0,0.0,0.0,0.0,0.0,0.0,0.0,0.0,0.0,0.0,0.0,0.0,0.0,0.0,0.0,0.0,-0.9884,0.0,0.0,0.0,0.0,0.0,0.0,0.0,0.0,0.0,0.0,-1.0854,-1.2157,-1.3511,-1.4425,-1.4934,-1.4636,-1.4708,-1.5126,0.0,0.0,0.0,0.0,0.0,0.0,0.0,0.0,0.0,0.0,0.0,0.0,0.0,0.0,-1.3339,-1.4763,-1.5419,-1.5682,-1.5758,0.0,0.0,0.0,0.0,0.0,0.0,0.0,0.0,0.0,0.0,0.0,0.0,0.0,0.0,-0.7974,-0.8228,-0.7701,0.0,0.0,0.0,0.0,0.0,0.0,0.0,0.0,-1.4623,-1.6104,-1.7448,-1.7664,-1.7677,-1.746,-1.6381,-1.3761,0.0,0.0,0.0,0.0,0.0,0.0,0.0,0.0,-0.5786,-0.5639,-0.6144,-0.5917,-0.4822,-0.3723,-0.302,-0.3017,-0.4214,-0.5935,-0.8203,-0.8995,-0.8647,0.0,0.0,0.0,0.0,0.0,0.0,0.0,0.0,0.0,0.0,0.0,0.0,0.0,0.0,0.0,0.0,0.0,0.0,0.0,0.0,0.0,0.0,0.0,-0.963,0.0,0.0,0.0,0.0,0.0,0.0,0.0,0.0,0.0,-1.1686,-1.2685,-1.3806,-1.5013,-1.5598,-1.5461,-1.4416,0.0,0.0,0.0,0.0,0.0,0.0,0.0,-1.0557,-1.1106,-1.1658,-1.2307,-1.3376,-1.297,-1.2673,-1.291,0.0,0.0,-1.6442,-1.7412,-1.7908,-1.7877,-1.7559,-1.7338,-1.7656,-1.7877,-1.8504,0.0,0.0,0.0,0.0,-0.723,0.0,0.0,0.0,-0.9216,-0.9137,0.0,-0.8267,0.0,0.0,0.0,0.0,-1.2334,-1.2983,0.0,0.0,-1.7991,-1.9333,-2.0,-2.0425,-2.063,-2.0382,-2.0039,-1.9295,-1.8074,-1.3764,0.0,0.0,0.0,0.0,0.0,0.0,-0.5953,-0.5563,-0.7607,-0.7515,-0.5031,-0.463,-0.4425,-0.4325,-0.6719,-0.8612,-1.0002,-0.9807,-0.9515,-0.9411,-0.6777,0.0,0.0,0.0,0.0,0.0,0.0,0.0,0.0,0.0,0.0,0.0,0.0,0.0,0.0,0.0,0.0,0.0,0.0,0.0,0.0,-0.9548,0.0,0.0,0.0,0.0,0.0,0.0,0.0,0.0,0.0,-1.2996,-1.4515,-1.4794,-1.5558,-1.7202,0.0,0.0,0.0,0.0,-1.4233,-1.1561,-1.0785,-1.0785,-1.1426,-1.0784,-1.0404,-1.1205,0.0,0.0,-1.2608,-1.2963,-1.3234,-1.3859,-1.4752,-1.5435,-1.5707,-1.7575,-1.9076,-1.9311,-1.9959,-2.0552,-2.0684,-2.0802,-2.146,-0.8963,0.0,0.0,0.0,0.0,-0.9029,-0.9178,-0.9237,-0.9106,-0.9045,-0.9067,-0.9499,0.0,0.0,0.0,0.0,0.0,0.0,-1.5622,-1.7477,-1.8881,-2.0499,-2.2162,-2.2631,-2.3299,-2.3969,-2.4107,-2.3998,-2.3624,-2.1636,-1.7131,-1.0424,0.0,0.0,0.0,0.0,-0.7664,-0.872,-0.9053,-0.8272,-0.6664,-0.6676,-0.7024,-0.772,-0.8612,-1.0061,-1.1895,-1.1502,-1.0751,-0.9673,-0.8013,0.0,0.0,0.0,0.0,0.0,0.0,0.0,0.0,0.0,0.0,0.0,0.0,0.0,0.0,0.0,0.0,0.0,0.0,0.0,-0.7801,-0.9663,-1.0285,0.0,0.0,0.0,0.0,0.0,0.0,0.0,0.0,0.0,-1.5709,-1.473,-1.4183,0.0,0.0,-1.3627,-1.2234,-1.3734,-1.4993,-1.5209,-1.4456,0.0,-1.5434,-1.3945,-1.2688,-1.2869,-1.3126,-1.3417,-1.3518,-1.3559,-1.3431,-1.3562,-1.4647,-1.5433,-1.5909,-1.8097,-1.9836,-2.004,-2.0824,-2.1673,-2.1862,-2.1896,-2.2153,-1.1297,-1.0759,-1.0251,-1.0424,-1.0942,-1.0932,-1.1031,-1.119,-1.0935,-1.0778,-1.0696,-1.099,-1.2042,-1.3599,-1.2696,0.0,0.0,0.0,-1.7964,-1.9645,-2.0542,-2.1771,-2.3338,-2.4141,-2.4965,-2.59,-2.6466,-2.6816,-2.6999,-2.5137,-2.1077,-1.4838,0.0,-0.9342,-0.8095,-0.9045,-0.9867,-1.0553,-1.0205,-0.9267,-0.7729,-0.775,-0.8106,-0.8917,-0.9011,-0.9868,-1.1503,-1.1374,-1.0884,-0.9951,-0.8369,-0.6246,0.0,0.0,0.0,0.0,0.0,0.0,0.0,0.0,0.0,0.0,0.0,-0.5461,-0.5344,0.0,0.0,0.0,-0.9308,-0.9217,-0.9325,-1.0216,0.0,0.0,0.0,0.0,0.0,0.0,0.0,-1.292,-1.451,-1.5603,-1.5363,-1.4699,-1.4538,-1.5125,-1.5414,-1.5135,-1.4141,0.0,-1.6933,-1.6592,-1.5536,-1.4911,-1.5175,-1.4061,-1.3327,-1.3684,-1.3866,-1.3982,-1.3891,-1.3817,-1.3701,-1.376,-1.4326,-1.4973,-1.5229,-1.7296,-1.9003,-1.9368,-2.0011,-2.0786,-2.1594,-2.1565,-2.1784,-1.3186,-1.3028,-1.1728,-1.1972,-1.3196,-1.302,-1.34,-1.4122,-1.3636,-1.3271,-1.3047,-1.2636,-1.3262,-1.4631,-1.6197,0.0,-1.8899,-1.9679,-2.0744,-2.2073,-2.2535,-2.3195,-2.3926,-2.5079,-2.5906,-2.6403,-2.7387,-2.8142,-2.8305,-2.5551,-2.2735,-2.0063,-1.7649,-1.4063,-0.9689,-1.1382,-1.1983,-1.1216,-1.1111,-1.0136,-0.8276,-0.8171,-0.8276,-0.8479,-0.8374,-0.8689,-0.9444,-0.9784,-0.9992,-1.0031,-0.793,-0.6157,-0.4872,0.0,0.0,0.0,0.0,0.0,0.0,0.0,0.0,0.0,0.0,0.0,0.0,0.0,0.0,-1.0107,-1.1533,0.0,-1.1921,-1.0932,0.0,0.0,0.0,-1.1618,-1.2181,-1.4208,-1.5221,-1.4159,0.0,0.0,-1.3928,-1.4944,-1.6196,-1.7506,-1.913,-1.9558,-1.7556,-1.8789,-1.9186,-1.638,-1.5282,-1.4062,-1.3141,-1.2704,-1.3122,-1.3855,-1.392,-1.3928,-1.3945,-1.3945,-1.3945,-1.3945,-1.4083,-1.4188,-1.4196,-1.5594,-1.6806,-1.7703,-1.8325,-1.9082,-2.0721,-2.0986,-2.142,-1.3718,-1.3763,-1.4185,-1.4374,-1.4431,-1.4227,-1.4058,-1.3899,-1.3417,-1.3042,-1.2742,-1.4309,-1.6206,-1.8503,-1.9497,-2.0025,-2.0314,-2.0782,-2.1428,-2.2099,-2.31,-2.3958,-2.4859,-2.5618,-2.6162,-2.6581,-2.7243,-2.7327,-2.6729,-2.631,-2.3736,-1.9426,-1.847,-1.6377,-1.3164,-1.0773,-1.094,-1.3329,-1.0088,-0.8647,-0.9324,-0.8479,-0.8157,-0.8361,-0.7731,-0.7712,-0.8547,-0.8278,-0.8175,-0.8243,-0.716,-0.57,-0.3796,-0.2279,0.0,0.0,0.0,0.0,0.0,0.0,0.0,0.0,0.0,-0.6152,-0.6172,0.0,-1.0803,0.0,-1.3751,-1.347,-1.1413,-1.0941,0.0,0.0,-1.094,-1.1486,-1.2117,-1.4084,-1.5044,-1.3929,-1.478,-1.5241,-1.4516,-1.6115,-1.7607,-1.8389,-1.8512,-1.8283,-1.7825,-1.8156,-1.8435,-1.757,-1.6441,-1.5579,-1.5017,-1.4223,-1.3761,-1.4083,-1.4115,-1.4156,-1.4278,-1.431,-1.431,-1.4302,-1.4335,-1.4367,-1.4375,-1.4703,-1.5058,-1.5659,-1.8186,-2.0744,-2.1426,-2.2137,-2.2881,-1.3994,-1.4475,-1.5461,-1.5807,-1.5562,-1.5315,-1.494,-1.4462,-1.4485,-1.4502,-1.4803,-1.6901,-1.864,-2.0025,-2.1069,-2.1445,-2.1445,-2.2076,-2.2479,-2.2903,-2.4088,-2.5073,-2.5718,-2.5919,-2.5889,-2.572,-2.63,-2.5566,-2.3993,-2.5276,-2.387,-1.9872,-1.9974,-1.797,-1.403,-1.0468,-0.9275,-1.0341,-0.836,-0.8207,-1.0075,-0.8669,-0.7576,-0.691,-0.5849,-0.5243,-0.5103,-0.5107,-0.5043,-0.5024,-0.4535,-0.3586,-0.2096,-0.171,-0.0923,0.0,0.0,0.0,0.0,0.0,0.0,0.0,0.0,0.0,0.0,0.0,-1.1828,-1.3241,-1.4451,-1.4471,-1.2423,-1.1929,-1.1744,-1.1777,-1.2431,-1.3247,-1.3995,-1.5533,-1.6175,-1.5111,-1.554,-1.5839,-1.5675,-1.7196,-1.8745,-1.9746,-1.9367,-1.9095,-1.9107,-1.9221,-1.8749,-1.7374,-1.6637,-1.5914,-1.5426,-1.466,-1.4172,-1.427,-1.4294,-1.4326,-1.4416,-1.4432,-1.4432,-1.444,-1.4497,-1.4554,-1.4562,-1.4627,-1.4859,-1.6117,-1.8469,-2.0513,-2.0923,-2.1825,-2.2911,-1.4282,-1.5026,-1.5934,-1.6325,-1.631,-1.6159,-1.5854,-1.5444,-1.6091,-1.6878,-1.787,-1.9438,-2.0348,-2.0602,-2.1445,-2.2017,-2.2213,-2.3019,-2.35,-2.3906,-2.5185,-2.5979,-2.6475,-2.5988,-2.5276,-2.4485,-2.4887,-2.3655,-2.1045,-2.3224,-2.295,-2.0436,-2.0625,-1.8226,-1.3103,-1.0077,-0.7592,-0.5643,-0.6554,-0.8121,-1.0241,-0.7901,-0.6116,-0.4768,-0.3344,-0.2124,-0.112,-0.159,-0.1708,-0.1692,-0.1711,-0.1485,-0.1127,-0.1749,-0.213,0.0,-0.0404,0.0,0.0,0.0,0.0,0.0,0.0,0.0,0.0,-1.0755,-1.2395,-1.3154,-1.4514,-1.4971,-1.3987,-1.3152,-1.2924,-1.3304,-1.4257,-1.5327,-1.5952,-1.7066,-1.7302,-1.6291,-1.6528,-1.6774,-1.693,-1.8237,-1.9815,-2.0935,-2.079,-2.0304,-2.019,-1.9912,-1.8798,-1.6461,-1.5932,-1.5345,-1.4617,-1.4326,-1.4424,-1.4448,-1.4464,-1.4473,-1.4513,-1.4521,-1.4513,-1.4521,-1.4643,-1.4741,-1.4741,-1.4862,-1.5565,-1.6931,-1.8734,-1.993,-2.038,-2.1378,-2.2581,-1.5287,-1.5328,-1.5903,-1.5979,-1.5681,-1.6244,-1.6261,-1.6129,-1.6944,-1.8349,-1.9877,-1.9604,-2.0314,-2.1765,-2.1177,-2.1553,-2.2587,-2.2625,-2.3204,-2.4408,-2.4565,-2.5184,-2.6144,-2.5858,-2.4963,-2.3628,-2.3665,-2.2767,-2.0899,-2.1456,-2.0082,-1.7095,-1.6676,-1.4294,-1.0193,0.0,0.0,0.0,-0.6208,-0.743,-0.7993,-0.3993,-0.1889,-0.2004,-0.0669,0.0,0.0114,-0.0458,-0.0812,-0.083,-0.2116,0.0,0.0,0.0,0.0,0.0,0.0,0.0,0.0,0.0,0.0,0.0,-1.2698,-1.2588,-1.0684,-1.2535,-1.3945,-1.4351,-1.4731,-1.478,-1.4382,-1.4052,-1.3743,-1.3743,-1.4041,-1.4254,-1.4428,-1.4769,-1.4877,-1.4652,-1.5894,-1.6978,-1.7279,-1.9219,-2.085,-2.1258,-2.0826,-2.0086,-1.8949,-1.784,-1.6915,-1.6367,-1.5523,-1.4767,-1.4375,-1.4416,-1.4513,-1.4611,-1.4659,-1.4708,-1.4814,-1.4846,-1.4862,-1.4854,-1.4895,-1.4919,-1.4919,-1.4944,-1.5599,-1.7102,-1.8774,-2.0263,-2.1464,-2.2768,-2.3905,-1.5963,-1.6278,-1.6501,-1.6364,0.0,-1.625,-1.6319,-1.6224,-1.6871,-1.8149,-1.9861,-2.015,-2.1015,-2.2143,-2.1374,-2.159,-2.2569,-2.2991,-2.3756,-2.4652,-2.5055,-2.5579,-2.6091,-2.4903,-2.3782,-2.2868,-2.208,-2.0656,-1.8693,-1.9199,-1.8116,-1.5577,-1.5565,-1.4585,-1.2529,-1.1458,-0.9595,-0.6633,-0.7199,-0.8103,-0.8893,-0.5377,-0.304,-0.2367,-0.0684,0.0,0.0,0.0,0.0,0.0,0.0,0.0,0.0,-0.7251,0.0,-0.7944,-0.6764,-0.78,-1.1671,-1.5561,-1.6362,-1.3416,-1.4411,-1.4651,-1.3238,-1.4057,-1.4666,-1.477,-1.477,-1.4772,-1.4654,-1.4394,-1.413,-1.4009,-1.4121,-1.4156,-1.4148,-1.491,-1.5561,-1.5838,-1.7144,-1.8474,-1.9436,-1.9757,-2.0573,-2.1102,-1.9543,-1.8153,-1.7541,-1.6729,-1.609,-1.5567,-1.5032,-1.457,-1.4578,-1.4651,-1.4716,-1.4814,-1.4838,-1.4871,-1.4944,-1.4968,-1.4992,-1.5074,-1.5098,-1.5122,-1.522,-1.5236,-1.6008,-1.8299,-1.9448,-2.0494,-2.2234,-2.3502,-2.4422,-1.653,-1.7157,-1.7051,-1.6777,-1.6588,-1.6305,-1.6224,-1.6414,-1.6763,0.0,0.0,-2.0619,-2.1482,-2.1913,-2.1644,-2.1862,-2.2722,-2.3521,-2.4087,-2.4584,-2.5025,-2.5315,-2.5392,-2.3583,-2.2383,-2.1845,-2.0451,-1.8499,-1.6299,-1.6871,-1.6449,-1.5221,-1.5411,-1.5636,-1.5672,-1.4708,-1.2714,-0.9618,-0.8536,-0.8679,-0.9949,-0.6914,-0.4572,-0.3203,-0.1281,0.0117,0.0695,-0.0351,-0.1416,-0.2601,-0.4661,-0.5814,-0.577,-0.8238,-0.931,-0.8612,-1.0708,-1.1906,-1.1598,-1.5494,-1.7278,-1.5613,-1.6152,-1.608,-1.5322,-1.5158,-1.4988,-1.524,-1.5177,-1.525,-1.5574,-1.518,-1.4819,-1.4893,-1.4789,-1.4797,-1.5171,-1.6369,-1.7272,-1.7673,-1.8915,-2.0455,-2.1633,-2.0681,-1.9949,-2.0732,-1.856,-1.6034,-1.6112,-1.6031,-1.5629,-1.4753,-1.4635,-1.4749,-1.4773,-1.4854,-1.4968,-1.5,-1.5017,-1.5025,-1.5057,-1.5065,-1.5122,-1.526,-1.5285,-1.535,-1.5472,-1.5488,-1.6616,-1.9416,-1.9895,-2.0274,-2.2117,-2.3277,-2.4052,-1.7409,-1.7267,-1.6857,-1.6683,-1.6588,-1.6319,-1.6508,-1.6979,-1.7792,-1.8888,-2.0093,-2.0093,-2.0494,-2.1159,-2.1481,-2.2282,-2.3505,-2.2945,-2.322,-2.3895,-2.277,-2.2472,-2.2985,-2.2215,-2.12,-2.0071,-1.8769,-1.741,-1.5968,-1.5091,-1.4781,-1.5007,-1.5114,-1.5125,-1.503,-1.4493,-1.3403,-1.1873,-0.9078,-0.7697,-0.7708,-0.3292,-0.1148,-0.1399,-0.0,0.0709,0.0239,-0.0959,-0.1699,-0.1988,-0.5617,-0.7796,-0.8243,-1.0818,-1.2599,-1.3154,-1.4088,-1.4863,-1.5319,-1.4355,-1.516,-1.8358,-1.8136,-1.684,-1.5115,-1.5054,-1.5585,-1.6511,-1.6717,-1.7078,-1.7549,-1.7539,-1.7348,-1.7167,-1.7217,-1.7541,-1.8104,-1.8633,-1.8969,-1.9361,-2.0819,-2.1769,-2.1909,-2.1474,-2.0911,-2.071,-1.8237,-1.604,-1.5402,-1.5026,-1.4952,-1.4684,-1.4814,-1.4919,-1.4935,-1.4944,-1.5033,-1.5179,-1.5195,-1.5244,-1.5374,-1.539,-1.5415,-1.5472,-1.548,-1.5496,-1.5536,-1.5512,-1.6333,-1.8059,-1.8475,-1.9083,-2.0867,-2.1401,-2.1963,-1.7434,-1.7246,-1.6965,-1.6871,-1.6951,-1.6965,-1.7246,-1.7792,-1.8535,-1.9271,-2.0093,-2.0619,-2.1158,-2.1717,-2.1274,-2.1831,-2.2957,-2.211,-2.208,-2.2641,-2.1962,-2.1426,-2.1119,-2.0333,-1.9317,-1.8053,-1.6673,-1.5518,-1.4245,-1.3491,-1.3176,-1.3186,-1.3727,-1.4062,-1.4072,-1.3846,-1.3366,-1.2597,-1.0696,-0.9175,-0.7754,-0.5058,-0.3393,-0.2885,-0.17,-0.1348,-0.1853,-0.3258,-0.4319,-0.5141,-0.8033,-0.9942,-1.0451,-1.198,-1.2726,-1.2572,-1.3371,-1.3886,-1.3859,-1.4761,-1.6316,-1.8559,-1.9161,-1.8696,-1.7113,-1.7331,-1.7529,-1.794,-1.8025,-1.7938,-1.8172,-1.8153,-1.8133,-1.7819,-1.797,-1.8389,-1.8986,-1.9892,-2.0554,-2.1047,-2.2435,-2.3324,-2.319,-2.1595,-2.0382,-1.9836,-1.7517,-1.5595,-1.5089,-1.4992,-1.5033,-1.5122,-1.5139,-1.5114,-1.5114,-1.5114,-1.5147,-1.5072,-1.5317,-1.5415,-1.5512,-1.552,-1.5561,-1.5634,-1.5658,-1.5699,-1.5772,-1.5804,-1.6436,-1.7861,-1.8088,-1.8698,-1.9414,-1.9614,-2.0327,-1.7232,-1.734,-1.7261,-1.734,-1.7606,-1.7885,-1.8365,-1.8904,-1.9363,-1.9762,-2.0195,-2.1284,-2.1753,-2.1507,-2.1275,-2.1483,-2.1803,-2.123,-2.1026,-2.1387,-2.079,-2.0143,-1.9287,-1.8248,-1.7305,-1.6368,-1.4995,-1.3825,-1.296,-1.2309,-1.2128,-1.2064,-1.2769,-1.3128,-1.3128,-1.2908,-1.2432,-1.1768,-1.1209,-1.01,-0.8323,-0.7375,-0.6103,-0.457,-0.3645,-0.3309,-0.3589,-0.4985,-0.6374,-0.7426,-0.9353,-1.0778,-1.1404,-1.2102,-1.2165,-1.1644,-1.2173,-1.2724,-1.3294,-1.6004,-1.8038,-1.8741,-1.9784,-2.0195,-1.9783,-1.9929,-1.9929,-1.9428,-1.9232,-1.9233,-1.9255,-1.9243,-1.9217,-1.8809,-1.9089,-1.9644,-2.0071,-2.115,-2.1993,-2.23,-2.3298,-2.3754,-2.2835,-2.088,-1.8895,-1.792,-1.6232,-1.5064,-1.5017,-1.5179,-1.5366,-1.5472,-1.5382,-1.5268,-1.5285,-1.5301,-1.5317,-1.5176,-1.5472,-1.5585,-1.5803,-1.565,-1.5683,-1.5813,-1.5837,-1.5878,-1.6008,-1.6032,-1.6508,-1.7611,-1.7675,-1.7962,-1.8235,-1.8109,-1.8694,-1.6857,-1.7621,-1.7636,-1.79,-1.8334,-1.878,-1.9438,-2.011,-2.0637,-2.0737,-2.0754,-2.1529,-2.0933,-1.967,-2.1734,-2.1862,-2.0458,-2.0187,-2.0318,-2.0246,-1.8185,-1.7147,-1.7028,-1.6393,-1.5968,-1.5328,-1.404,-1.3186,-1.2762,-1.1791,-1.1881,-1.2831,-1.2777,-1.2511,-1.2511,-1.1705,-1.0578,-0.9103,-0.898,-0.8929,-0.8953,-0.7773,-0.6445,-0.5022,-0.4085,-0.3649,-0.3873,-0.4888,-0.5607,-0.588,-0.751,-0.8828,-0.9819,-1.085,-1.1776,-1.2561,-1.201,-1.2997,-1.6563,-1.8228,-1.948,-2.0555,-2.0573,-2.1043,-2.2164,-2.2499,-2.1962,-2.1069,-2.0872,-2.1133,-2.1846,-2.1872,-2.1609,-2.1471,-2.1622,-2.2241,-2.286,-2.3456,-2.3248,-2.2287,-2.2198,-2.1745,-2.0174,-1.8559,-1.7038,-1.5843,-1.5379,-1.4944,-1.5179,-1.539,-1.5577,-1.5658,-1.548,-1.5366,-1.5455,-1.5496,-1.5536,-1.5666,-1.5731,-1.5804,-1.5894,-1.5951,-1.5999,-1.5943,-1.5999,-1.6016,-1.6024,-1.6048,-1.6048,-1.6534,-1.6837,-1.7001,-1.7355,-1.7052,-1.7337,-1.7138,-1.7994,-1.8272,-1.8827,-1.9455,-1.9271,-1.9637,-2.0292,-1.9837,-2.0247,-2.1053,-2.1449,-2.1657,-2.173,-2.1884,-2.1263,-2.0116,-1.9493,-1.9332,-1.9332,-1.7884,-1.6723,-1.5755,-1.5435,-1.4793,-1.3619,-1.2753,-1.2284,-1.2183,-1.1854,-1.1829,-1.2021,-1.1986,-1.1667,-1.1093,-1.0747,-0.9982,-0.8902,-0.8866,-0.8371,-0.7383,-0.6607,-0.5613,-0.4302,-0.4086,-0.4019,-0.4258,-0.5125,-0.5972,-0.6794,-0.7976,-0.9177,-1.0703,-1.1432,-1.2224,-1.3369,-1.4432,-1.5948,-1.8262,-1.9615,-2.058,-2.0655,-2.1658,-2.2378,-2.2553,-2.2836,-2.2536,-2.1868,-2.1833,-2.2035,-2.231,-2.231,-2.231,-2.2336,-2.2605,-2.2741,-2.225,-2.245,-2.2117,-2.0957,-2.0714,-2.0441,-1.9265,-1.7912,-1.6478,-1.5362,-1.5105,-1.5236,-1.5398,-1.5642,-1.5886,-1.6024,-1.5951,-1.5813,-1.5723,-1.5666,-1.5707,-1.5602,-1.5861,-1.5983,-1.6016,-1.6048,-1.604,-1.6048,-1.6056,-1.6056,-1.604,-1.6048,-1.6048,-1.6237,-1.6493,-1.6867,-1.6693,-1.6785,-1.6968,-1.7044,-1.8009,-1.8551,-1.9249,-1.9879,-1.9602,-1.9853,-2.0382,-1.9652,-2.003,-2.1156,-2.1349,-2.1816,-2.2326,-2.1562,-2.0909,-2.0225,-1.908,-1.8617,-1.8513,-1.7358,-1.598,-1.4804,-1.4363,-1.3511,-1.2327,-1.1782,-1.1338,-1.1189,-1.1421,-1.1173,-1.0593,-1.0631,-1.031,-0.9724,-0.9607,-0.9209,-0.8497,-0.8355,-0.75,-0.5998,-0.5456,-0.4769,-0.3887,-0.4052,-0.4518,-0.4896,-0.5477,-0.6454,-0.7822,-0.8602,-0.9841,-1.1558,-1.2414,-1.3612,-1.5208,-1.6985,-1.8373,-1.9417,-2.0747,-2.1334,-2.104,-2.2172,-2.2712,-2.2334,-2.2466,-2.2448,-2.216,-2.2035,-2.2035,-2.2173,-2.2173,-2.2199,-2.1861,-2.2344,-2.214,-2.097,-2.088,-2.0501,-1.9457,-1.9208,-1.8885,-1.816,-1.702,-1.594,-1.5429,-1.5425,-1.5577,-1.5666,-1.5918,-1.6162,-1.6284,-1.6332,-1.6276,-1.604,-1.5959,-1.5926,-1.5755,-1.6024,-1.6024,-1.6048,-1.6048,-1.6048,-1.6048,-1.6081,-1.6097,-1.6089,-1.6073,-1.6518,-1.6709,-1.6793,-1.7053,-1.7053,-1.7002,-1.6833,-1.6008,-1.7759,-1.8502,-1.8894,-1.902,-1.9571,-2.0239,-2.0662,-2.0567,-2.0645,-2.0571,-2.1131,-2.0797,-1.9713,-2.0915,-2.1318,-2.0648,-1.8945,-1.8199,-1.8108,-1.5767,-1.4385,-1.4169,-1.2871,-1.211,-1.201,-1.1261,-1.058,-0.9624,-0.9902,-0.9571,-0.8735,-0.8612,-0.8447,-0.8441,-0.8199,-0.7787,-0.7376,-0.6791,-0.6034,-0.5461,-0.4818,-0.4562,-0.4454,-0.4365,-0.4974,-0.6019,-0.623,-0.694,-0.8377,-0.9305,-1.0442,-1.1855,-1.3883,-1.6205,-1.825,-1.9154,-1.9929,-2.0712,-2.1296,-2.1763,-2.2004,-2.1816,-2.1629,-2.1821,-2.1872,-2.1897,-2.176,-2.1346,-2.1346,-2.1622,-2.176,-2.1559,-2.0485,-2.0697,-2.0425,-1.9348,-1.9257,-1.8748,-1.7737,-1.754,-1.6977,-1.5604,-1.5064,-1.5,-1.5128,-1.5337,-1.549,-1.5623,-1.6004,-1.6308,-1.6373,-1.647,-1.656,-1.6519,-1.6341,-1.6259,-1.6202,-1.594,-1.6064,-1.6048,-1.6048,-1.6056,-1.6097,-1.6219,-1.6243,-1.617,-1.6568,-1.7263,-1.7509,-1.7188,-1.7239,-1.7409,-1.7078,-1.6924,-1.648,-1.8087,-1.7804,-1.8425,-1.9587,-1.8037,-1.8134,-1.9505,-1.8716,-1.8434,-1.873,-1.9381,-1.9212,-1.8324,-1.948,-2.0457,-2.0632,-1.9049,-1.8094,-1.766,-1.566,-1.4277,-1.3315,-1.2762,-1.2228,-1.1691,-1.058,-0.9525,-0.8715,-0.8791,-0.8515,-0.7911,-0.7718,-0.7617,-0.7388,-0.7454,-0.7261,-0.7065,-0.6979,-0.6876,-0.6857,-0.6748,-0.6814,-0.7164,-0.6229,-0.6569,-0.8354,-0.7898,-0.8308,-0.9888,-1.1101,-1.2612,-1.4484,-1.7082,-1.9107,-2.0227,-2.1034,-2.1556,-2.1961,-2.1936,-2.2087,-2.2115,-2.2077,-2.1798,-2.1785,-2.176,-2.176,-2.1346,-2.0364,-1.9808,-1.9669,-1.9947,-1.982,-1.892,-1.8932,-1.8767,-1.7723,-1.7554,-1.7173,-1.6099,-1.5794,-1.53,-1.4144,-1.3418,-1.3075,-1.2435,-1.3336,-1.421,-1.4695,-1.5601,-1.6641,-1.6682,-1.6795,-1.6877,-1.6763,-1.66,-1.6454,-1.6332,-1.6076,-1.6219,-1.6202,-1.6211,-1.6227,-1.6332,-1.643,-1.6639,-1.659,-1.6935,-1.7639,-1.7826,-1.7511,-1.7768,-1.8119,-1.7639,-1.7648,-1.6157,-1.6985,-1.6402,-1.7091,-1.8349,-1.6486,-1.656,-1.8038,-1.7264,-1.7211,-1.7908,-1.8437,-1.786,-1.7016,-1.8345,-1.8988,-1.9095,-1.8436,-1.7806,-1.6698,-1.5125,-1.3846,-1.2989,-1.2446,-1.1818,-1.0802,-0.9532,-0.8341,-0.7552,-0.7554,-0.7123,-0.6272,-0.6639,-0.6761,-0.6662,-0.7151,-0.7617,-0.7954,-0.8081,-0.8257,-0.8617,-0.8521,-0.8895,-0.9265,-0.8387,-0.8268,-0.9765,-0.9148,-0.9719,-1.1348,-1.2835,-1.4961,-1.7416,-1.9401,-2.095,-2.1747,-2.2179,-2.2344,-2.2167,-2.1604,-2.1273,-2.12,-2.1047,-2.0962,-2.0943,-2.0641,-2.0364,-1.9947,-1.896,-1.783,-1.7147,-1.7198,-1.7228,-1.6945,-1.7073,-1.6913,-1.5831,-1.5874,-1.5659,-1.5159,-1.5154,-1.4291,-1.295,-1.2813,-1.2012,-1.0666,-1.2284,-1.3499,-1.3995,-1.5534,-1.6933,-1.6942,-1.6942,-1.6933,-1.6852,-1.6722,-1.6697,-1.6389,-1.6173,-1.6332,-1.6357,-1.6373,-1.6438,-1.6552,-1.6633,-1.6853,-1.704,-1.7366,-1.7725,-1.7922,-1.8207,-1.8321,-1.853,-1.8409,-1.8365,-1.4921,-1.4777,-1.4453,-1.4753,-1.5482,-1.5287,-1.5793,-1.6701,-1.6717,-1.7301,-1.808,-1.8304,-1.6898,-1.5446,-1.7358,-1.7609,-1.6001,-1.6537,-1.6455,-1.5198,-1.3717,-1.2871,-1.2555,-1.17,-1.0707,-0.9624,-0.826,-0.7308,-0.651,-0.635,-0.5663,-0.469,-0.5798,-0.643,-0.6048,-0.7633,-0.8939,-0.9608,-0.9588,-0.996,-1.0595,-1.0113,-1.0113,-1.0754,-1.024,-1.0052,-1.0203,-1.0162,-1.1074,-1.2529,-1.4613,-1.7359,-2.0215,-2.0874,-2.129,-2.264,-2.2716,-2.2019,-2.11,-2.0309,-1.9606,-1.9374,-1.8724,-1.8854,-1.9111,-1.8261,-1.784,-1.811,-1.6977,-1.5575,-1.4491,-1.4305,-1.4524,-1.4711,-1.5136,-1.4941,-1.4244,-1.4137,-1.4365,-1.4935,-1.5171,-1.4507,-1.3193,-1.2501,-1.1843,-1.1132,-1.2015,-1.3574,-1.4283,-1.579,-1.6904,-1.7055,-1.6998,-1.6942,-1.6893,-1.6828,-1.6787,-1.6784,-1.6422,-1.6414,-1.6479,-1.6511,-1.6609,-1.6722,-1.6984,-1.7215,-1.7611,-1.794,-1.8468,-1.8858,-1.8793,-1.8819,-1.9003,-1.9012,-1.8837,-1.4508,-1.401,-1.3554,-1.4104,-1.5035,-1.4223,-1.4684,-1.6074,-1.6305,-1.6554,-1.6736,-1.6948,-1.6037,-1.495,-1.5493,-1.473,-1.3018,-1.1928,-1.1918,-1.2911,-1.229,-1.1446,-1.0704,-1.104,-1.0689,-0.9538,-0.9065,-0.8324,-0.7554,-0.723,-0.7035,-0.6979,-0.7356,-0.7692,-0.7709,-0.9299,-1.0241,-1.0411,-1.1221,-1.1795,-1.2212,-1.2109,-1.2117,-1.2066,-1.1824,-1.1992,-1.2835,-1.3579,-1.4089,-1.4215,-1.7077,-1.9761,-2.172,-2.237,-2.2523,-2.2586,-2.1709,-2.1114,-2.0852,-1.9708,-1.8856,-1.8605,-1.7803,-1.7429,-1.7409,-1.6705,-1.6282,-1.6413,-1.5292,-1.434,-1.4026,-1.2994,-1.2713,-1.2979,-1.3222,-1.3513,-1.358,-1.3952,-1.4389,-1.4742,-1.5082,-1.4027,-1.182,-1.1178,-1.0948,-0.9953,-1.0998,-1.2583,-1.4231,-1.5866,-1.7047,-1.6958,-1.6933,-1.6917,-1.6828,-1.6803,-1.6722,-1.6779,-1.6576,-1.656,-1.6609,-1.669,-1.6787,-1.7042,-1.7306,-1.7547,-1.8121,-1.8488,-1.9159,-1.9333,-1.9361,-1.937,-1.9563,-1.9388,-1.9214,-1.3679,-1.3565,-1.2812,-1.3205,-1.4239,-1.3412,-1.3816,-1.4911,-1.5553,-1.5565,-1.5351,-1.5328,-1.4685,-1.3835,-1.3444,-1.2346,-1.0655,-0.8317,-0.8225,-0.9809,-1.0116,-0.9706,-0.9356,-0.9909,-1.0454,-1.0066,-0.9174,-0.8636,-0.8349,-0.8111,-0.8038,-0.8262,-0.8824,-0.9203,-0.9447,-1.0731,-1.1461,-1.1862,-1.2635,-1.3153,-1.3498,-1.3367,-1.3367,-1.3482,-1.3432,-1.3924,-1.4955,-1.6838,-1.7187,-1.6554,-1.8735,-2.1084,-2.2756,-2.2975,-2.262,-2.2005,-2.1174,-2.0359,-1.9703,-1.8724,-1.7703,-1.7186,-1.6434,-1.579,-1.5612,-1.4901,-1.4517,-1.4591,-1.3793,-1.3138,-1.3032,-1.2379,-1.1921,-1.2074,-1.2311,-1.2628,-1.3166,-1.3953,-1.4431,-1.4812,-1.512,-1.3873,-1.2357,-1.0759,-1.0486,-0.9745,-1.0595,-1.2137,-1.4088,-1.5866,-1.6498,-1.6958,-1.6942,-1.6877,-1.6747,-1.6747,-1.6795,-1.6771,-1.6755,-1.6755,-1.6771,-1.6877,-1.6974,-1.7347,-1.7772,-1.8113,-1.8681,-1.903,-1.9544,-1.9563,-1.9737,-1.9737,-1.9737,-1.9737,-1.9563,-1.2571,-1.2961,-1.2037,-1.1827,-1.2299,-1.2743,-1.296,-1.3305,-1.4277,-1.4374,-1.4051,-1.3599,-1.295,-1.2091,-1.1809,-1.0806,-0.8796,-0.6816,-0.6191,-0.6802,-0.7348,-0.8146,-0.9325,-0.9435,-1.0059,-1.0755,-0.9169,-0.8604,-0.947,-0.8891,-0.843,-0.9199,-0.9976,-1.0378,-1.1023,-1.2052,-1.3078,-1.353,-1.3686,-1.4178,-1.4701,-1.4009,-1.4001,-1.484,-1.5023,-1.5384,-1.6506,-1.9178,-1.9924,-1.8174,-1.9781,-2.1567,-2.2891,-2.2739,-2.1971,-2.1361,-2.0784,-1.9602,-1.8166,-1.7428,-1.6644,-1.5114,-1.461,-1.4227,-1.3658,-1.3024,-1.2619,-1.3085,-1.246,-1.1935,-1.1914,-1.1877,-1.2033,-1.2101,-1.2292,-1.2623,-1.3404,-1.4011,-1.4625,-1.5074,-1.5313,-1.4915,-1.3345,-1.1845,-1.129,-1.1412,-1.1709,-1.2826,-1.4441,-1.6042,-1.692,-1.7039,-1.6958,-1.6909,-1.6803,-1.705,-1.7091,-1.7099,-1.7083,-1.7083,-1.6917,-1.7181,-1.7413,-1.7797,-1.8164,-1.8689,-1.9039,-1.9388,-1.9737,-1.9746,-1.9921,-1.9921,-1.9921,-1.9746,-1.9756,-1.1115,-1.0214,-1.0233,-1.0421,-1.0562,-1.1109,-1.1437,-1.1437,-1.2191,-1.2516,-1.2181,-1.1647,-1.1428,-1.1,-1.0492,-0.9721,-0.8171,-0.576,-0.5463,-0.6754,-0.6355,-0.7817,-0.969,-1.0266,-1.0621,-1.111,-1.0767,-1.0904,-1.1073,-1.0907,-1.1217,-1.19,-1.233,-1.2765,-1.3038,-1.4147,-1.438,-1.3972,-1.4571,-1.522,-1.564,-1.531,-1.5503,-1.6363,-1.6125,-1.6649,-1.783,-2.0157,-2.1542,-2.1096,-2.1623,-2.2219,-2.2531,-2.1983,-2.1372,-2.058,-1.9446,-1.8362,-1.7642,-1.633,-1.514,-1.4499,-1.3009,-1.1976,-1.1907,-1.151,-1.1225,-1.1484,-1.1524,-1.1911,-1.2047,-1.2088,-1.2216,-1.2494,-1.2838,-1.3169,-1.3567,-1.4411,-1.5105,-1.5289,-1.4735,-1.4173,-1.3722,-1.2515,-1.1946,-1.3104,-1.352,-1.4088,-1.5513,-1.6393,-1.7096,-1.7015,-1.695,-1.6933,-1.6933,-1.7355,-1.7572,-1.7588,-1.758,-1.7397,-1.7397,-1.7422,-1.7805,-1.8164,-1.8514,-1.903,-1.9214,-1.9563,-1.9737,-1.9921,-1.9921,-1.9921,-1.9921,-1.9921,-1.994,-1.0085,-0.945,-0.9654,-0.9794,-0.9904,-1.0453,-1.0688,-1.0924,-1.1682,-1.1564,-1.0907,-1.0578,-1.0257,-0.9926,-0.9051,-0.8196,-0.7118,-0.5925,-0.5881,-0.656,-0.7123,-0.8254,-0.9618,-1.0299,-1.0808,-1.1271,-1.1565,-1.1837,-1.1937,-1.2288,-1.2755,-1.3085,-1.3725,-1.39,-1.3992,-1.4849,-1.5385,-1.5036,-1.544,-1.606,-1.6756,-1.643,-1.6803,-1.7368,-1.7451,-1.7896,-1.9537,-2.0838,-2.1616,-2.2089,-2.2304,-2.2125,-2.1813,-2.1242,-2.0466,-1.949,-1.8341,-1.7612,-1.692,-1.5515,-1.4407,-1.3657,-1.2018,-1.1205,-1.0847,-1.07,-1.0657,-1.1097,-1.159,-1.2013,-1.2162,-1.2422,-1.2797,-1.3054,-1.3612,-1.3922,-1.3885,-1.4548,-1.5108,-1.5287,-1.5211,-1.4805,-1.5017,-1.3559,-1.3637,-1.459,-1.4604,-1.533,-1.6577,-1.6928,-1.7088,-1.7031,-1.6998,-1.7006,-1.7006,-1.7405,-1.7597,-1.7622,-1.7805,-1.7814,-1.7814,-1.7814,-1.8164,-1.8689,-1.903,-1.9204,-1.9563,-1.9737,-1.9746,-1.9921,-1.9921,-1.9921,-1.9921,-1.9959,-1.9968,-0.9361,-0.9574,-0.9581,-0.9581,-0.9581,-1.0021,-0.9926,-1.0177,-1.0594,-1.0264,-0.9279,-0.9279,-0.894,-0.8621,-0.7949,-0.6766,-0.607,-0.6888,-0.6915,-0.7412,-0.8251,-0.9607,-0.9546,-1.0127,-1.0631,-1.1083,-1.124,-1.1783,-1.2312,-1.2603,-1.3181,-1.3892,-1.4209,-1.4674,-1.532,-1.5459,-1.5843,-1.64,-1.638,-1.6953,-1.7652,-1.7518,-1.7908,-1.8843,-1.8838,-1.9296,-2.0473,-2.1169,-2.1322,-2.1988,-2.1839,-2.1414,-2.0861,-2.0439,-1.9304,-1.7991,-1.7478,-1.692,-1.5942,-1.4617,-1.3818,-1.2794,-1.1657,-1.0847,-1.0464,-1.0589,-1.1001,-1.1295,-1.1851,-1.2101,-1.2361,-1.2972,-1.3397,-1.372,-1.4396,-1.4524,-1.4128,-1.4562,-1.5202,-1.5609,-1.5895,-1.6105,-1.6276,-1.5506,-1.4618,-1.5851,-1.569,-1.6042,-1.6753,-1.6928,-1.7104,-1.7096,-1.7088,-1.7271,-1.7271,-1.7279,-1.7447,-1.7622,-1.7981,-1.7981,-1.8339,-1.8339,-1.8689,-1.903,-1.9388,-1.9563,-1.9737,-1.9921,-1.9921,-1.9921,-1.9921,-1.9921,-1.9921,-1.9987,-2.0015,-0.8042,-0.7709,-0.7721,-0.7727,-0.7838,-0.785,-0.7054,-0.5704,-0.4682,-0.502,-0.5254,-0.5481,-0.6381,-0.7516,-0.7299,-0.7348,-0.7459,-0.7668,-0.7948,-0.9245,-1.0144,-1.077,-1.0649,-1.0848,-1.0981,-1.1358,-1.1652,-1.2051,-1.2545,-1.3775,-1.4605,-1.509,-1.6125,-1.7107,-1.7421,-1.7214,-1.763,-1.7566,-1.7421,-1.7933,-1.8755,-1.8572,-1.9118,-2.0245,-2.0213,-2.0272,-2.0647,-2.0955,-2.1096,-2.1011,-2.0568,-2.0352,-2.0169,-1.9083,-1.7672,-1.6731,-1.632,-1.5657,-1.3896,-1.3333,-1.2669,-1.1796,-1.0875,-1.0117,-1.0252,-1.094,-1.1256,-1.1593,-1.1998,-1.2436,-1.2909,-1.3447,-1.38,-1.4165,-1.4792,-1.4661,-1.3804,-1.4817,-1.5424,-1.4309,-1.35,-1.3136,-1.4611,-1.3552,-1.4088,-1.6217,-1.6936,-1.6753,-1.6761,-1.6936,-1.6753,-1.6401,-1.6042,-1.5866,-1.5858,-1.6217,-1.6745,-1.7271,-1.7805,-1.8506,-1.8689,-1.8514,-1.8681,-1.9214,-1.9737,-1.9746,-1.9388,-1.9921,-1.9921,-1.9921,-1.9921,-1.9921,-1.994,-1.9996,-2.0062,-0.7393,-0.7176,-0.7187,-0.6507,-0.5489,-0.4927,-0.4257,-0.3357,-0.2125,-0.1454,-0.1902,-0.3134,-0.47,-0.5605,-0.6669,-0.7431,-0.8014,-0.8537,-0.9413,-1.0521,-1.1285,-1.1492,-1.1526,-1.1479,-1.1469,-1.1703,-1.2693,-1.3251,-1.3931,-1.4995,-1.6105,-1.6257,-1.7235,-1.7353,-1.7684,-1.7916,-1.7905,-1.815,-1.8306,-1.8891,-1.9823,-1.9977,-2.0071,-2.0804,-2.0914,-2.0859,-2.0883,-2.0979,-2.0826,-2.0321,-1.9583,-1.9215,-1.9041,-1.7674,-1.633,-1.5435,-1.4668,-1.4181,-1.2888,-1.2187,-1.1811,-1.1524,-1.0584,-1.054,-1.0773,-1.1476,-1.1945,-1.2176,-1.2616,-1.3267,-1.3727,-1.401,-1.4363,-1.4914,-1.5311,-1.5014,-1.4069,-1.5123,-1.5338,-1.3627,-1.2929,-1.3343,-1.3552,-1.2314,-1.3912,-1.6401,-1.6753,-1.6577,-1.6401,-1.6401,-1.569,-1.533,-1.4618,-1.4265,-1.4258,-1.4787,-1.5851,-1.6737,-1.7805,-1.8506,-1.9214,-1.8864,-1.8506,-1.8864,-1.9039,-1.8864,-1.8681,-1.9214,-1.9746,-1.9921,-1.9921,-1.9921,-1.9987,-2.0138,-2.0166,-0.6619,-0.6629,-0.6289,-0.527,-0.403,-0.2461,-0.179,-0.1791,-0.112,0.0112,0.0784,-0.2239,-0.3924,-0.4736,-0.6384,-0.741,-0.8272,-0.9407,-1.0778,-1.1518,-1.1647,-1.1808,-1.1884,-1.2113,-1.217,-1.2234,-1.3414,-1.4465,-1.5434,-1.664,-1.7315,-1.7555,-1.8028,-1.8294,-1.7686,-1.7561,-1.834,-1.8962,-1.9094,-1.9449,-2.0215,-2.0533,-2.0629,-2.0828,-2.0822,-2.0919,-2.0919,-2.0955,-2.0685,-1.9826,-1.8931,-1.8433,-1.7851,-1.6574,-1.5017,-1.4324,-1.3468,-1.2753,-1.2029,-1.1606,-1.1372,-1.165,-1.0944,-1.0897,-1.1495,-1.2115,-1.2442,-1.2747,-1.307,-1.3333,-1.4018,-1.3471,-1.4073,-1.4788,-1.5324,-1.4696,-1.4256,-1.4987,-1.3861,-1.1874,-1.14,-1.1954,-1.2314,-1.2137,-1.4265,-1.6049,-1.6225,-1.6401,-1.6049,-1.5536,-1.4653,-1.4687,-1.4346,-1.37,-1.3534,-1.3183,-1.4407,-1.5956,-1.7185,-1.8418,-1.9305,-1.8963,-1.8435,-1.7822,-1.7981,-1.7814,-1.7989,-1.8681,-1.9214,-1.9563,-1.993,-1.9949,-2.0081,-2.027,-2.027,-0.4254,-0.403,-0.2012,-0.3134,-0.5502,-0.2127,0.0112,0.1009,0.101,0.1458,0.1347,-0.1009,-0.4076,-0.6061,-0.6888,-0.8171,-0.9815,-1.1079,-1.1655,-1.2034,-1.2164,-1.2175,-1.2631,-1.3403,-1.3483,-1.2978,-1.4096,-1.5664,-1.6711,-1.7916,-1.8653,-1.8677,-1.9658,-2.0005,-1.971,-2.0121,-1.9953,-1.9855,-1.9787,-1.9679,-1.9933,-2.0039,-2.0237,-2.0665,-2.075,-2.0762,-2.075,-2.0738,-2.0447,-1.9598,-1.8854,-1.8142,-1.7168,-1.5603,-1.4173,-1.3317,-1.2602,-1.1743,-1.0881,-1.1175,-1.1038,-1.1089,-1.1192,-1.155,-1.1952,-1.2487,-1.2627,-1.2658,-1.2447,-1.2052,-1.2318,-1.1849,-1.2069,-1.2862,-1.3043,-1.22,-1.1946,-1.2009,-1.1692,-0.9642,-0.9651,-1.0007,-1.054,-1.1072,-1.2314,-1.3571,-1.3951,-1.4312,-1.4496,-1.3985,-1.3299,-1.37,-1.4283,-1.3649,-1.2999,-1.2466,-1.2818,-1.4723,-1.6129,-1.7915,-1.8449,-1.8423,-1.8211,-1.8017,-1.7403,-1.7177,-1.7513,-1.804,-1.8909,-1.9821,-1.9821,-1.9996,-2.0148,-2.0318,-2.0327,-0.4036,-0.1679,-0.0448,0.0224,0.0224,-0.0112,0.0336,0.0899,0.1472,0.1819,0.1025,-0.0801,-0.3574,-0.6063,-0.7163,-0.9294,-1.2252,-1.2689,-1.3259,-1.3686,-1.3965,-1.4014,-1.4126,-1.5147,-1.616,-1.6678,-1.749,-1.7569,-1.7988,-1.9674,-2.0144,-2.0181,-2.0967,-2.1098,-2.0636,-2.0622,-2.0588,-2.0294,-1.9906,-1.9749,-1.9933,-2.0016,-2.0376,-2.0527,-2.0665,-2.0665,-2.0665,-2.0665,-2.018,-1.9116,-1.8054,-1.7076,-1.5675,-1.408,-1.2745,-1.2459,-1.1599,-1.0737,-1.0023,-1.0462,-1.063,-1.1008,-1.1423,-1.1837,-1.1931,-1.2216,-1.2166,-1.1714,-1.1516,-1.097,-1.1277,-1.0517,-1.1003,-1.1686,-1.1507,-1.0739,-1.0102,-0.9978,-0.8935,-0.7699,-0.8409,-0.8943,-0.8943,-0.9651,-1.0362,-1.1094,-1.1665,-1.2223,-1.277,-1.246,-1.1967,-1.2391,-1.2987,-1.2865,-1.2197,-1.2013,-1.2771,-1.4537,-1.5557,-1.7174,-1.8484,-1.8647,-1.8673,-1.833,-1.7673,-1.7413,-1.738,-1.8152,-1.8947,-1.9943,-2.0018,-2.0261,-2.028,-2.0327,-2.0384,-0.2914,0.1346,0.0448,0.2466,0.5514,0.304,0.1353,0.1018,0.1263,0.104,0.0578,-0.1282,-0.364,-0.6169,-0.8391,-1.1168,-1.5565,-1.462,-1.4942,-1.5592,-1.5756,-1.5979,-1.6255,-1.7141,-1.8081,-1.965,-2.0869,-2.0836,-2.0498,-2.1308,-2.1665,-2.1434,-2.1787,-2.1345,-2.0722,-2.0749,-2.049,-2.0107,-1.9702,-1.9681,-2.0048,-2.0407,-2.0527,-2.0665,-2.0665,-2.0527,-1.9959,-1.982,-1.8909,-1.7693,-1.6529,-1.5648,-1.433,-1.2244,-1.1462,-1.1886,-1.0449,-0.9735,-0.9885,-1.0215,-1.0699,-1.1364,-1.1702,-1.1848,-1.1492,-1.1121,-1.0785,-1.0258,-0.977,-0.9713,-0.9917,-0.9598,-0.9938,-1.0274,-1.0209,-0.974,-0.8905,-0.8405,-0.7517,-0.6988,-0.752,-0.7699,-0.7702,-0.7922,-0.8469,-0.9568,-1.014,-1.073,-1.1288,-1.1154,-1.0836,-1.0896,-1.131,-1.152,-1.1541,-1.1705,-1.3382,-1.5957,-1.6226,-1.7081,-1.8258,-1.9244,-1.9123,-1.9026,-1.9393,-1.9132,-1.8698,-1.8208,-1.9195,-1.9876,-2.0308,-2.0526,-2.0535,-2.0573,-2.0629,0.2018,0.5958,0.1791,0.1566,0.4042,0.5362,0.5279,0.3444,0.0933,-0.0822,-0.2465,-0.2467,-0.4857,-0.8283,-1.0928,-1.3648,-1.5519,-1.6046,-1.6122,-1.6697,-1.6495,-1.6512,-1.6603,-1.825,-1.9512,-2.1061,-2.24,-2.3565,-2.336,-2.2937,-2.2511,-2.2312,-2.146,-2.0823,-2.0735,-2.0804,-2.0822,-2.0467,-1.9773,-1.9507,-1.9623,-1.9796,-2.0098,-2.0388,-2.0388,-1.9669,-1.8401,-1.811,-1.7168,-1.5052,-1.4457,-1.3737,-1.2911,-1.1763,-1.1312,-1.1168,-1.0449,-0.9579,-1.0329,-1.0674,-1.1059,-1.159,-1.2067,-1.1914,-1.0785,-0.9927,-0.9511,-0.9719,-0.8786,-0.8208,-0.8011,-0.7202,-0.7334,-0.7761,-0.7817,-0.8021,-0.7699,-0.7342,-0.6454,-0.6287,-0.6646,-0.6467,-0.6287,-0.651,-0.6728,-0.7838,-0.8775,-0.9364,-0.9959,-1.0184,-1.0776,-1.1021,-1.1429,-1.1641,-1.2195,-1.2173,-1.3808,-1.6804,-1.7301,-1.7389,-1.8575,-1.9639,-2.0037,-2.0109,-2.0499,-2.0417,-1.949,-1.9349,-1.9616,-1.9934,-2.0486,-2.0715,-2.0781,-2.0828,-2.0866,0.3703,0.3138,0.381,0.3024,0.2133,0.5602,0.5184,0.1502,-0.2598,-0.4903,-0.5749,-0.6372,-0.7752,-1.0037,-1.2395,-1.5533,-1.7777,-1.7619,-1.786,-1.8309,-1.8256,-1.8125,-1.8451,-1.9247,-2.0446,-2.1768,-2.2941,-2.4268,-2.4838,-2.4022,-2.2906,-2.2331,-2.1737,-2.1182,-2.0804,-2.0786,-2.0376,-1.9933,-1.9473,-1.9404,-1.9495,-1.982,-1.982,-1.9401,-1.9251,-1.8121,-1.6987,-1.6263,-1.563,-1.4104,-1.3507,-1.2639,-1.1846,-1.1141,-1.0547,-1.0606,-1.0384,-1.0384,-1.0768,-1.0964,-1.1358,-1.1495,-1.1339,-1.0072,-0.8655,-0.8106,-0.769,-0.7076,-0.6637,-0.646,-0.6566,-0.6067,-0.6162,-0.6402,-0.6255,-0.6442,-0.663,-0.6276,-0.5741,-0.5755,-0.5771,-0.5785,-0.5793,-0.6178,-0.6589,-0.7361,-0.8316,-0.8732,-0.9525,-1.0133,-1.0919,-1.1892,-1.2112,-1.2511,-1.3245,-1.3596,-1.444,-1.668,-1.803,-1.8342,-1.913,-1.9825,-2.0412,-2.0791,-2.1234,-2.0897,-2.0286,-2.0326,-2.0391,-2.0692,-2.0818,-2.0866,-2.0922,-2.0998,-2.1201,0.5054,0.2127,0.4372,0.3933,0.1921,0.4485,0.3364,-0.0583,-0.6612,-0.9042,-0.8958,-1.0005,-1.0927,-1.2069,-1.4469,-1.7257,-2.0209,-1.9369,-1.9521,-2.0073,-2.019,-1.9777,-1.9624,-2.0055,-2.1088,-2.2573,-2.2759,-2.407,-2.4857,-2.4299,-2.2708,-2.2549,-2.1784,-2.1346,-2.0979,-2.0786,-2.0423,-1.9485,-1.9312,-1.9104,-1.8798,-1.9251,-1.8735,-1.8054,-1.7349,-1.649,-1.5203,-1.4491,-1.401,-1.2683,-1.2079,-1.1352,-1.0844,-1.0559,-1.039,-1.0486,-1.0529,-1.0559,-1.0692,-1.0881,-1.1263,-1.0798,-0.958,-0.7855,-0.6859,-0.6434,-0.6151,-0.541,-0.559,-0.5544,-0.5474,-0.5591,-0.5856,-0.5898,-0.5739,-0.5739,-0.5741,-0.5747,-0.5763,-0.5788,-0.5812,-0.585,-0.5858,-0.6221,-0.6623,-0.7233,-0.7842,-0.8454,-0.9428,-1.0409,-1.1182,-1.2145,-1.2345,-1.2922,-1.4403,-1.5126,-1.5996,-1.6895,-1.8256,-1.9276,-2.0046,-2.0741,-2.1132,-2.1697,-2.1811,-2.1839,-2.1329,-2.1253,-2.1187,-2.1074,-2.0989,-2.1007,-2.1055,-2.1315,-2.1704,0.6985,0.641,0.2242,0.2598,0.5627,0.2103,0.0237,-0.1549,-0.9559,-1.1725,-1.0645,-1.2515,-1.4423,-1.5936,-1.7122,-1.8951,-2.0943,-2.0655,-2.0427,-2.0346,-2.0208,-1.9954,-1.9864,-2.0234,-2.1182,-2.2462,-2.2552,-2.336,-2.425,-2.3119,-2.3159,-2.3997,-2.1881,-2.118,-2.0895,-2.073,-2.0227,-1.9345,-1.9033,-1.8197,-1.7549,-1.7298,-1.7076,-1.6224,-1.583,-1.4966,-1.323,-1.2779,-1.199,-1.0498,-1.0468,-1.0455,-1.0354,-1.0529,-1.051,-1.0342,-1.0535,-1.0286,-0.9871,-1.054,-1.0959,-0.9403,-0.768,-0.6078,-0.5811,-0.476,-0.4469,-0.5142,-0.5308,-0.5589,-0.5684,-0.5613,-0.6231,-0.6608,-0.6793,-0.6454,-0.6281,-0.5758,-0.5777,-0.5815,-0.585,-0.5888,-0.6276,-0.6641,-0.721,-0.7824,-0.9169,-0.979,-1.0578,-1.1558,-1.1773,-1.2167,-1.2167,-1.3287,-1.5695,-1.639,-1.6502,-1.778,-1.9297,-2.0223,-2.0937,-2.148,-2.1206,-2.1763,-2.2,-2.229,-2.2586,-2.2251,-2.1957,-2.1372,-2.1353,-2.1938,-2.2132,-2.2357,-2.2717,0.7209,0.6527,-0.112,-0.3375,-0.1585,-0.0697,-0.1649,-0.4522,-1.0214,-1.2943,-1.2871,-1.5192,-1.6545,-1.7564,-1.915,-2.0177,-2.0684,-2.0697,-2.0384,-2.0055,-1.9839,-1.9683,-1.9708,-1.9786,-2.0322,-2.1321,-2.1478,-2.1964,-2.3134,-2.1943,-2.2178,-2.2374,-2.1195,-2.0979,-2.0798,-2.0274,-1.9481,-1.8584,-1.7981,-1.7127,-1.6413,-1.5858,-1.5373,-1.4413,-1.3833,-1.2823,-1.1371,-1.1085,-1.0426,-1.0058,-1.0029,-1.0167,-1.0323,-1.0661,-1.0366,-0.9914,-0.9989,-0.9329,-0.8435,-0.9239,-0.9297,-0.7181,-0.6048,-0.5501,-0.5221,-0.4626,-0.4836,-0.5234,-0.5338,-0.5606,-0.6857,-0.7331,-0.7795,-0.8341,-0.8183,-0.7321,-0.6812,-0.6111,-0.5807,-0.585,-0.6069,-0.6109,-0.6678,-0.7061,-0.7642,-0.842,-0.9768,-1.1126,-1.1715,-1.2134,-1.2161,-1.2345,-1.2339,-1.3602,-1.5803,-1.6502,-1.7003,-1.8676,-2.0354,-2.077,-2.118,-2.0673,-2.0557,-2.1283,-2.2034,-2.2399,-2.2713,-2.3159,-2.2902,-2.2327,-2.2788,-2.3458,-2.3644,-2.3427,-2.3788,0.5958,0.3024,-0.5154,-0.8851,-0.8609,-0.5148,-0.5456,-0.8778,-1.22,-1.4309,-1.5649,-1.7565,-1.8459,-1.8998,-1.9916,-2.0703,-2.0576,-2.0462,-2.0081,-1.9876,-1.9695,-1.9641,-1.9536,-1.9665,-2.0131,-2.0592,-2.0631,-2.1288,-2.2497,-2.1211,-2.0749,-2.0509,-2.0086,-1.968,-2.0527,-1.968,-1.8401,-1.7137,-1.6433,-1.5434,-1.4574,-1.4156,-1.3523,-1.2663,-1.2102,-1.1663,-1.0798,-1.0504,-1.0438,-1.0215,-1.0455,-1.0606,-1.0637,-1.0517,-0.9942,-0.9394,-0.8573,-0.8067,-0.7166,-0.6892,-0.6954,-0.5556,-0.5008,-0.4591,-0.4307,-0.45,-0.4892,-0.5275,-0.536,-0.5936,-0.7348,-0.7118,-0.7188,-0.7377,-0.7216,-0.6715,-0.6602,-0.6099,-0.6002,-0.5888,-0.61,-0.6305,-0.723,-0.7973,-0.8696,-0.9481,-1.0487,-1.1455,-1.1849,-1.2096,-1.2167,-1.2528,-1.2688,-1.43,-1.5896,-1.675,-1.7811,-1.9236,-2.0777,-2.1002,-2.117,-2.0691,-2.0449,-2.0937,-2.165,-2.2241,-2.2723,-2.3086,-2.3375,-2.3293,-2.3809,-2.4362,-2.4495,-2.4474,-2.5109,0.28,-0.3804,-0.9579,-1.2484,-1.2965,-1.1541,-1.196,-1.3648,-1.5628,-1.7099,-1.8339,-1.9271,-2.003,-2.0537,-2.0716,-2.0602,-2.0475,-2.0234,-1.9864,-1.967,-1.9819,-1.9819,-1.9844,-2.0011,-2.0513,-2.1407,-2.0955,-2.0687,-2.1897,-1.9776,-1.8887,-1.8315,-1.783,-1.797,-2.0237,-1.9111,-1.7288,-1.5452,-1.5026,-1.3737,-1.2595,-1.2166,-1.1536,-1.1059,-1.0798,-1.0657,-1.0069,-1.051,-1.0444,-1.0047,-1.0462,-1.0606,-1.0612,-0.9618,-0.9039,-0.8754,-0.7525,-0.6425,-0.4982,-0.4888,-0.4797,-0.4693,-0.4273,-0.3831,-0.4018,-0.4392,-0.4949,-0.5319,-0.539,-0.562,-0.5833,-0.6037,-0.6583,-0.7153,-0.7174,-0.6865,-0.6757,-0.6108,-0.6013,-0.6256,-0.6282,-0.6299,-0.7589,-0.8684,-0.9743,-1.0514,-1.1361,-1.1785,-1.1987,-1.2069,-1.2345,-1.2858,-1.3186,-1.4745,-1.6316,-1.7523,-1.8621,-2.0071,-2.1017,-2.1225,-2.1639,-2.1612,-2.1373,-2.1129,-2.141,-2.2339,-2.2873,-2.3239,-2.3841,-2.4638,-2.4714,-2.5042,-2.4988,-2.5339,-2.6153,-0.4651,-0.8219,-0.981,-1.24,-1.4806,-1.3514,-1.3361,-1.4338,-1.6775,-1.8823,-2.0029,-2.0563,-2.0742,-2.0882,-2.0742,-2.0348,-2.0106,-1.9851,-1.9621,-1.9585,-1.9825,-2.0067,-2.0235,-2.0535,-2.0912,-2.0712,-2.0135,-1.9452,-1.9663,-1.7887,-1.7157,-1.6545,-1.6131,-1.6695,-1.7258,-1.6846,-1.5858,-1.4164,-1.3452,-1.2595,-1.1031,-1.0606,-1.0227,-1.0058,-1.0211,-0.9764,-0.9024,-0.99,-0.9983,-0.9457,-0.959,-0.9891,-0.9613,-0.8619,-0.7357,-0.6654,-0.554,-0.4891,-0.3717,-0.3292,-0.3319,-0.334,-0.3674,-0.3711,-0.4084,-0.4767,-0.5142,-0.5346,-0.5392,-0.5948,-0.7,-0.7359,-0.7921,-0.9092,-0.9145,-0.8313,-0.767,-0.6488,-0.6013,-0.6602,-0.7003,-0.7681,-0.8746,-0.9516,-1.0584,-1.0988,-1.1646,-1.1716,-1.1928,-1.2234,-1.2522,-1.3367,-1.4024,-1.5371,-1.6726,-1.7583,-1.8536,-1.9598,-2.0602,-2.1067,-2.148,-2.2086,-2.2534,-2.2402,-2.2334,-2.2446,-2.3655,-2.4671,-2.5661,-2.6202,-2.5785,-2.5955,-2.6352,-2.6736,-2.7192,-0.8781,-1.1173,-1.1927,-1.374,-1.5718,-1.4451,-1.427,-1.583,-1.8541,-2.0281,-2.0943,-2.1109,-2.1136,-2.1022,-2.0628,-2.0221,-1.9724,-1.9468,-1.9621,-1.9597,-1.9825,-2.011,-2.0484,-2.0724,-2.075,-2.033,-1.9693,-1.9027,-1.8324,-1.6627,-1.5274,-1.4583,-1.4583,-1.4307,-1.4583,-1.4725,-1.4441,-1.3031,-1.2316,-1.1743,-1.0599,-1.0041,-0.9786,-0.9697,-0.9573,-0.928,-0.8397,-0.8377,-0.8936,-0.8304,-0.8304,-0.8474,-0.8066,-0.7092,-0.5813,-0.4959,-0.4105,-0.3568,-0.2837,-0.2698,-0.2722,-0.2752,-0.3397,-0.3913,-0.4131,-0.4814,-0.5174,-0.5373,-0.5398,-0.5942,-0.7,-0.7351,-0.7941,-0.8935,-0.8607,-0.7593,-0.7321,-0.6131,-0.6353,-0.7124,-0.8057,-0.8705,-0.9545,-1.0466,-1.14,-1.148,-1.1748,-1.1819,-1.1906,-1.2229,-1.2688,-1.3511,-1.4501,-1.5469,-1.6641,-1.7494,-1.8459,-1.9138,-1.9621,-2.0153,-2.132,-2.1726,-2.2695,-2.3673,-2.2944,-2.2894,-2.5109,-2.6445,-2.6742,-2.6659,-2.6464,-2.6849,-2.763,-2.7739,-2.7811,-0.947,-1.2994,-1.6211,-1.7016,-1.6194,-1.5084,-1.6344,-1.9509,-2.0943,-2.1348,-2.1109,-2.1082,-2.0969,-2.0895,-2.0361,-1.9954,-1.9749,-1.9365,-1.9414,-1.9616,-1.9707,-2.0023,-2.0333,-2.056,-2.0158,-1.9893,-1.9105,-1.7771,-1.7057,-1.5283,-1.3595,-1.2466,-1.2466,-1.2466,-1.2753,-1.3031,-1.3031,-1.2036,-1.1462,-1.0887,-1.0311,-1.0041,-0.9624,-0.9507,-0.9362,-0.8624,-0.7597,-0.6704,-0.67,-0.6566,-0.6905,-0.6941,-0.6396,-0.5403,-0.4979,-0.4257,-0.3227,-0.282,-0.2703,-0.256,-0.2592,-0.2624,-0.3465,-0.3807,-0.415,-0.4679,-0.5206,-0.5406,-0.5433,-0.5463,-0.5836,-0.5868,-0.6079,-0.628,-0.6283,-0.5989,-0.624,-0.6293,-0.7048,-0.7809,-0.8565,-0.9437,-1.0111,-1.1009,-1.1547,-1.1683,-1.1792,-1.1917,-1.2004,-1.2091,-1.2688,-1.3833,-1.4624,-1.5564,-1.6392,-1.7282,-1.7411,-1.7936,-1.803,-1.8314,-1.9837,-2.1155,-2.1982,-2.2612,-2.2489,-2.3144,-2.4922,-2.626,-2.7133,-2.7073,-2.7073,-2.7037,-2.7473,-2.7715,-2.7811,-1.1753,-1.5544,-1.9133,-1.9911,-1.8758,-1.8848,-1.9739,-2.0716,-2.1109,-2.1109,-2.1096,-2.0645,-2.0711,-2.0935,-1.9928,-1.9447,-1.9352,-1.937,-1.9597,-1.9565,-1.9256,-1.9352,-1.9256,-1.9208,-1.8616,-1.7828,-1.7006,-1.6275,-1.5208,-1.3641,-1.2602,-1.1763,-1.1619,-1.1619,-1.177,-1.2043,-1.177,-1.1338,-1.0906,-1.0455,-1.0167,-0.9746,-0.9468,-0.949,-0.9345,-0.8179,-0.6279,-0.5686,-0.5554,-0.5459,-0.5471,-0.5351,-0.5265,-0.3957,-0.3074,-0.3111,-0.2672,-0.2545,-0.2564,-0.2598,-0.263,-0.2814,-0.3499,-0.3848,-0.4191,-0.4535,-0.5066,-0.5264,-0.5469,-0.5499,-0.5545,-0.5583,-0.5619,-0.564,-0.564,-0.5662,-0.5901,-0.6637,-0.7391,-0.8685,-0.9622,-1.014,-1.0993,-1.1152,-1.1531,-1.1694,-1.1835,-1.196,-1.2053,-1.2123,-1.2829,-1.3782,-1.4408,-1.5167,-1.5882,-1.6587,-1.6575,-1.6567,-1.6606,-1.72,-1.9104,-2.0401,-2.1275,-2.2068,-2.3184,-2.3601,-2.4287,-2.5717,-2.7253,-2.7473,-2.7289,-2.7353,-2.7329,-2.7606,-2.7811,-1.4734,-1.7631,-2.0645,-2.1259,-2.041,-2.0724,-2.0935,-2.0935,-2.0935,-2.081,-2.0532,-2.0388,-2.0164,-1.9916,-1.9512,-1.937,-1.9241,-1.8712,-1.8782,-1.8935,-1.8358,-1.8199,-1.7949,-1.7807,-1.7443,-1.6522,-1.5404,-1.4645,-1.3539,-1.2567,-1.1538,-1.1619,-1.1619,-1.1653,-1.1687,-1.1569,-1.1279,-1.0964,-1.0643,-1.0323,-0.9885,-0.9607,-0.949,-0.9534,-0.9389,-0.7348,-0.6198,-0.6191,-0.5339,-0.4636,-0.4496,-0.3778,-0.3825,-0.2943,-0.2507,-0.2693,-0.2557,-0.2579,-0.2601,-0.2624,-0.2649,-0.3003,-0.3532,-0.3889,-0.4391,-0.4898,-0.5259,-0.5458,-0.5496,-0.554,-0.5594,-0.5649,-0.5689,-0.5728,-0.5714,-0.5703,-0.6255,-0.7167,-0.8269,-0.9743,-1.064,-1.1157,-1.1487,-1.1465,-1.1531,-1.171,-1.183,-1.1906,-1.1982,-1.2036,-1.272,-1.3676,-1.4153,-1.4611,-1.5348,-1.5767,-1.5561,-1.5334,-1.5279,-1.6227,-1.8335,-1.9246,-1.9705,-2.1973,-2.4576,-2.4988,-2.5425,-2.6434,-2.7606,-2.7655,-2.7679,-2.757,-2.751,-2.7606,-2.7763,-1.772,-1.9511,-2.1273,-2.1576,-2.1015,-2.0802,-2.0668,-2.0628,-2.0601,-2.0381,-2.0035,-2.0022,-1.9524,-1.9034,-1.912,-1.9468,-1.91,-1.8464,-1.8216,-1.8245,-1.6986,-1.6608,-1.6729,-1.6792,-1.581,-1.5538,-1.4818,-1.3399,-1.216,-1.1643,-1.1545,-1.1613,-1.1647,-1.1701,-1.1636,-1.1397,-1.1104,-1.0614,-1.0572,-1.039,-0.9908,-0.963,-0.9686,-0.9775,-0.8765,-0.7302,-0.8122,-0.7402,-0.5902,-0.4861,-0.3825,-0.3084,-0.2658,-0.2684,-0.2553,-0.257,-0.259,-0.2611,-0.263,-0.2649,-0.2837,-0.32,-0.3573,-0.4099,-0.4606,-0.4942,-0.5135,-0.5518,-0.5561,-0.56,-0.5654,-0.5687,-0.5722,-0.5736,-0.573,-0.5725,-0.6088,-0.717,-0.8969,-1.0247,-1.0962,-1.1476,-1.1476,-1.146,-1.1514,-1.1716,-1.1803,-1.1846,-1.1922,-1.2151,-1.2656,-1.3632,-1.3958,-1.4127,-1.4355,-1.4611,-1.4369,-1.43,-1.4409,-1.5316,-1.7467,-1.7927,-1.7951,-2.1545,-2.5318,-2.6176,-2.6852,-2.7529,-2.7836,-2.7872,-2.7872,-2.7787,-2.7775,-2.7824,-2.7715,-1.7853,-2.0695,-2.1389,-2.1389,-2.0788,-2.0708,-2.0535,-2.0321,-1.9839,-1.9768,-1.9957,-1.9496,-1.9088,-1.8981,-1.8831,-1.9115,-1.9157,-1.825,-1.8075,-1.7326,-1.6236,-1.526,-1.5192,-1.4716,-1.3972,-1.317,-1.2704,-1.2353,-1.1607,-1.1402,-1.1572,-1.1633,-1.1556,-1.1358,-1.1283,-1.1051,-1.0761,-1.0275,-1.0571,-1.0334,-0.9797,-0.9849,-1.0069,-1.0281,-0.9574,-0.9185,-0.9855,-1.0329,-0.7924,-0.5822,-0.4962,-0.378,-0.2729,-0.2583,-0.259,-0.2597,-0.2619,-0.2641,-0.2657,-0.2673,-0.3033,-0.3396,-0.3767,-0.4302,-0.4657,-0.4831,-0.5196,-0.5412,-0.5624,-0.5662,-0.5698,-0.5722,-0.5741,-0.5741,-0.5741,-0.5741,-0.5741,-0.7527,-0.9491,-1.0382,-1.1277,-1.1455,-1.1455,-1.1487,-1.1547,-1.1601,-1.1656,-1.1721,-1.2024,-1.2281,-1.2679,-1.3327,-1.3833,-1.4016,-1.4068,-1.4164,-1.4287,-1.4416,-1.4728,-1.565,-1.678,-1.8761,-2.0726,-2.3114,-2.5893,-2.6853,-2.7485,-2.7793,-2.8065,-2.8113,-2.8162,-2.8125,-2.8363,-2.8423,-2.7932,-1.869,-2.0631,-2.1235,-2.1096,-2.0708,-2.0535,-2.0321,-1.992,-1.9376,-1.9184,-1.942,-1.8988,-1.8753,-1.8891,-1.874,-1.8605,-1.8818,-1.8023,-1.7118,-1.6298,-1.5298,-1.4209,-1.3515,-1.3104,-1.2929,-1.2265,-1.1843,-1.1474,-1.1399,-1.1396,-1.1531,-1.1543,-1.1364,-1.0712,-1.0488,-1.026,-0.9966,-0.9794,-1.0277,-1.0191,-0.9753,-1.0269,-1.0655,-1.0865,-1.092,-1.0678,-1.1231,-1.174,-0.98,-0.6733,-0.4907,-0.3676,-0.2755,-0.2612,-0.262,-0.263,-0.2649,-0.2673,-0.2687,-0.2874,-0.3237,-0.3776,-0.416,-0.4714,-0.5075,-0.543,-0.5441,-0.5651,-0.5638,-0.5665,-0.5709,-0.5739,-0.5741,-0.5741,-0.5918,-0.5918,-0.6991,-0.8599,-1.0026,-1.0921,-1.1455,-1.1455,-1.1455,-1.146,-1.1542,-1.1886,-1.1721,-1.2169,-1.2437,-1.2662,-1.3043,-1.3407,-1.3751,-1.4113,-1.4158,-1.4268,-1.4584,-1.4715,-1.503,-1.6508,-1.8005,-2.1367,-2.4111,-2.5381,-2.6508,-2.7535,-2.8186,-2.8222,-2.8318,-2.8391,-2.8463,-2.8512,-2.8739,-2.9061,-2.9105,-1.9654,-2.0334,-2.0842,-2.0882,-2.0588,-2.0307,-2.004,-1.9721,-1.9125,-1.8784,-1.8815,-1.8643,-1.8517,-1.8644,-1.8908,-1.8335,-1.7631,-1.6498,-1.5751,-1.5092,-1.369,-1.326,-1.2865,-1.2476,-1.2327,-1.2067,-1.1646,-1.149,-1.1369,-1.1497,-1.1502,-1.1364,-1.0583,-0.9468,-0.9283,-0.8711,-0.8237,-0.8555,-0.9162,-0.9877,-1.03,-1.0889,-1.1258,-1.1479,-1.1708,-1.1779,-1.207,-1.1541,-1.0188,-0.7537,-0.4356,-0.3249,-0.2782,-0.2638,-0.2649,-0.266,-0.2682,-0.271,-0.2903,-0.3255,-0.3797,-0.4177,-0.4749,-0.5127,-0.5491,-0.5679,-0.5689,-0.5687,-0.567,-0.5679,-0.5719,-0.5741,-0.5741,-0.592,-0.6097,-0.6633,-0.8063,-0.9496,-1.0387,-1.1455,-1.1455,-1.1455,-1.146,-1.146,-1.1754,-1.1925,-1.2242,-1.254,-1.2987,-1.3361,-1.374,-1.3921,-1.4274,-1.4274,-1.446,-1.4525,-1.4838,-1.5337,-1.5841,-1.7535,-1.943,-2.2654,-2.4864,-2.5994,-2.7152,-2.789,-2.8318,-2.8355,-2.8475,-2.8548,-2.9147,-2.9529,-2.9645,-3.0139,-3.0525,-1.9787,-2.0465,-2.0722,-2.0588,-2.0294,-2.0013,-1.984,-1.9734,-1.9331,-1.9208,-1.8976,-1.7909,-1.7268,-1.7418,-1.8594,-1.817,-1.6436,-1.5211,-1.4931,-1.4539,-1.3277,-1.2724,-1.2507,-1.2373,-1.2218,-1.1812,-1.1538,-1.1495,-1.1491,-1.1647,-1.1616,-1.1563,-1.03,-0.9466,-0.8888,-0.7999,-0.6799,-0.7253,-0.7419,-0.8021,-0.8745,-0.965,-1.134,-1.1874,-1.2126,-1.1454,-1.0768,-0.9218,-0.7529,-0.5662,-0.3923,-0.2958,-0.2643,-0.266,-0.2676,-0.2856,-0.2879,-0.3083,-0.3278,-0.3639,-0.4011,-0.4573,-0.4963,-0.5329,-0.552,-0.5717,-0.5725,-0.5725,-0.5714,-0.5714,-0.5741,-0.5741,-0.5741,-0.6099,-0.6458,-0.7885,-0.9317,-0.9852,-1.0565,-1.1099,-1.1455,-1.1465,-1.1482,-1.1699,-1.1967,-1.2124,-1.2627,-1.2923,-1.3367,-1.3983,-1.4429,-1.4604,-1.4584,-1.4778,-1.4959,-1.4966,-1.5255,-1.5948,-1.7237,-1.9338,-2.1652,-2.3983,-2.5786,-2.6839,-2.7366,-2.8092,-2.8343,-2.8318,-2.8427,-2.8666,-2.9886,-3.0661,-3.0596,-3.1301,-3.2121]},{"header":{"parameterUnit":"m.s-1","parameterCategory":1,"la1":31.0,"la2":29.5877,"lo1":-88.7671,"lo2":-86.6584,"dx":0.0162,"dy":0.0185,"nx":115,"ny":88,"refTime":"2022-12-31T12:00:00:Z","depth":0,"parameterNumber":3,"parameterNumberName":"V-component_of_WINDS"},"data":[0.0,0.0,0.0,0.0,0.0,0.0,0.0,0.0,0.0,0.0,0.0,0.0,0.0,0.0,0.0,0.0,0.0,0.0,0.0,0.0,0.0,0.0,0.0,0.0,0.0,0.0,0.0,0.0,0.0,0.0,0.0,0.0,0.0,0.0,0.0,0.0,0.0,0.0,0.0,0.0,0.0,0.0,0.0,0.0,0.0,0.0,0.0,0.0,0.0,0.0,0.0,0.0,0.0,0.0,0.0,0.0,0.0,0.0,0.0,0.0,0.0,0.0,0.0,0.0,0.0,0.0,0.0,0.0,0.0,0.0,0.0,0.0,0.0,0.0,0.0,0.0,0.0,0.0,0.0,0.0,0.0,0.0,0.0,0.0,0.0,0.0,0.0,0.0,0.0,0.0,0.0,0.0,0.0,0.0,0.0,0.0,0.0,0.0,0.0,0.0,0.0,0.0,0.0,0.0,0.0,0.0,0.0,0.0,0.0,0.0,0.0,0.0,0.0,0.0,0.0,0.0,0.0,0.0,0.0,0.0,0.0,0.0,0.0,0.0,0.0,0.0,0.0,0.0,0.0,0.0,0.0,0.0,0.0,0.0,0.0,0.0,0.0,0.0,0.0,0.0,0.0,0.0,0.0,0.0,0.0,0.0,0.0,0.0,0.0,0.0,0.0,0.0,0.0,0.0,0.0,0.0,0.0,0.0,0.0,0.0,0.0,0.0,0.0,0.0,0.0,0.0,0.0,0.0,0.0,0.0,0.0,0.0,0.0,0.0,0.0,0.0,0.0,0.0,0.0,0.0,0.0,0.0,0.0,0.0,0.0,0.0,0.0,0.0,0.0,0.0,0.0,0.0,0.0,0.0,0.0,0.0,0.0,0.0,0.0,0.0,0.0,0.0,0.0,0.0,0.0,0.0,0.0,0.0,0.0,0.0,0.0,0.0,0.0,0.0,0.0,0.0,0.0,0.0,0.0,0.0,0.0,0.0,0.0,0.0,0.0,0.0,0.0,0.0,0.0,0.0,0.0,0.0,0.0,0.0,0.0,0.0,0.0,0.0,0.0,0.0,0.0,0.0,0.0,0.0,0.0,0.0,0.0,0.0,0.0,0.0,0.0,0.0,0.0,0.0,0.0,0.0,0.0,0.0,0.0,0.0,0.0,0.0,0.0,0.0,0.0,0.0,0.0,0.0,0.0,0.0,0.0,0.0,0.0,0.0,0.0,0.0,0.0,0.0,0.0,0.0,0.0,0.0,0.0,0.0,0.0,0.0,0.0,0.0,0.0,0.0,0.0,0.0,0.0,0.0,0.0,0.0,0.0,0.0,0.0,0.0,0.0,0.0,0.0,0.0,0.0,0.0,0.0,0.0,0.0,0.0,0.0,0.0,0.0,0.0,0.0,0.0,0.0,0.0,0.0,0.0,0.0,0.0,0.0,0.0,0.0,0.0,0.0,0.0,0.0,0.0,0.0,0.0,0.0,0.0,0.0,0.0,0.0,0.0,0.0,0.0,0.0,0.0,0.0,0.0,0.0,0.0,0.0,0.0,0.0,0.0,0.0,0.0,0.0,0.0,0.0,0.0,0.0,0.0,0.0,0.0,0.0,0.0,0.0,0.0,0.0,0.0,0.0,0.0,0.0,0.0,0.0,0.0,0.0,0.0,0.0,0.0,0.0,0.0,0.0,0.0,0.0,0.0,0.0,0.0,0.0,0.0,0.0,0.0,0.0,0.0,0.0,0.0,0.0,0.0,0.0,0.0,0.0,0.0,0.0,0.0,0.0,0.0,0.0,0.0,0.0,0.0,0.0,0.0,0.0,0.0,0.0,0.0,0.0,0.0,0.0,0.0,0.0,0.0,0.0,0.0,0.0,0.0,0.0,0.0,0.0,0.0,0.0,0.0,0.0,0.0,0.0,0.0,0.0,0.0,0.0,0.0,0.0,0.0,0.0,0.0,0.0,0.0,0.0,0.0,0.0,0.0,0.0,0.0,0.0,0.0,0.0,0.0,0.0,0.0,0.0,0.0,0.0,0.0,0.0,0.0,0.0,0.0,0.0,0.0,0.0,0.0,0.0,0.0,0.0,0.0,0.0,0.0,0.0,0.0,0.0,0.0,0.0,0.0,0.0,0.0,0.0,0.0,0.0,0.0,0.0,0.0,0.0,0.0,0.0,0.0,0.0,0.0,0.0,0.0,0.0,0.0,0.0,0.0,0.0,0.0,0.0,0.0,0.0,0.0,0.0,0.0,0.0,0.0,0.0,0.0,0.0,0.0,0.0,0.0,0.0,0.0,0.0,0.0,0.0,0.0,0.0,0.0,0.0,0.0,0.0,0.0,0.0,0.0,0.0,0.0,0.0,0.0,0.0,0.0,0.0,0.0,0.0,0.0,0.0,0.0,0.0,0.0,0.0,0.0,0.0,0.0,0.0,0.0,0.0,0.0,0.0,0.0,0.0,0.0,0.0,0.0,0.0,0.0,0.0,0.0,0.0,0.0,0.0,0.0,0.0,0.0,0.0,0.0,0.0,0.0,0.0,0.0,0.0,0.0,0.0,0.0,0.0,0.0,0.0,0.0,0.0,0.0,0.0,0.0,0.0,0.0,0.0,0.0,0.0,0.0,0.0,0.0,0.0,0.0,0.0,0.0,0.0,0.0,0.0,0.0,0.0,0.0,0.0,0.0,0.0,0.0,0.0,0.0,0.0,0.0,0.0,0.0,0.0,0.0,0.0,0.0,0.0,0.0,0.0,0.0,0.0,0.0,0.0,0.0,0.0,0.0,0.0,0.0,0.0,0.0,0.0,0.0,0.0,0.0,0.0,0.0,0.0,0.0,0.0,0.0,0.0,0.0,0.0,0.0,0.0,0.0,0.0,0.0,0.0,0.0,0.0,0.0,0.0,0.0,0.0,0.0,0.0,0.0,0.0,0.0,0.0,0.0,0.0,0.0,0.0,0.0,0.0,0.0,0.0,0.0,0.0,0.0,0.0,0.0,0.0,0.0,0.0,0.0,0.0,0.0,0.0,0.0,0.0,0.0,0.0,0.0,0.0,0.0,0.0,0.0,0.0,0.0,0.0,0.0,0.0,0.0,0.0,0.0,0.0,0.0,0.0,0.0,0.0,0.0,0.0,0.0,0.0,0.0,0.0,0.0,0.0,0.0,0.0,0.0,0.0,0.0,0.0,0.0,0.0,0.0,0.0,0.0,0.0,0.0,0.0,0.0,0.0,0.0,0.0,0.0,0.0,0.0,0.0,0.0,0.0,0.0,0.0,0.0,0.0,0.0,0.0,0.0,0.0,0.0,0.0,0.0,0.0,0.0,0.0,0.0,0.0,0.0,0.0,0.0,0.0,0.0,0.0,0.0,0.0,0.0,0.0,0.0,0.0,0.0,0.0,0.0,0.0,0.0,0.0,0.0,0.0,0.0,0.0,0.0,0.0,0.0,0.0,0.0,0.0,0.0,0.0,0.0,0.0,0.0,0.0,0.0,0.0,0.0,0.0,0.0,0.0,0.0,0.0,0.0,0.0,0.0,0.0,0.0,0.0,0.0,0.0,0.0,0.0,0.0,0.0,0.0,0.0,0.0,0.0,0.0,0.0,0.0,0.0,0.0,0.0,0.0,0.0,0.0,0.0,0.0,0.0,0.0,0.0,0.0,0.0,0.0,0.0,0.0,0.0,0.0,0.0,0.0,0.0,0.0,0.0,0.0,0.0,0.0,0.0,0.0,0.0,0.0,0.0,0.0,0.0,0.0,0.0,0.0,0.0,0.0,0.0,0.0,0.0,0.0,0.0,0.0,0.0,0.0,0.0,0.0,0.0,0.0,0.0,0.0,0.0,0.0,0.0,0.0,0.0,0.0,0.0,0.0,0.0,0.0,0.0,0.0,0.0,0.0,0.0,0.0,0.0,0.0,0.0,0.0,0.0,0.0,0.0,0.0,0.0,0.0,0.0,0.0,0.0,0.0,0.0,0.0,0.0,0.0,0.0,0.0,0.0,0.0,0.0,0.0,0.0,0.0,0.0,0.0,0.0,0.0,0.0,0.0,0.0,0.0,0.0,0.0,0.0,0.0,0.0,0.0,0.0,0.0,0.0,0.0,0.0,0.0,0.0,0.0,0.0,0.0,0.0,0.0,0.0,0.0,0.0,0.0,0.0,0.0,0.0,0.0,0.0,0.0,0.0,0.0,0.0,0.0,0.0,0.0,0.0,0.0,0.0,0.0,0.0,0.0,0.0,0.0,0.0,0.0,0.0,0.0,0.0,0.0,-2.4284,0.0,0.0,0.0,-2.4022,0.0,0.0,0.0,0.0,0.0,0.0,0.0,0.0,0.0,0.0,0.0,0.0,0.0,0.0,0.0,0.0,0.0,0.0,0.0,0.0,0.0,0.0,0.0,0.0,0.0,0.0,0.0,0.0,0.0,0.0,0.0,0.0,0.0,0.0,0.0,0.0,0.0,0.0,0.0,0.0,0.0,0.0,0.0,0.0,0.0,0.0,0.0,0.0,0.0,0.0,0.0,0.0,0.0,0.0,0.0,0.0,0.0,0.0,0.0,0.0,0.0,0.0,0.0,0.0,0.0,0.0,0.0,0.0,0.0,0.0,0.0,0.0,0.0,0.0,0.0,0.0,0.0,0.0,0.0,0.0,0.0,0.0,0.0,0.0,0.0,0.0,0.0,0.0,0.0,0.0,0.0,0.0,0.0,0.0,0.0,0.0,0.0,0.0,0.0,0.0,0.0,0.0,0.0,0.0,0.0,0.0,0.0,0.0,0.0,0.0,-2.4247,-2.4247,-2.4056,-2.3979,-2.4097,0.0,0.0,0.0,0.0,0.0,0.0,0.0,0.0,0.0,0.0,0.0,0.0,0.0,0.0,0.0,0.0,0.0,0.0,0.0,0.0,0.0,0.0,0.0,0.0,0.0,0.0,0.0,0.0,0.0,0.0,0.0,0.0,0.0,0.0,0.0,0.0,0.0,0.0,0.0,0.0,0.0,0.0,0.0,0.0,0.0,0.0,0.0,0.0,0.0,0.0,0.0,0.0,0.0,0.0,0.0,0.0,0.0,0.0,0.0,0.0,0.0,0.0,0.0,0.0,0.0,0.0,0.0,0.0,0.0,0.0,0.0,0.0,0.0,0.0,0.0,0.0,0.0,0.0,0.0,0.0,0.0,0.0,0.0,0.0,0.0,0.0,0.0,0.0,0.0,0.0,0.0,0.0,0.0,0.0,0.0,0.0,0.0,0.0,0.0,0.0,0.0,0.0,0.0,0.0,0.0,0.0,0.0,0.0,0.0,0.0,0.0,0.0,-2.4016,-2.3976,-2.3959,0.0,0.0,0.0,0.0,0.0,0.0,0.0,0.0,0.0,0.0,0.0,0.0,0.0,0.0,0.0,0.0,0.0,0.0,0.0,0.0,0.0,0.0,0.0,0.0,0.0,0.0,0.0,0.0,0.0,0.0,0.0,0.0,0.0,0.0,0.0,0.0,0.0,0.0,0.0,0.0,0.0,0.0,0.0,0.0,0.0,0.0,0.0,0.0,0.0,0.0,0.0,0.0,0.0,0.0,0.0,0.0,0.0,0.0,0.0,0.0,0.0,0.0,0.0,0.0,0.0,0.0,0.0,0.0,0.0,0.0,0.0,0.0,0.0,0.0,0.0,0.0,0.0,0.0,0.0,0.0,0.0,0.0,0.0,0.0,0.0,0.0,0.0,0.0,0.0,0.0,0.0,0.0,0.0,0.0,0.0,0.0,0.0,0.0,0.0,0.0,0.0,0.0,0.0,0.0,0.0,0.0,0.0,0.0,0.0,0.0,-2.4321,-2.419,-2.4016,0.0,-2.3571,0.0,0.0,0.0,0.0,0.0,0.0,0.0,0.0,0.0,0.0,0.0,0.0,0.0,0.0,0.0,0.0,0.0,0.0,0.0,0.0,0.0,0.0,0.0,0.0,0.0,0.0,0.0,0.0,0.0,0.0,0.0,0.0,0.0,0.0,0.0,0.0,0.0,0.0,0.0,0.0,0.0,0.0,0.0,0.0,0.0,0.0,0.0,0.0,0.0,0.0,0.0,0.0,0.0,0.0,0.0,0.0,0.0,0.0,0.0,0.0,0.0,0.0,0.0,0.0,0.0,0.0,0.0,0.0,0.0,0.0,0.0,0.0,0.0,0.0,0.0,0.0,0.0,0.0,0.0,0.0,0.0,0.0,0.0,0.0,0.0,0.0,0.0,0.0,0.0,0.0,0.0,0.0,0.0,0.0,0.0,0.0,0.0,0.0,0.0,0.0,0.0,0.0,0.0,0.0,0.0,0.0,0.0,0.0,0.0,0.0,-2.4493,-2.4375,-2.4338,-2.4154,0.0,0.0,0.0,0.0,0.0,0.0,0.0,0.0,0.0,0.0,0.0,0.0,0.0,0.0,0.0,0.0,0.0,0.0,0.0,0.0,0.0,0.0,0.0,0.0,0.0,0.0,0.0,0.0,0.0,0.0,0.0,0.0,0.0,0.0,0.0,0.0,0.0,0.0,0.0,0.0,0.0,0.0,0.0,0.0,0.0,0.0,0.0,0.0,0.0,0.0,0.0,0.0,0.0,0.0,0.0,0.0,0.0,0.0,0.0,0.0,0.0,0.0,0.0,0.0,0.0,0.0,0.0,0.0,0.0,0.0,0.0,0.0,0.0,0.0,0.0,0.0,0.0,0.0,0.0,0.0,0.0,0.0,0.0,0.0,0.0,0.0,0.0,0.0,0.0,0.0,0.0,0.0,0.0,0.0,0.0,0.0,0.0,0.0,0.0,0.0,0.0,0.0,0.0,0.0,0.0,0.0,0.0,0.0,0.0,0.0,-2.4731,-2.4639,-2.4408,-2.4391,-2.4155,-2.371,0.0,0.0,0.0,0.0,0.0,0.0,0.0,0.0,0.0,0.0,0.0,0.0,0.0,0.0,0.0,0.0,0.0,0.0,0.0,0.0,0.0,0.0,0.0,0.0,0.0,0.0,0.0,0.0,0.0,0.0,0.0,0.0,0.0,0.0,0.0,0.0,0.0,0.0,0.0,0.0,0.0,0.0,0.0,0.0,0.0,0.0,0.0,0.0,0.0,0.0,0.0,0.0,0.0,0.0,0.0,0.0,0.0,0.0,0.0,0.0,0.0,0.0,0.0,0.0,0.0,0.0,0.0,0.0,0.0,0.0,0.0,0.0,0.0,0.0,0.0,0.0,0.0,0.0,0.0,0.0,0.0,0.0,0.0,0.0,0.0,0.0,0.0,0.0,0.0,0.0,0.0,0.0,0.0,0.0,0.0,0.0,0.0,0.0,0.0,0.0,0.0,0.0,0.0,0.0,0.0,0.0,0.0,0.0,-2.4809,-2.479,-2.4591,-2.4154,-2.3935,-2.3638,0.0,0.0,0.0,0.0,0.0,0.0,0.0,0.0,0.0,0.0,0.0,0.0,0.0,0.0,0.0,0.0,0.0,0.0,0.0,0.0,0.0,0.0,0.0,0.0,0.0,0.0,0.0,0.0,0.0,0.0,0.0,0.0,0.0,0.0,0.0,0.0,0.0,0.0,0.0,0.0,0.0,0.0,0.0,0.0,0.0,0.0,0.0,0.0,0.0,0.0,0.0,0.0,0.0,0.0,0.0,0.0,0.0,0.0,0.0,0.0,0.0,0.0,0.0,0.0,0.0,0.0,0.0,0.0,0.0,0.0,0.0,0.0,0.0,0.0,0.0,0.0,0.0,0.0,0.0,0.0,0.0,0.0,0.0,0.0,0.0,0.0,0.0,0.0,0.0,0.0,0.0,0.0,0.0,0.0,0.0,0.0,0.0,0.0,0.0,0.0,0.0,0.0,0.0,0.0,0.0,0.0,0.0,0.0,0.0,-2.4926,-2.4716,-2.4554,-2.4364,-2.4099,-2.3458,0.0,0.0,0.0,0.0,0.0,0.0,0.0,0.0,0.0,0.0,0.0,0.0,0.0,0.0,0.0,0.0,0.0,0.0,0.0,0.0,0.0,0.0,0.0,0.0,0.0,0.0,0.0,0.0,0.0,0.0,0.0,0.0,0.0,0.0,0.0,0.0,0.0,0.0,0.0,0.0,0.0,0.0,0.0,0.0,0.0,0.0,0.0,0.0,0.0,0.0,0.0,0.0,0.0,0.0,0.0,0.0,0.0,0.0,0.0,0.0,0.0,0.0,0.0,0.0,0.0,0.0,0.0,0.0,0.0,0.0,0.0,0.0,0.0,0.0,0.0,0.0,0.0,0.0,0.0,0.0,0.0,0.0,0.0,0.0,0.0,0.0,0.0,0.0,0.0,0.0,0.0,0.0,0.0,0.0,0.0,0.0,0.0,0.0,0.0,0.0,0.0,0.0,0.0,0.0,0.0,0.0,0.0,0.0,0.0,-2.5356,-2.4998,-2.4774,-2.4754,-2.4351,-2.3624,0.0,0.0,0.0,0.0,0.0,0.0,0.0,0.0,0.0,0.0,0.0,0.0,0.0,0.0,0.0,0.0,0.0,0.0,0.0,0.0,0.0,0.0,0.0,0.0,0.0,0.0,0.0,0.0,0.0,0.0,0.0,0.0,0.0,0.0,0.0,0.0,0.0,0.0,0.0,0.0,0.0,0.0,0.0,0.0,0.0,0.0,0.0,0.0,0.0,0.0,0.0,0.0,0.0,0.0,0.0,0.0,0.0,0.0,0.0,0.0,0.0,0.0,0.0,0.0,0.0,0.0,0.0,0.0,0.0,0.0,0.0,0.0,0.0,0.0,0.0,0.0,0.0,0.0,0.0,0.0,0.0,0.0,0.0,0.0,0.0,0.0,0.0,0.0,0.0,0.0,0.0,0.0,0.0,0.0,0.0,0.0,0.0,0.0,0.0,0.0,0.0,0.0,0.0,0.0,0.0,0.0,0.0,0.0,-2.5526,-2.6138,-2.5701,-2.5412,-2.5294,-2.4833,-2.4085,0.0,0.0,0.0,0.0,0.0,0.0,0.0,0.0,0.0,0.0,0.0,0.0,0.0,0.0,0.0,0.0,0.0,0.0,0.0,0.0,0.0,0.0,0.0,0.0,0.0,0.0,0.0,0.0,0.0,0.0,0.0,0.0,0.0,0.0,0.0,0.0,0.0,0.0,0.0,0.0,0.0,0.0,0.0,0.0,0.0,0.0,0.0,0.0,0.0,0.0,0.0,0.0,0.0,0.0,0.0,0.0,0.0,0.0,0.0,0.0,0.0,0.0,0.0,0.0,0.0,0.0,0.0,0.0,0.0,0.0,0.0,0.0,0.0,0.0,0.0,0.0,0.0,0.0,0.0,0.0,0.0,0.0,0.0,0.0,0.0,0.0,0.0,0.0,0.0,0.0,0.0,0.0,0.0,0.0,0.0,0.0,0.0,0.0,0.0,0.0,0.0,0.0,0.0,0.0,0.0,0.0,0.0,0.0,0.0,-2.6205,-2.65,-2.6577,-2.6395,-2.6015,-2.5059,0.0,0.0,0.0,0.0,0.0,0.0,0.0,0.0,0.0,0.0,0.0,0.0,0.0,0.0,0.0,0.0,0.0,0.0,0.0,0.0,0.0,0.0,0.0,0.0,0.0,0.0,0.0,0.0,0.0,0.0,0.0,0.0,0.0,0.0,0.0,0.0,0.0,0.0,0.0,0.0,0.0,0.0,0.0,0.0,0.0,0.0,0.0,0.0,0.0,0.0,0.0,0.0,0.0,0.0,0.0,0.0,0.0,0.0,0.0,0.0,0.0,0.0,0.0,0.0,0.0,0.0,0.0,0.0,0.0,0.0,0.0,0.0,0.0,0.0,0.0,0.0,0.0,0.0,0.0,0.0,0.0,0.0,0.0,0.0,0.0,0.0,0.0,0.0,0.0,0.0,0.0,0.0,0.0,0.0,0.0,0.0,0.0,0.0,0.0,0.0,0.0,0.0,0.0,0.0,0.0,0.0,0.0,0.0,0.0,-2.7975,-2.8573,-2.8895,-2.8783,-2.8211,-2.6995,-2.5055,0.0,0.0,0.0,0.0,0.0,0.0,0.0,0.0,0.0,0.0,0.0,0.0,0.0,0.0,0.0,0.0,0.0,0.0,0.0,0.0,0.0,0.0,0.0,0.0,0.0,0.0,0.0,0.0,0.0,0.0,0.0,0.0,0.0,0.0,0.0,0.0,0.0,0.0,0.0,0.0,0.0,0.0,0.0,0.0,0.0,0.0,0.0,0.0,0.0,0.0,0.0,0.0,0.0,0.0,0.0,0.0,0.0,0.0,0.0,0.0,0.0,0.0,0.0,0.0,0.0,0.0,0.0,0.0,0.0,0.0,0.0,0.0,0.0,0.0,0.0,0.0,0.0,0.0,0.0,0.0,0.0,0.0,0.0,0.0,0.0,0.0,0.0,0.0,0.0,0.0,0.0,0.0,0.0,0.0,0.0,0.0,0.0,0.0,0.0,0.0,0.0,0.0,0.0,0.0,0.0,0.0,0.0,0.0,-3.1069,-3.179,-3.2163,-3.2122,-3.1121,-2.9662,0.0,0.0,0.0,0.0,0.0,0.0,0.0,0.0,0.0,0.0,0.0,0.0,0.0,0.0,0.0,0.0,0.0,0.0,0.0,0.0,0.0,0.0,0.0,0.0,0.0,0.0,0.0,0.0,0.0,0.0,0.0,0.0,0.0,0.0,0.0,0.0,0.0,0.0,0.0,0.0,0.0,0.0,0.0,0.0,0.0,0.0,0.0,0.0,0.0,0.0,0.0,0.0,0.0,0.0,0.0,0.0,0.0,0.0,0.0,0.0,0.0,0.0,0.0,0.0,0.0,0.0,0.0,0.0,0.0,0.0,0.0,0.0,0.0,0.0,0.0,0.0,0.0,0.0,0.0,0.0,0.0,0.0,0.0,0.0,0.0,0.0,0.0,0.0,0.0,0.0,0.0,0.0,0.0,0.0,0.0,0.0,0.0,0.0,0.0,0.0,0.0,0.0,0.0,0.0,0.0,0.0,0.0,0.0,0.0,-3.4486,-3.6066,-3.5958,-3.4066,-3.3204,-3.1768,0.0,0.0,0.0,0.0,0.0,0.0,0.0,0.0,0.0,0.0,0.0,0.0,0.0,0.0,0.0,0.0,0.0,0.0,0.0,0.0,0.0,0.0,0.0,0.0,0.0,0.0,0.0,0.0,0.0,0.0,0.0,0.0,0.0,0.0,0.0,0.0,0.0,0.0,0.0,0.0,0.0,0.0,0.0,0.0,0.0,0.0,0.0,0.0,0.0,0.0,0.0,0.0,0.0,0.0,0.0,0.0,0.0,0.0,0.0,0.0,0.0,0.0,0.0,0.0,0.0,0.0,0.0,0.0,0.0,0.0,0.0,0.0,0.0,0.0,0.0,0.0,0.0,0.0,0.0,0.0,0.0,0.0,0.0,0.0,0.0,0.0,0.0,0.0,0.0,0.0,0.0,0.0,0.0,0.0,0.0,0.0,0.0,0.0,0.0,0.0,0.0,0.0,0.0,0.0,0.0,0.0,0.0,0.0,-3.4283,-3.5873,-3.8088,-3.8591,-3.7091,-3.5637,-3.3825,0.0,0.0,0.0,0.0,0.0,0.0,0.0,0.0,0.0,0.0,0.0,0.0,0.0,0.0,0.0,0.0,0.0,0.0,0.0,0.0,0.0,0.0,0.0,0.0,0.0,0.0,0.0,0.0,0.0,0.0,0.0,0.0,0.0,0.0,0.0,0.0,0.0,0.0,0.0,0.0,0.0,0.0,0.0,0.0,0.0,0.0,0.0,0.0,0.0,0.0,0.0,0.0,0.0,0.0,0.0,0.0,0.0,0.0,0.0,0.0,0.0,0.0,0.0,0.0,0.0,0.0,0.0,0.0,0.0,0.0,0.0,0.0,0.0,0.0,0.0,0.0,0.0,0.0,0.0,0.0,0.0,0.0,0.0,0.0,0.0,0.0,0.0,0.0,0.0,0.0,0.0,0.0,0.0,0.0,0.0,0.0,0.0,0.0,0.0,0.0,0.0,0.0,0.0,0.0,0.0,0.0,0.0,0.0,-3.5496,-3.6305,-3.8801,-4.0177,-4.0224,-3.8016,-3.5796,0.0,0.0,0.0,0.0,0.0,0.0,0.0,0.0,0.0,0.0,0.0,0.0,0.0,0.0,0.0,0.0,0.0,0.0,0.0,0.0,0.0,0.0,0.0,0.0,0.0,0.0,0.0,0.0,0.0,0.0,0.0,0.0,0.0,0.0,0.0,0.0,0.0,0.0,0.0,0.0,0.0,0.0,0.0,0.0,0.0,0.0,0.0,0.0,0.0,0.0,0.0,0.0,0.0,0.0,0.0,0.0,0.0,0.0,0.0,0.0,0.0,0.0,0.0,0.0,0.0,0.0,0.0,0.0,0.0,0.0,0.0,0.0,0.0,0.0,0.0,0.0,0.0,0.0,0.0,0.0,0.0,0.0,0.0,0.0,0.0,0.0,0.0,0.0,0.0,0.0,0.0,0.0,0.0,0.0,0.0,0.0,0.0,0.0,0.0,0.0,0.0,0.0,0.0,0.0,0.0,0.0,0.0,0.0,-3.6672,-3.8112,-3.9582,-4.0334,-4.03,-3.8614,-3.6995,0.0,0.0,0.0,0.0,0.0,0.0,0.0,0.0,0.0,0.0,0.0,0.0,0.0,0.0,0.0,0.0,0.0,0.0,0.0,0.0,0.0,0.0,0.0,0.0,0.0,0.0,0.0,0.0,0.0,0.0,0.0,0.0,0.0,0.0,0.0,0.0,0.0,0.0,0.0,0.0,0.0,0.0,0.0,0.0,0.0,0.0,0.0,0.0,-3.3929,0.0,0.0,0.0,0.0,0.0,0.0,0.0,0.0,0.0,0.0,0.0,0.0,0.0,0.0,0.0,0.0,0.0,0.0,0.0,0.0,0.0,0.0,0.0,0.0,0.0,0.0,0.0,0.0,0.0,0.0,0.0,0.0,0.0,0.0,0.0,0.0,0.0,0.0,0.0,0.0,0.0,0.0,0.0,0.0,0.0,0.0,0.0,0.0,0.0,0.0,0.0,0.0,0.0,0.0,0.0,0.0,0.0,0.0,0.0,-3.7142,-3.8897,-3.9985,-4.0524,-4.0511,-3.9379,-3.7964,0.0,0.0,0.0,0.0,0.0,0.0,0.0,0.0,0.0,0.0,0.0,0.0,0.0,0.0,0.0,0.0,0.0,0.0,0.0,0.0,0.0,0.0,0.0,0.0,0.0,0.0,0.0,0.0,0.0,0.0,0.0,0.0,0.0,0.0,0.0,0.0,0.0,0.0,0.0,0.0,0.0,0.0,0.0,0.0,0.0,0.0,0.0,0.0,0.0,0.0,0.0,0.0,0.0,0.0,0.0,0.0,0.0,0.0,0.0,0.0,0.0,0.0,0.0,0.0,0.0,0.0,0.0,0.0,0.0,0.0,0.0,0.0,0.0,0.0,0.0,0.0,0.0,0.0,0.0,0.0,0.0,0.0,0.0,0.0,0.0,0.0,0.0,0.0,0.0,0.0,0.0,0.0,0.0,0.0,0.0,0.0,0.0,0.0,0.0,0.0,0.0,0.0,0.0,0.0,0.0,0.0,0.0,-3.546,-3.7555,-3.936,-4.028,-4.0759,-4.0798,-4.0043,-3.8694,-3.6776,0.0,0.0,0.0,0.0,0.0,0.0,0.0,0.0,0.0,0.0,0.0,0.0,0.0,0.0,0.0,0.0,0.0,0.0,0.0,0.0,0.0,0.0,0.0,0.0,0.0,0.0,0.0,0.0,0.0,0.0,0.0,0.0,0.0,0.0,0.0,0.0,0.0,0.0,-2.989,-3.2135,0.0,0.0,0.0,0.0,0.0,0.0,0.0,0.0,-3.8782,0.0,0.0,0.0,0.0,0.0,0.0,0.0,0.0,0.0,0.0,0.0,0.0,0.0,0.0,0.0,0.0,0.0,0.0,0.0,0.0,0.0,0.0,0.0,0.0,0.0,0.0,0.0,0.0,0.0,0.0,0.0,0.0,0.0,0.0,0.0,0.0,0.0,0.0,0.0,0.0,0.0,0.0,0.0,0.0,0.0,0.0,0.0,0.0,0.0,0.0,0.0,0.0,0.0,0.0,0.0,0.0,-3.5007,-3.6844,-3.862,-4.0398,-4.0779,-4.0937,-4.0858,-4.0103,-3.9077,-3.7727,0.0,0.0,0.0,0.0,0.0,0.0,0.0,0.0,0.0,0.0,0.0,0.0,0.0,0.0,0.0,0.0,0.0,0.0,0.0,0.0,0.0,0.0,0.0,0.0,0.0,0.0,0.0,0.0,0.0,0.0,0.0,0.0,0.0,0.0,0.0,0.0,0.0,0.0,0.0,-3.502,-3.6708,0.0,0.0,0.0,0.0,0.0,0.0,0.0,0.0,-4.1802,0.0,0.0,0.0,0.0,0.0,0.0,0.0,0.0,0.0,0.0,0.0,0.0,0.0,0.0,0.0,0.0,0.0,0.0,0.0,0.0,0.0,0.0,0.0,0.0,0.0,0.0,0.0,0.0,0.0,0.0,0.0,0.0,0.0,0.0,0.0,0.0,0.0,0.0,0.0,0.0,0.0,0.0,0.0,0.0,0.0,0.0,0.0,0.0,0.0,0.0,0.0,0.0,0.0,0.0,0.0,-3.5442,-3.7644,-3.9422,-4.0743,-4.0987,-4.1011,-4.0945,-4.0163,-3.8937,0.0,0.0,0.0,0.0,0.0,0.0,0.0,0.0,0.0,0.0,0.0,0.0,0.0,0.0,0.0,0.0,0.0,0.0,0.0,0.0,0.0,0.0,0.0,0.0,0.0,0.0,0.0,0.0,0.0,0.0,0.0,0.0,0.0,0.0,0.0,0.0,0.0,0.0,0.0,0.0,-3.7378,-3.9323,-4.1215,0.0,0.0,0.0,0.0,0.0,0.0,-4.4411,-4.3435,0.0,0.0,0.0,0.0,0.0,0.0,0.0,0.0,0.0,0.0,0.0,0.0,0.0,0.0,0.0,0.0,0.0,0.0,0.0,0.0,0.0,0.0,0.0,0.0,0.0,0.0,0.0,0.0,0.0,0.0,0.0,0.0,0.0,0.0,0.0,0.0,0.0,0.0,0.0,0.0,0.0,0.0,0.0,0.0,0.0,0.0,0.0,0.0,0.0,0.0,0.0,0.0,0.0,0.0,0.0,-3.6074,-3.854,-4.026,-4.1149,-4.1319,-4.1257,-4.1019,-4.0057,-3.8634,0.0,0.0,0.0,0.0,0.0,0.0,0.0,0.0,0.0,0.0,0.0,0.0,0.0,0.0,0.0,0.0,0.0,0.0,0.0,0.0,0.0,0.0,0.0,0.0,0.0,0.0,0.0,0.0,0.0,0.0,0.0,0.0,0.0,0.0,0.0,0.0,0.0,0.0,0.0,0.0,0.0,-4.1258,-4.3794,-4.3646,0.0,0.0,0.0,0.0,-4.6792,-4.6202,0.0,0.0,0.0,0.0,0.0,0.0,0.0,0.0,0.0,0.0,0.0,0.0,0.0,0.0,0.0,0.0,0.0,0.0,0.0,0.0,0.0,0.0,0.0,0.0,0.0,0.0,0.0,0.0,0.0,0.0,0.0,0.0,0.0,0.0,0.0,0.0,0.0,0.0,0.0,0.0,0.0,0.0,0.0,0.0,0.0,0.0,0.0,0.0,0.0,0.0,0.0,0.0,0.0,0.0,0.0,0.0,-3.8046,-3.987,-4.1234,-4.2151,-4.222,-4.1875,-4.1011,-3.9489,-3.8339,0.0,0.0,0.0,0.0,0.0,0.0,0.0,0.0,0.0,0.0,0.0,0.0,0.0,0.0,0.0,0.0,0.0,0.0,0.0,0.0,0.0,0.0,0.0,0.0,0.0,0.0,0.0,0.0,0.0,0.0,0.0,0.0,0.0,0.0,0.0,0.0,0.0,0.0,0.0,0.0,0.0,-4.1567,-4.4544,-4.4952,-4.501,0.0,0.0,-4.7202,-4.8739,-4.8753,0.0,0.0,0.0,0.0,0.0,0.0,0.0,0.0,0.0,0.0,0.0,0.0,0.0,0.0,0.0,0.0,0.0,0.0,0.0,0.0,0.0,0.0,0.0,0.0,0.0,0.0,0.0,0.0,0.0,0.0,0.0,0.0,0.0,0.0,0.0,0.0,0.0,0.0,0.0,0.0,0.0,0.0,0.0,0.0,0.0,0.0,0.0,0.0,0.0,0.0,0.0,0.0,0.0,0.0,0.0,-3.5436,-3.8481,-4.1012,-4.2318,-4.2376,-4.2806,-4.2616,-4.1685,-4.05,-3.9219,0.0,0.0,0.0,0.0,0.0,0.0,0.0,0.0,0.0,0.0,0.0,0.0,0.0,0.0,0.0,0.0,0.0,0.0,0.0,0.0,0.0,0.0,0.0,0.0,0.0,0.0,0.0,0.0,0.0,0.0,0.0,0.0,0.0,0.0,0.0,0.0,0.0,0.0,0.0,0.0,0.0,0.0,-4.6925,-4.735,0.0,0.0,0.0,-4.8975,-5.0288,0.0,0.0,0.0,0.0,0.0,0.0,0.0,0.0,0.0,0.0,0.0,0.0,0.0,0.0,0.0,0.0,0.0,0.0,0.0,0.0,0.0,0.0,0.0,0.0,0.0,0.0,0.0,0.0,0.0,0.0,0.0,0.0,0.0,0.0,0.0,0.0,0.0,0.0,0.0,0.0,0.0,0.0,0.0,0.0,0.0,0.0,0.0,0.0,0.0,0.0,0.0,0.0,0.0,0.0,0.0,0.0,0.0,-3.9131,-4.2159,-4.3487,-4.3007,-4.3521,-4.341,-4.2533,-4.1656,0.0,0.0,0.0,0.0,0.0,0.0,0.0,0.0,0.0,0.0,0.0,0.0,0.0,0.0,0.0,0.0,0.0,0.0,0.0,0.0,0.0,0.0,0.0,0.0,0.0,0.0,0.0,-3.3878,0.0,0.0,0.0,0.0,0.0,0.0,0.0,0.0,0.0,0.0,0.0,0.0,0.0,0.0,-4.5394,-4.8715,-4.9454,-5.0222,0.0,0.0,-5.0601,-5.1417,-5.1092,-5.0003,0.0,0.0,0.0,0.0,0.0,0.0,0.0,0.0,0.0,0.0,0.0,0.0,0.0,0.0,0.0,0.0,0.0,0.0,0.0,0.0,0.0,0.0,0.0,0.0,0.0,0.0,0.0,0.0,0.0,0.0,0.0,0.0,0.0,0.0,0.0,0.0,0.0,0.0,0.0,0.0,0.0,0.0,0.0,0.0,0.0,0.0,0.0,0.0,0.0,0.0,0.0,0.0,0.0,0.0,-3.7356,-4.0854,-4.3345,-4.4649,-4.4803,-4.4742,-4.4273,-4.3363,-4.2541,-4.159,0.0,0.0,0.0,0.0,0.0,0.0,0.0,0.0,0.0,0.0,0.0,0.0,0.0,0.0,0.0,0.0,0.0,0.0,0.0,0.0,0.0,0.0,0.0,0.0,0.0,0.0,0.0,0.0,0.0,0.0,0.0,0.0,0.0,0.0,0.0,0.0,0.0,0.0,0.0,0.0,0.0,-4.5519,-4.8807,-5.0488,-5.1299,0.0,-5.1713,-5.2121,-5.1922,-5.2156,-5.1748,-5.0114,0.0,0.0,0.0,0.0,0.0,0.0,0.0,0.0,0.0,0.0,0.0,0.0,0.0,0.0,0.0,0.0,0.0,0.0,0.0,0.0,0.0,0.0,0.0,0.0,0.0,0.0,0.0,0.0,0.0,0.0,0.0,0.0,0.0,0.0,0.0,0.0,0.0,0.0,0.0,0.0,0.0,0.0,0.0,0.0,0.0,0.0,0.0,0.0,0.0,0.0,0.0,0.0,0.0,-3.7881,-4.0994,-4.3946,-4.5248,-4.4915,-4.5372,-4.5176,-4.4275,-4.3938,-4.3138,0.0,0.0,0.0,0.0,0.0,0.0,0.0,0.0,0.0,0.0,0.0,0.0,0.0,0.0,0.0,0.0,0.0,0.0,0.0,0.0,0.0,0.0,0.0,0.0,0.0,0.0,0.0,0.0,-4.3882,-4.4089,-4.1506,0.0,0.0,0.0,0.0,0.0,0.0,0.0,0.0,0.0,0.0,-4.7005,-5.077,-5.1372,0.0,0.0,-5.3014,-5.2928,-5.3304,-5.3049,-5.2267,-5.0717,-4.9173,0.0,0.0,0.0,0.0,0.0,0.0,0.0,0.0,0.0,0.0,0.0,0.0,0.0,0.0,0.0,0.0,0.0,0.0,0.0,0.0,0.0,0.0,0.0,0.0,0.0,0.0,0.0,0.0,0.0,0.0,0.0,0.0,0.0,0.0,0.0,0.0,0.0,0.0,0.0,0.0,0.0,0.0,0.0,0.0,0.0,0.0,0.0,0.0,0.0,0.0,0.0,0.0,-3.8468,-4.096,-4.4209,-4.5694,-4.5216,-4.5772,-4.5791,-4.5188,-4.517,-4.4472,0.0,0.0,0.0,0.0,0.0,0.0,0.0,0.0,0.0,0.0,0.0,0.0,0.0,0.0,0.0,0.0,0.0,0.0,0.0,0.0,0.0,0.0,0.0,0.0,0.0,0.0,0.0,0.0,-4.5568,-4.481,-4.1071,0.0,0.0,0.0,0.0,0.0,0.0,0.0,0.0,0.0,0.0,-4.8919,-5.2557,-5.2632,-5.2823,-5.4466,-5.404,-5.3672,-5.41,-5.3677,-5.3013,-5.2058,0.0,0.0,0.0,0.0,0.0,0.0,0.0,0.0,0.0,0.0,0.0,0.0,0.0,0.0,0.0,0.0,0.0,0.0,0.0,0.0,0.0,0.0,0.0,0.0,0.0,0.0,0.0,-3.066,0.0,0.0,-3.6043,0.0,0.0,0.0,0.0,0.0,0.0,0.0,0.0,0.0,0.0,0.0,0.0,0.0,0.0,0.0,0.0,0.0,0.0,0.0,0.0,0.0,0.0,-3.9073,-4.0917,-4.421,-4.5927,-4.605,-4.6015,-4.6033,-4.6054,-4.603,-4.5499,-4.4492,0.0,0.0,0.0,0.0,0.0,0.0,0.0,0.0,0.0,0.0,0.0,0.0,0.0,0.0,0.0,0.0,0.0,0.0,0.0,0.0,0.0,0.0,0.0,0.0,0.0,0.0,-4.3946,-4.4421,-4.3696,0.0,0.0,0.0,0.0,0.0,0.0,0.0,0.0,0.0,-4.773,-4.9193,-5.1031,-5.3981,-5.442,-5.4327,-5.4339,-5.4557,-5.4564,-5.3941,-5.4003,-5.4258,0.0,0.0,0.0,0.0,0.0,0.0,0.0,0.0,0.0,0.0,0.0,0.0,0.0,0.0,0.0,0.0,0.0,0.0,0.0,0.0,0.0,0.0,0.0,0.0,0.0,0.0,0.0,-3.1934,-3.6934,0.0,0.0,0.0,0.0,0.0,0.0,0.0,0.0,0.0,0.0,0.0,-3.6286,-3.5426,0.0,0.0,0.0,0.0,0.0,0.0,0.0,0.0,0.0,0.0,0.0,0.0,-3.9879,-4.1734,-4.4428,-4.589,-4.5974,-4.6045,-4.608,-4.6124,-4.5994,-4.515,-4.3518,0.0,0.0,0.0,0.0,0.0,0.0,0.0,0.0,0.0,0.0,0.0,0.0,0.0,0.0,0.0,0.0,0.0,0.0,0.0,0.0,0.0,0.0,0.0,0.0,0.0,-4.65,0.0,0.0,0.0,0.0,0.0,0.0,0.0,0.0,0.0,0.0,-4.4355,-4.7008,-4.9558,-5.0723,-5.2081,-5.415,-5.4414,-5.4543,0.0,0.0,0.0,0.0,0.0,0.0,0.0,0.0,0.0,0.0,0.0,0.0,0.0,0.0,-4.7296,-4.5435,-4.5423,-4.587,-4.6091,0.0,0.0,0.0,0.0,0.0,0.0,0.0,0.0,0.0,0.0,0.0,0.0,0.0,0.0,-3.5242,-4.0899,-4.0087,0.0,0.0,0.0,0.0,0.0,0.0,0.0,0.0,-3.9905,-3.912,-3.8067,-3.7665,-3.727,-3.6811,-3.6577,-3.5387,0.0,0.0,0.0,0.0,0.0,0.0,0.0,0.0,-4.0526,-4.2124,-4.4421,-4.5712,-4.588,-4.6021,-4.6073,-4.6034,-4.5861,-4.508,-4.3729,-4.2775,-4.1571,0.0,0.0,0.0,0.0,0.0,0.0,0.0,0.0,0.0,0.0,0.0,0.0,0.0,0.0,0.0,0.0,0.0,0.0,0.0,0.0,0.0,0.0,0.0,-4.7869,0.0,0.0,0.0,0.0,0.0,0.0,0.0,0.0,0.0,-4.5597,-4.7758,-5.0207,-5.279,-5.3515,-5.4368,-5.5744,0.0,0.0,0.0,0.0,0.0,0.0,0.0,-5.696,-5.7134,-5.7302,-5.7286,-5.6806,-5.6178,-5.5445,-5.4829,0.0,0.0,-5.0229,-4.986,-5.0223,-5.0483,-5.0636,-5.0712,-5.056,-5.0483,-5.0839,0.0,0.0,0.0,0.0,-2.722,0.0,0.0,0.0,-3.4695,-3.7697,0.0,-4.1091,0.0,0.0,0.0,0.0,-4.1975,-4.1493,0.0,0.0,-3.9708,-3.9203,-3.9042,-3.9658,-3.942,-3.8535,-3.8495,-3.8699,-3.8982,-3.7308,0.0,0.0,0.0,0.0,0.0,0.0,-4.1055,-4.2252,-4.4273,-4.5517,-4.5936,-4.5978,-4.5959,-4.5969,-4.5641,-4.5361,-4.5115,-4.4238,-4.3823,-4.3805,-4.1046,0.0,0.0,0.0,0.0,0.0,0.0,0.0,0.0,0.0,0.0,0.0,0.0,0.0,0.0,0.0,0.0,0.0,0.0,0.0,0.0,-4.6929,0.0,0.0,0.0,0.0,0.0,0.0,0.0,0.0,0.0,-4.8928,-4.9396,-5.1593,-5.4259,-5.7155,0.0,0.0,0.0,0.0,-5.8167,-5.8119,-5.8189,-5.8189,-5.8106,-5.8904,-5.9765,-6.0455,0.0,0.0,-6.0617,-5.9703,-5.9083,-5.8859,-5.9165,-5.8627,-5.5232,-5.4091,-5.387,-5.4533,-5.4466,-5.4245,-5.4237,-5.4191,-5.448,-3.0018,0.0,0.0,0.0,0.0,-2.9999,-3.1747,-3.3881,-3.5209,-3.8041,-4.1761,-4.1144,0.0,0.0,0.0,0.0,0.0,0.0,-4.1784,-4.1679,-4.1191,-4.0892,-4.0817,-4.0827,-4.0765,-4.0692,-4.052,-4.0538,-4.0713,-4.0479,-3.9874,-3.8901,0.0,0.0,0.0,0.0,-4.2915,-4.4346,-4.4997,-4.5742,-4.6675,-4.6042,-4.5634,-4.5522,-4.5361,-4.5382,-4.5583,-4.4878,-4.4782,-4.5507,-4.3765,0.0,0.0,0.0,0.0,0.0,0.0,0.0,0.0,0.0,0.0,0.0,0.0,0.0,0.0,0.0,0.0,0.0,0.0,0.0,-4.7251,-4.9137,-4.9449,0.0,0.0,0.0,0.0,0.0,0.0,0.0,0.0,0.0,-5.4337,-5.4975,-5.5844,0.0,0.0,-5.787,-5.8181,-5.8327,-5.85,-5.8807,-5.9077,0.0,-5.9677,-6.0403,-6.0999,-6.1201,-6.2424,-6.3121,-6.226,-6.2451,-6.2519,-6.1811,-6.1603,-6.133,-6.0966,-5.9659,-5.8857,-5.9035,-5.8804,-5.8747,-5.926,-5.8956,-5.886,-3.3044,-3.1246,-3.1088,-3.1154,-3.1555,-3.2673,-3.4203,-3.6037,-3.7216,-3.9534,-4.2503,-4.1742,-4.2344,-4.3797,-4.252,0.0,0.0,0.0,-4.1812,-4.1654,-4.1655,-4.16,-4.1461,-4.1813,-4.1963,-4.1853,-4.1544,-4.169,-4.2177,-4.2043,-4.2044,-4.2193,0.0,-4.2141,-4.2637,-4.3483,-4.4505,-4.5712,-4.6031,-4.6587,-4.7461,-4.6943,-4.6565,-4.6417,-4.6359,-4.6424,-4.6569,-4.648,-4.6678,-4.7324,-4.6281,-4.5156,0.0,0.0,0.0,0.0,0.0,0.0,0.0,0.0,0.0,0.0,0.0,-4.1478,-4.2753,0.0,0.0,0.0,-4.7336,-4.8547,-5.0315,-5.0779,0.0,0.0,0.0,0.0,0.0,0.0,0.0,-4.9514,-5.2768,-5.5789,-5.7838,-5.8413,-5.8856,-5.9555,-5.9601,-5.9592,-5.9475,0.0,-6.0041,-6.0338,-6.0619,-6.0936,-6.1435,-6.214,-6.2701,-6.3024,-6.3863,-6.4398,-6.3978,-6.4314,-6.4458,-6.4046,-6.3962,-6.4215,-6.4676,-6.3993,-6.314,-6.2375,-6.2048,-6.2122,-6.2714,-6.2187,-6.1945,-3.6229,-3.6038,-3.3349,-3.3345,-3.506,-3.5292,-3.7066,-3.9878,-4.017,-4.1771,-4.4046,-4.266,-4.3042,-4.4697,-4.3321,0.0,-4.1955,-4.1725,-4.138,-4.0865,-4.1503,-4.163,-4.1441,-4.2576,-4.2902,-4.246,-4.1972,-4.2317,-4.3379,-4.2523,-4.3212,-4.5329,-4.452,-4.4265,-4.4624,-4.523,-4.5923,-4.6719,-4.7186,-4.7685,-4.8161,-4.8179,-4.8161,-4.8086,-4.8105,-4.8049,-4.8025,-4.8635,-4.9111,-4.9302,-4.8694,-4.8399,-4.8388,0.0,0.0,0.0,0.0,0.0,0.0,0.0,0.0,0.0,0.0,0.0,0.0,0.0,0.0,-4.9127,-5.0456,0.0,-5.3772,-5.1988,0.0,0.0,0.0,-4.839,-4.9781,-5.0378,-5.1387,-5.3308,0.0,0.0,-6.0327,-6.1652,-6.2627,-6.3125,-6.2571,-6.2029,-6.1732,-6.1939,-6.2267,-6.2216,-6.2454,-6.278,-6.3179,-6.3866,-6.4499,-6.5184,-6.549,-6.5528,-6.5605,-6.5605,-6.5605,-6.5605,-6.6254,-6.6751,-6.6789,-6.6878,-6.6785,-6.4935,-6.4437,-6.4421,-6.4733,-6.4113,-6.3558,-3.6449,-3.7058,-3.7442,-3.7202,-3.6635,-3.8052,-3.9154,-4.008,-4.1601,-4.266,-4.3362,-4.3076,-4.2775,-4.2302,-4.181,-4.1516,-4.142,-4.123,-4.1383,-4.1781,-4.146,-4.1918,-4.2841,-4.2847,-4.3113,-4.3589,-4.3178,-4.331,-4.4048,-4.3571,-4.4406,-4.6326,-4.6295,-4.6248,-4.6289,-4.6663,-4.7386,-4.8474,-4.7974,-4.7818,-4.7969,-4.8086,-4.8102,-4.8028,-4.8133,-4.869,-4.974,-4.9468,-5.0198,-5.2046,-5.0945,-5.0028,-4.962,-4.7445,0.0,0.0,0.0,0.0,0.0,0.0,0.0,0.0,0.0,-4.5957,-4.7688,0.0,-5.1935,0.0,-5.3172,-5.3526,-5.3124,-5.3183,0.0,0.0,-5.2026,-5.2348,-5.1965,-5.3974,-5.5659,-5.6391,-5.9279,-6.17,-6.2877,-6.3454,-6.403,-6.4662,-6.3,-6.1724,-6.1655,-6.2291,-6.2738,-6.2824,-6.3572,-6.4272,-6.4405,-6.4825,-6.5444,-6.6254,-6.6407,-6.6598,-6.7171,-6.7324,-6.7324,-6.7286,-6.7439,-6.7591,-6.763,-6.7719,-6.7921,-6.7825,-6.6706,-6.5791,-6.6435,-6.5212,-6.4168,-3.768,-3.846,-3.9504,-3.9619,-3.9254,-3.9896,-4.0496,-4.1125,-4.2068,-4.2723,-4.2991,-4.2631,-4.2114,-4.1516,-4.1128,-4.0977,-4.0977,-4.1085,-4.14,-4.1747,-4.1933,-4.2354,-4.3015,-4.335,-4.3732,-4.4103,-4.3987,-4.4282,-4.4888,-4.4449,-4.5131,-4.6816,-4.6773,-4.7119,-4.7747,-4.8213,-4.8854,-4.9717,-4.9296,-4.9044,-4.8974,-4.9163,-4.9225,-4.9165,-4.9421,-4.9881,-5.0681,-5.072,-5.1197,-5.218,-5.1833,-5.1281,-5.0542,-4.8954,-4.7022,0.0,0.0,0.0,0.0,0.0,0.0,0.0,0.0,0.0,0.0,0.0,-5.3353,-5.4629,-5.4887,-5.4963,-5.4901,-5.4371,-5.4091,-5.4244,-5.4939,-5.5712,-5.6656,-5.848,-5.9845,-6.0605,-6.2914,-6.4731,-6.5293,-6.5313,-6.5373,-6.5608,-6.3846,-6.2459,-6.2496,-6.2869,-6.3297,-6.3729,-6.4329,-6.5034,-6.5513,-6.6129,-6.6674,-6.7133,-6.7247,-6.74,-6.7821,-6.7897,-6.7897,-6.7935,-6.8203,-6.847,-6.8508,-6.8814,-6.9164,-6.9122,-6.8329,-6.7621,-6.7904,-6.6675,-6.5607,-3.9239,-3.9922,-4.0451,-4.1179,-4.194,-4.1286,-4.1572,-4.2433,-4.2192,-4.2304,-4.2616,-4.1924,-4.149,-4.1321,-4.0977,-4.0762,-4.07,-4.1103,-4.1325,-4.1407,-4.2332,-4.2812,-4.2783,-4.39,-4.4449,-4.4399,-4.4667,-4.52,-4.5914,-4.5335,-4.578,-4.6999,-4.6874,-4.7481,-4.89,-4.9532,-5.0052,-5.0506,-5.0632,-5.0563,-5.0336,-5.0598,-5.0726,-5.0675,-5.1023,-5.1206,-5.1316,-5.2046,-5.2159,-5.1691,-5.2277,-5.2362,-5.1628,-5.0087,-4.8782,0.0,-4.6287,0.0,0.0,0.0,0.0,0.0,0.0,0.0,0.0,-5.2862,-5.4226,-5.6416,-5.6122,-5.6366,-5.7704,-5.5855,-5.5427,-5.7625,-5.7718,-5.8736,-6.1681,-6.2598,-6.3465,-6.4739,-6.6291,-6.7276,-6.7277,-6.6894,-6.6363,-6.5895,-6.4465,-6.3431,-6.355,-6.3637,-6.3975,-6.4817,-6.511,-6.5813,-6.6618,-6.74,-6.7859,-6.7973,-6.805,-6.8088,-6.8279,-6.8317,-6.8279,-6.8317,-6.889,-6.9349,-6.9349,-6.9922,-7.0209,-6.9852,-6.931,-6.8935,-6.8803,-6.7803,-6.7,-3.9823,-4.0726,-4.1428,-4.19,-4.2221,-4.2594,-4.2921,-4.3138,-4.274,-4.2199,-4.1674,-4.1803,-4.142,-4.072,-4.1117,-4.0965,-4.0539,-4.0607,-4.1223,-4.2064,-4.2334,-4.2968,-4.3944,-4.4339,-4.4804,-4.539,-4.5459,-4.5915,-4.6667,-4.6542,-4.7024,-4.7942,-4.8089,-4.8646,-4.9548,0.0,0.0,0.0,-5.0558,-5.0471,-5.0465,-5.0741,-5.0902,-5.1015,-5.1128,0.0,-5.2265,-5.2498,-5.3158,-5.4329,-5.3865,0.0,0.0,0.0,0.0,0.0,0.0,0.0,0.0,0.0,0.0,0.0,-5.2389,-5.346,-5.3713,-5.5396,-5.699,-5.8097,-5.7478,-5.7667,-5.9336,-5.8532,-5.8365,-5.9528,-6.022,-6.1133,-6.2497,-6.334,-6.4438,-6.6091,-6.6847,-6.7467,-6.8035,-6.7025,-6.6127,-6.5914,-6.4576,-6.3705,-6.3971,-6.433,-6.4821,-6.5646,-6.6573,-6.7305,-6.763,-6.7821,-6.8279,-6.8738,-6.8967,-6.9196,-6.9693,-6.9846,-6.9922,-6.9884,-7.0075,-7.019,-7.019,-7.0304,-7.0362,-6.9891,-6.946,-6.8959,-6.8595,-6.7555,-6.6581,-4.0524,-4.1324,-4.2159,-4.2631,0.0,-4.3176,-4.3359,-4.3394,-4.3105,-4.2498,-4.1639,-4.1543,-4.1244,-4.0783,-4.1059,-4.1254,-4.1351,-4.1476,-4.1988,-4.2915,-4.3179,-4.3642,-4.4293,-4.4927,-4.5442,-4.5865,-4.6293,-4.6945,-4.7761,-4.7518,-4.7816,-4.8661,-4.8624,-4.8846,-4.9332,-4.9632,-4.9946,-5.0385,-5.0426,-5.0447,-5.0433,-5.1163,-5.1551,-5.1625,-5.2222,0.0,0.0,0.0,0.0,0.0,0.0,0.0,0.0,-5.4165,0.0,-5.237,-5.2259,-5.2194,-5.2107,-5.2956,-5.394,-5.4828,-5.6229,-5.6652,-5.5674,-5.7446,-5.8824,-5.9241,-5.9241,-5.9804,-6.1039,-6.0539,-6.0601,-6.1911,-6.2407,-6.32,-6.4482,-6.5232,-6.6083,-6.7262,-6.7505,-6.7761,-6.8345,-6.7235,-6.6254,-6.5923,-6.4935,-6.4364,-6.4898,-6.5273,-6.5755,-6.6764,-6.7807,-6.8547,-6.8585,-6.8929,-6.9234,-6.9693,-6.9807,-6.996,-7.0304,-7.0419,-7.0533,-7.0916,-7.103,-7.1145,-7.1603,-7.168,-7.1471,-7.0758,-7.0127,-6.9746,-6.9458,-6.8254,-6.71,-4.1434,-4.1938,-4.274,-4.3142,-4.3214,-4.3322,-4.3394,-4.3323,-4.3105,0.0,0.0,-4.1356,-4.1047,-4.0995,-4.1138,-4.1553,-4.2068,-4.2433,-4.3011,-4.3673,-4.4232,-4.4517,-4.4652,-4.5545,-4.6147,-4.6318,-4.7035,-4.7879,-4.8713,-4.8311,-4.8456,-4.9019,-4.8878,-4.8847,-4.8959,-4.9257,-4.9607,-5.0061,-5.0336,-5.051,-5.0593,-5.1648,-5.2261,-5.2363,-5.3383,-5.3672,-5.3081,-5.3671,-5.4083,-5.4156,-5.4645,-5.532,-5.6071,-5.5959,-5.5633,-5.5152,-5.5738,-5.6014,-5.576,-5.6832,-5.7866,-5.8782,-5.9244,-5.898,-5.7687,-5.9143,-6.0113,-6.0009,-6.0871,-6.1738,-6.2463,-6.2037,-6.2325,-6.3872,-6.4057,-6.4737,-6.6374,-6.6893,-6.7392,-6.8337,-6.8207,-6.7965,-6.8091,-6.712,-6.6282,-6.5754,-6.5264,-6.5527,-6.6473,-6.6774,-6.703,-6.7948,-6.8852,-6.9387,-6.9502,-6.9884,-7.0419,-7.0572,-7.0648,-7.0686,-7.0839,-7.0877,-7.1145,-7.1794,-7.1909,-7.2215,-7.2788,-7.2864,-7.2695,-7.1836,-7.1137,-7.0705,-7.0683,-6.9568,-6.8394,-4.2553,-4.2737,-4.3069,-4.3178,-4.3214,-4.3359,-4.3287,-4.3104,-4.2691,-4.2175,-4.1657,-4.1657,-4.1331,-4.0863,-4.1707,-4.1905,-4.1546,-4.2702,-4.3441,-4.4009,-4.4689,-4.532,-4.585,-4.6315,-4.6788,-4.7284,-4.7647,-4.8161,-4.8781,-4.8978,-4.9113,-4.9085,-4.9052,-4.909,-4.916,-4.9321,-4.9588,-4.9936,-5.0201,-5.0748,-5.1576,-5.1966,-5.2605,-5.3419,-5.3711,-5.4175,-5.4804,-5.4913,-5.5599,-5.6918,-5.7029,-5.7284,-5.7735,-5.7666,-5.7423,-5.6978,-5.7036,-5.696,-5.6677,-5.7573,-5.8618,-5.958,-5.9321,-5.9214,-5.9517,-6.0378,-6.0808,-6.0563,-6.1317,-6.2109,-6.2748,-6.2711,-6.3088,-6.4068,-6.4257,-6.4898,-6.6404,-6.6623,-6.7259,-6.865,-6.863,-6.8007,-6.7428,-6.6584,-6.582,-6.5188,-6.576,-6.6812,-6.8765,-6.9208,-6.8864,-6.9082,-6.9693,-7.019,-7.0266,-7.0304,-7.0724,-7.1412,-7.1489,-7.1718,-7.2329,-7.2406,-7.252,-7.2788,-7.2826,-7.2902,-7.3093,-7.2979,-7.292,-7.2431,-7.2084,-7.1845,-7.1591,-7.1107,-7.0731,-4.288,-4.2956,-4.3068,-4.3105,-4.3032,-4.3068,-4.2956,-4.2691,-4.2374,-4.2044,-4.1657,-4.1356,-4.1302,-4.1497,-4.2207,-4.2845,-4.3404,-4.4104,-4.4773,-4.5411,-4.5787,-4.6212,-4.6611,-4.7044,-4.7512,-4.7965,-4.8421,-4.8844,-4.9271,-4.9483,-4.9608,-4.9646,-4.9499,-4.9446,-4.9483,-4.9506,-4.9881,-5.0523,-5.0321,-5.0739,-5.1885,-5.253,-5.3564,-5.5042,-5.5638,-5.6156,-5.661,-5.7368,-5.8121,-5.876,-5.9026,-5.9408,-6.0035,-5.9549,-5.9234,-5.9147,-5.9092,-5.8973,-5.8859,-5.9203,-5.9847,-6.0703,-6.0311,-6.0211,-6.068,-6.0943,-6.113,-6.1052,-6.1841,-6.2557,-6.2855,-6.3308,-6.3761,-6.4254,-6.4253,-6.4662,-6.567,-6.6095,-6.671,-6.7784,-6.8037,-6.7737,-6.6874,-6.6462,-6.615,-6.5908,-6.7127,-6.8921,-7.0233,-7.0533,-7.0724,-7.1145,-7.1221,-7.1107,-7.1107,-7.1107,-7.1259,-7.1675,-7.2062,-7.252,-7.2979,-7.3017,-7.3208,-7.3552,-7.3667,-7.3858,-7.4201,-7.4354,-7.4137,-7.3686,-7.3229,-7.2954,-7.309,-7.3199,-7.268,-4.292,-4.2918,-4.2992,-4.2918,-4.2768,-4.2652,-4.249,-4.221,-4.2002,-4.1902,-4.1868,-4.1325,-4.1566,-4.2439,-4.2905,-4.3804,-4.4952,-4.5528,-4.6138,-4.666,-4.6972,-4.7168,-4.744,-4.7849,-4.8198,-4.8566,-4.9048,-4.9431,-4.9665,-4.983,-5.0035,-5.0252,-5.0279,-5.0307,-5.0307,-5.0364,-5.0806,-5.1485,-5.1089,-5.136,-5.2548,-5.332,-5.4621,-5.6495,-5.7541,-5.8265,-5.8679,-5.9988,-6.0642,-6.0483,-6.0769,-6.1127,-6.153,-6.0839,-6.0468,-6.061,-6.0506,-6.0512,-6.059,-6.0254,-6.0411,-6.13,-6.089,-6.0796,-6.1342,-6.1336,-6.1336,-6.1619,-6.2417,-6.2907,-6.2981,-6.3435,-6.385,-6.4012,-6.393,-6.4252,-6.5142,-6.558,-6.6208,-6.7135,-6.7664,-6.7546,-6.679,-6.6731,-6.6996,-6.7465,-6.8935,-7.0119,-7.0648,-7.1412,-7.2291,-7.2788,-7.2367,-7.1833,-7.1909,-7.1985,-7.2062,-7.2172,-7.2788,-7.3323,-7.3556,-7.3628,-7.3781,-7.4393,-7.4507,-7.4698,-7.531,-7.5424,-7.5241,-7.479,-7.4334,-7.4104,-7.452,-7.4711,-7.4285,-4.3069,-4.2804,-4.284,-4.2688,-4.2418,-4.218,-4.1924,-4.1692,-4.1391,-4.1821,-4.2552,-4.2253,-4.2682,-4.3665,-4.4073,-4.4576,-4.5152,-4.6426,-4.7008,-4.7124,-4.7999,-4.8421,-4.8421,-4.864,-4.8781,-4.8986,-4.937,-4.9646,-4.9797,-5.0076,-5.0456,-5.0988,-5.1726,-5.2113,-5.2113,-5.226,-5.2579,-5.2974,-5.2955,-5.3359,-5.4227,-5.4448,-5.5486,-5.7398,-5.8412,-5.9654,-6.1127,-6.2112,-6.2522,-6.2497,-6.2283,-6.1834,-6.113,-6.0757,-6.0585,-6.0387,-6.0379,-6.0495,-6.0751,-5.9619,-5.951,-6.0552,-6.0174,-6.0259,-6.1312,-6.1398,-6.1592,-6.2068,-6.2835,-6.316,-6.2999,-6.3073,-6.3205,-6.3252,-6.3242,-6.3689,-6.5004,-6.5331,-6.6109,-6.8086,-6.832,-6.7932,-6.703,-6.7495,-6.8337,-6.8624,-6.937,-7.0304,-7.1412,-7.2406,-7.3284,-7.3667,-7.2826,-7.2291,-7.2711,-7.2902,-7.3093,-7.3705,-7.401,-7.4354,-7.4775,-7.5042,-7.5271,-7.5004,-7.5271,-7.5348,-7.5386,-7.5501,-7.5501,-7.5356,-7.5169,-7.5132,-7.5171,-7.536,-7.5095,-4.2957,-4.2649,-4.253,-4.2287,-4.1959,-4.2044,-4.1874,-4.1604,-4.1823,-4.245,-4.3406,-4.3255,-4.3675,-4.4553,-4.4869,-4.534,-4.5988,-4.706,-4.7548,-4.7548,-4.8153,-4.8569,-4.885,-4.8952,-4.915,-4.9529,-4.9759,-5.0199,-5.0745,-5.1345,-5.1751,-5.2068,-5.2437,-5.2628,-5.2752,-5.2824,-5.3212,-5.3918,-5.4439,-5.5189,-5.6078,-5.5821,-5.699,-5.965,-6.033,-6.1314,-6.2864,-6.3348,-6.347,-6.3308,-6.2698,-6.2336,-6.229,-6.1684,-6.1452,-6.1573,-6.1292,-6.1117,-6.116,-6.0821,-6.0626,-6.0848,-6.1161,-6.1484,-6.1545,-6.1898,-6.2341,-6.262,-6.2962,-6.3099,-6.3002,-6.3002,-6.3002,-6.3076,-6.3395,-6.4217,-6.5545,-6.6137,-6.7072,-6.8547,-6.8825,-6.8459,-6.7743,-6.8033,-6.8635,-6.9294,-7.031,-7.168,-7.2444,-7.359,-7.4736,-7.5386,-7.5042,-7.4393,-7.3972,-7.3705,-7.3896,-7.4197,-7.4622,-7.5195,-7.5348,-7.5501,-7.5462,-7.5501,-7.5539,-7.5539,-7.5462,-7.5501,-7.5501,-7.558,-7.5964,-7.6082,-7.6081,-7.65,-7.654,-4.2995,-4.2685,-4.2665,-4.2483,-4.2149,-4.2278,-4.2334,-4.2255,-4.2384,-4.32,-4.4354,-4.4261,-4.4729,-4.5523,-4.5717,-4.6148,-4.6793,-4.7524,-4.7875,-4.7915,-4.8345,-4.8818,-4.9188,-4.9277,-4.9558,-4.9906,-5.0038,-5.0621,-5.1534,-5.2602,-5.3135,-5.3253,-5.3445,-5.3667,-5.3776,-5.3797,-5.4303,-5.5209,-5.5902,-5.6969,-5.8286,-5.7986,-5.8948,-6.1361,-6.182,-6.265,-6.3993,-6.422,-6.409,-6.3701,-6.3206,-6.3025,-6.313,-6.241,-6.204,-6.2151,-6.177,-6.1534,-6.1582,-6.1559,-6.1523,-6.1542,-6.2181,-6.2401,-6.2206,-6.2573,-6.2953,-6.3014,-6.3099,-6.3099,-6.3051,-6.3051,-6.3124,-6.349,-6.3984,-6.4757,-6.6007,-6.6731,-6.7584,-6.8988,-6.9261,-6.9269,-6.8977,-6.8905,-6.9043,-7.0319,-7.1799,-7.3284,-7.3705,-7.4889,-7.6036,-7.6609,-7.6838,-7.657,-7.5462,-7.508,-7.4927,-7.4924,-7.5386,-7.5386,-7.5501,-7.5501,-7.5501,-7.5501,-7.5653,-7.573,-7.5692,-7.5615,-7.6079,-7.6157,-7.6539,-7.6921,-7.6921,-7.7492,-7.7529,-4.3391,-4.2874,-4.3324,-4.3453,-4.3483,-4.3195,-4.3404,-4.3809,-4.312,-4.3774,-4.5401,-4.5315,-4.5899,-4.7011,-4.6702,-4.6778,-4.7205,-4.7788,-4.8035,-4.8111,-4.8887,-4.9352,-4.9415,-4.9769,-4.9959,-5.0024,-5.0278,-5.0864,-5.1928,-5.3426,-5.428,-5.4381,-5.5152,-5.5691,-5.5652,-5.5689,-5.63,-5.6985,-5.7373,-5.8636,-6.0888,-6.1217,-6.1393,-6.1754,-6.2426,-6.3203,-6.3975,-6.4701,-6.4668,-6.363,-6.4173,-6.4116,-6.3194,-6.262,-6.21,-6.1612,-6.1214,-6.1336,-6.19,-6.1412,-6.1456,-6.2572,-6.2472,-6.2372,-6.2925,-6.3073,-6.3147,-6.3194,-6.3336,-6.3336,-6.3242,-6.3194,-6.3511,-6.448,-6.4659,-6.5277,-6.6378,-6.6608,-6.7605,-6.9208,-6.9702,-7.0042,-7.1121,-7.0119,-7.0572,-7.1942,-7.2936,-7.3662,-7.5111,-7.6109,-7.6723,-7.7029,-7.7487,-7.7908,-7.7717,-7.6876,-7.6494,-7.6227,-7.5803,-7.5577,-7.5501,-7.5501,-7.5539,-7.573,-7.6303,-7.6418,-7.6074,-7.6308,-7.7074,-7.738,-7.7531,-7.776,-7.7722,-7.7836,-7.7949,-4.3214,-4.2609,-4.2982,-4.3144,-4.323,-4.3815,-4.4325,-4.4592,-4.4633,-4.5341,-4.6359,-4.6218,-4.6669,-4.7736,-4.7615,-4.7331,-4.7169,-4.7747,-4.8075,-4.8194,-4.8922,-4.9384,-4.9692,-4.9797,-4.9971,-5.0139,-5.0864,-5.2026,-5.3514,-5.4728,-5.5325,-5.5415,-5.5797,-5.5968,-5.6117,-5.6621,-5.7079,-5.7537,-5.8963,-6.0352,-6.1376,-6.2881,-6.3502,-6.2874,-6.3249,-6.3842,-6.454,-6.4321,-6.4191,-6.4243,-6.3767,-6.3406,-6.3366,-6.3201,-6.2986,-6.2717,-6.241,-6.2604,-6.3331,-6.3258,-6.3246,-6.3774,-6.3664,-6.3305,-6.3268,-6.3194,-6.3194,-6.3336,-6.3617,-6.3792,-6.3835,-6.3749,-6.383,-6.4387,-6.4953,-6.5448,-6.6143,-6.6673,-6.7619,-6.9046,-6.9798,-7.0467,-7.1107,-7.1526,-7.2304,-7.3328,-7.4678,-7.5749,-7.6492,-7.7548,-7.829,-7.8481,-7.9016,-7.9398,-7.8863,-7.8099,-7.7411,-7.6838,-7.6453,-7.6303,-7.6227,-7.6265,-7.6341,-7.6838,-7.7296,-7.7451,-7.7222,-7.7187,-7.7951,-7.7989,-7.818,-7.8522,-7.8482,-7.8752,-7.879,-4.3503,-4.3396,-4.387,-4.4235,-4.4574,-4.5296,-4.5809,-4.6088,-4.6175,-4.6653,-4.7268,-4.7106,-4.7453,-4.8053,-4.8105,-4.7897,-4.756,-4.8028,-4.8265,-4.8495,-4.909,-4.9506,-4.9778,-4.9917,-5.019,-5.0818,-5.2064,-5.3415,-5.4597,-5.5504,-5.5994,-5.6135,-5.6093,-5.6078,-5.6287,-5.7211,-5.786,-5.8445,-6.036,-6.1676,-6.2297,-6.3651,-6.4309,-6.3902,-6.3708,-6.3881,-6.4381,-6.4077,-6.4072,-6.4359,-6.38,-6.3536,-6.3879,-6.3958,-6.4002,-6.4066,-6.3959,-6.3984,-6.4376,-6.4567,-6.4513,-6.429,-6.4299,-6.4039,-6.3511,-6.3527,-6.3617,-6.3749,-6.4009,-6.4292,-6.4558,-6.4747,-6.486,-6.4935,-6.5426,-6.5992,-6.6581,-6.7414,-6.8507,-6.9818,-7.0539,-7.1037,-7.1612,-7.2668,-7.3755,-7.4711,-7.648,-7.7545,-7.8369,-7.8995,-7.9665,-7.9704,-7.9704,-7.9665,-7.9283,-7.8672,-7.7719,-7.7105,-7.6912,-7.6838,-7.6953,-7.7029,-7.7335,-7.787,-7.8252,-7.8444,-7.8484,-7.8332,-7.8332,-7.8407,-7.8863,-7.9358,-7.947,-7.9738,-7.9548,-4.4272,-4.5143,-4.619,-4.6792,-4.7296,-4.74,-4.7893,-4.8163,-4.7537,-4.7535,-4.8038,-4.7995,-4.8053,-4.8252,-4.8345,-4.8379,-4.8524,-4.8715,-4.8825,-4.8945,-4.9461,-4.9769,-4.989,-5.0177,-5.0918,-5.1928,-5.3665,-5.4591,-5.5007,-5.5733,-5.6239,-5.6446,-5.6343,-5.6432,-5.6356,-5.7976,-5.8935,-5.9819,-6.1404,-6.2888,-6.417,-6.3852,-6.3852,-6.4263,-6.3753,-6.3467,-6.3522,-6.4161,-6.4446,-6.4457,-6.4578,-6.4785,-6.4606,-6.4725,-6.5041,-6.5287,-6.5509,-6.5334,-6.4939,-6.4905,-6.4631,-6.4374,-6.4241,-6.4162,-6.4004,-6.4212,-6.433,-6.4214,-6.4482,-6.4875,-6.5366,-6.5887,-6.6199,-6.6357,-6.6222,-6.6706,-6.7737,-6.8717,-6.9827,-7.1025,-7.1374,-7.211,-7.2957,-7.3713,-7.4771,-7.6775,-7.8065,-7.8998,-7.9984,-8.0298,-8.039,-8.0238,-7.9971,-7.9704,-7.9474,-7.9169,-7.8139,-7.73,-7.7258,-7.722,-7.7526,-7.7678,-7.8137,-7.8672,-7.9055,-7.9285,-7.9438,-7.9284,-7.9203,-7.9312,-7.9809,-7.9923,-7.992,-7.9958,-7.9999,-4.4984,-4.5469,-4.6502,-4.7236,-4.7686,-4.8016,-4.8408,-4.8746,-4.8381,-4.842,-4.8605,-4.8532,-4.8635,-4.8898,-4.9139,-4.9332,-4.9448,-4.9682,-4.9644,-4.9476,-4.9754,-5.0076,-5.0359,-5.0846,-5.1959,-5.3413,-5.4169,-5.488,-5.5504,-5.5862,-5.6281,-5.6839,-5.683,-5.7456,-5.8557,-5.9552,-6.0388,-6.1389,-6.2834,-6.3643,-6.3564,-6.3782,-6.3821,-6.3552,-6.3796,-6.3924,-6.38,-6.3885,-6.4215,-6.4787,-6.4294,-6.4134,-6.4446,-6.4967,-6.5411,-6.5595,-6.5356,-6.5468,-6.5634,-6.4967,-6.4691,-6.4885,-6.4745,-6.4483,-6.4407,-6.4593,-6.4701,-6.4628,-6.4942,-6.5359,-6.5987,-6.6078,-6.6173,-6.6001,-6.6471,-6.717,-6.8272,-6.9352,-6.9941,-7.0107,-7.0954,-7.2165,-7.3588,-7.4794,-7.6683,-7.8236,-7.9516,-8.0586,-8.0708,-8.0681,-8.02,-7.978,-7.9665,-7.9589,-7.9169,-7.9054,-7.8672,-7.8101,-7.7984,-7.7908,-7.8137,-7.8519,-7.8978,-7.9323,-7.9705,-7.9973,-8.0085,-8.0081,-7.9803,-7.9761,-7.9874,-7.9912,-7.9946,-7.9988,-8.003,-4.6181,-4.654,-4.7401,-4.8022,-4.8459,-4.8775,-4.8987,-4.9155,-4.8956,-4.8993,-4.9061,-4.8986,-4.9182,-4.9469,-4.9738,-4.9982,-5.013,-5.0373,-5.0506,-5.0462,-5.0281,-5.0521,-5.1104,-5.2193,-5.3161,-5.4309,-5.4823,-5.5306,-5.5864,-5.5938,-5.6304,-5.6982,-5.7333,-5.8104,-5.9647,-6.0858,-6.1837,-6.2478,-6.3521,-6.3934,-6.3503,-6.3571,-6.3571,-6.3427,-6.3876,-6.4131,-6.4139,-6.3953,-6.4143,-6.4592,-6.4278,-6.441,-6.5164,-6.5791,-6.6162,-6.6245,-6.6147,-6.6075,-6.5988,-6.5298,-6.4935,-6.5275,-6.5308,-6.5145,-6.5027,-6.5194,-6.548,-6.5144,-6.5597,-6.605,-6.627,-6.6792,-6.6756,-6.6769,-6.7242,-6.8136,-6.9347,-7.0149,-7.093,-7.121,-7.1904,-7.307,-7.4846,-7.6552,-7.8325,-7.9365,-8.0477,-8.1207,-8.0931,-8.0681,-8.0195,-7.978,-7.9704,-7.9398,-7.8787,-7.8787,-7.9016,-7.8901,-7.8825,-7.8825,-7.8901,-7.9398,-7.9856,-7.9896,-8.0163,-8.0046,-8.0116,-8.0034,-7.987,-7.9946,-7.9903,-7.9903,-7.9903,-7.9903,-7.9946,-4.7748,-4.8372,-4.8731,-4.9264,-4.9792,-4.9721,-4.9665,-4.9655,-4.9384,-4.9315,-4.9408,-4.9453,-4.9627,-4.9884,-5.0152,-5.0298,-5.0529,-5.0913,-5.1347,-5.1663,-5.147,-5.1429,-5.2221,-5.351,-5.4271,-5.4695,-5.5537,-5.5904,-5.5843,-5.6136,-5.6405,-5.7274,-5.8055,-5.8858,-6.021,-6.2003,-6.2873,-6.2977,-6.3703,-6.3955,-6.3676,-6.3192,-6.3154,-6.3644,-6.3802,-6.4078,-6.4403,-6.4229,-6.4165,-6.4439,-6.47,-6.5403,-6.6482,-6.6988,-6.712,-6.7235,-6.7456,-6.6711,-6.6063,-6.5615,-6.5537,-6.5465,-6.59,-6.6223,-6.5665,-6.6231,-6.6469,-6.5781,-6.6419,-6.6833,-6.6718,-6.7359,-6.8244,-6.8629,-6.8833,-6.9805,-7.1449,-7.1252,-7.1886,-7.327,-7.3619,-7.4139,-7.6659,-7.8091,-7.9081,-7.9932,-8.0757,-8.0983,-8.0869,-8.0646,-8.0467,-8.0162,-7.978,-7.9551,-7.9054,-7.9361,-7.9552,-7.959,-7.9514,-7.9514,-7.9589,-7.9972,-8.0201,-8.0277,-8.0275,-8.0154,-8.0072,-7.9988,-7.9903,-7.9941,-7.9898,-7.9898,-7.9898,-7.9941,-7.9979,-4.8629,-4.9105,-4.9739,-5.0099,-5.023,-5.0111,-5.0038,-5.0038,-4.9819,-4.9738,-4.9781,-4.9949,-4.9999,-5.0135,-5.0444,-5.0598,-5.0871,-5.1554,-5.1979,-5.2182,-5.2704,-5.3099,-5.3584,-5.4073,-5.4641,-5.5222,-5.6045,-5.6098,-5.5667,-5.6774,-5.7709,-5.8489,-5.9278,-6.0704,-6.2682,-6.3161,-6.355,-6.368,-6.3746,-6.3394,-6.2728,-6.2568,-6.2762,-6.327,-6.3492,-6.3801,-6.4292,-6.442,-6.4382,-6.4448,-6.5096,-6.5927,-6.6852,-6.7158,-6.7272,-6.7315,-6.6716,-6.6212,-6.5841,-6.5495,-6.558,-6.6084,-6.6155,-6.623,-6.6679,-6.6987,-6.7075,-6.6833,-6.7064,-6.7552,-6.8321,-6.8552,-6.9283,-7.086,-7.0997,-7.1055,-7.1458,-7.2448,-7.3423,-7.3505,-7.4932,-7.6471,-7.7823,-7.9015,-7.9932,-8.0463,-8.079,-8.0931,-8.075,-8.0576,-8.043,-8.0047,-7.9742,-7.9665,-7.9665,-7.9934,-8.0087,-8.0163,-8.0125,-8.0125,-8.0125,-8.024,-8.0315,-8.0275,-8.0195,-8.0034,-8.003,-7.9946,-7.9903,-7.9898,-7.9898,-7.9898,-7.9898,-7.9898,-7.9973,-4.957,-4.9775,-5.0253,-5.0385,-5.0363,-5.0252,-5.0283,-5.0312,-5.0101,-5.0089,-5.0236,-5.0306,-5.0412,-5.0478,-5.0682,-5.1026,-5.1463,-5.2007,-5.2641,-5.3427,-5.4103,-5.4417,-5.4549,-5.4902,-5.56,-5.6026,-5.6843,-5.6907,-5.6766,-5.781,-5.8748,-5.9636,-6.0654,-6.2056,-6.3116,-6.3682,-6.3474,-6.3237,-6.3099,-6.2662,-6.1994,-6.2405,-6.271,-6.3163,-6.3465,-6.399,-6.4406,-6.4613,-6.4604,-6.4609,-6.5238,-6.6123,-6.6638,-6.6863,-6.6941,-6.6866,-6.6137,-6.5728,-6.5425,-6.5251,-6.5664,-6.6383,-6.6461,-6.6959,-6.7533,-6.7556,-6.7286,-6.7215,-6.7449,-6.8129,-6.8975,-6.9563,-7.0766,-7.2188,-7.2562,-7.2464,-7.2272,-7.3137,-7.426,-7.514,-7.647,-7.7982,-7.9095,-7.9952,-8.0414,-8.0683,-8.076,-8.0745,-8.0578,-8.0505,-8.0391,-8.0124,-7.9971,-8.0009,-8.0009,-8.0163,-8.0201,-8.0316,-8.0315,-8.0354,-8.0354,-8.0354,-8.0275,-8.0154,-8.0034,-7.9992,-7.9946,-7.9903,-7.9941,-7.9898,-7.9898,-7.9898,-7.9898,-8.0049,-8.0087,-5.0507,-5.0427,-5.0466,-5.0466,-5.0466,-5.038,-5.0478,-5.0588,-5.0382,-5.0451,-5.0681,-5.0681,-5.0702,-5.0837,-5.0906,-5.1392,-5.2266,-5.2322,-5.3421,-5.4459,-5.5207,-5.5186,-5.4839,-5.6006,-5.6668,-5.7019,-5.7824,-5.7915,-5.7925,-5.8661,-5.9455,-6.0175,-6.1545,-6.2319,-6.2606,-6.3175,-6.2959,-6.2291,-6.2216,-6.2183,-6.207,-6.2635,-6.2972,-6.3106,-6.3597,-6.4112,-6.4443,-6.467,-6.4661,-6.4314,-6.5271,-6.5905,-6.6164,-6.6336,-6.6228,-6.599,-6.5804,-6.5425,-6.5148,-6.5258,-6.5711,-6.6595,-6.6962,-6.7533,-6.7988,-6.7811,-6.7547,-6.7499,-6.8078,-6.8629,-6.9217,-7.0853,-7.2284,-7.3138,-7.3207,-7.3859,-7.4413,-7.405,-7.4719,-7.7586,-7.8126,-7.9159,-8.0001,-8.0711,-8.0837,-8.0605,-8.0716,-8.0646,-8.0542,-8.0505,-8.0468,-8.043,-8.0391,-8.0392,-8.0392,-8.043,-8.0354,-8.0316,-8.0276,-8.0276,-8.0235,-8.0235,-8.0154,-8.0034,-7.9988,-7.9946,-7.9903,-7.9898,-7.9898,-7.9898,-7.9898,-7.9898,-7.9898,-8.0163,-8.0277,-5.0773,-5.0825,-5.0902,-5.0941,-5.0924,-5.1001,-5.0999,-5.1049,-5.0957,-5.0964,-5.1058,-5.1074,-5.1048,-5.1051,-5.1122,-5.147,-5.2244,-5.2884,-5.3988,-5.5247,-5.5407,-5.5408,-5.5431,-5.6467,-5.7158,-5.7761,-5.8579,-5.8578,-5.8394,-5.9079,-5.9684,-5.9966,-6.0707,-6.1168,-6.177,-6.2071,-6.1995,-6.1769,-6.177,-6.203,-6.2317,-6.2698,-6.3023,-6.3245,-6.3624,-6.381,-6.4018,-6.4493,-6.4448,-6.4188,-6.4741,-6.5546,-6.597,-6.6008,-6.5954,-6.5877,-6.5457,-6.5217,-6.5375,-6.5532,-6.5942,-6.6898,-6.6776,-6.6698,-6.7586,-6.8111,-6.8178,-6.836,-6.8924,-6.964,-7.0508,-7.2553,-7.356,-7.373,-7.4363,-7.5424,-7.634,-7.6229,-7.6667,-7.8154,-7.9605,-8.0656,-8.0799,-8.0983,-8.0931,-8.0611,-8.0543,-8.0542,-8.058,-8.0543,-8.0542,-8.0614,-8.0646,-8.0681,-8.0643,-8.0611,-8.0503,-8.0392,-8.0315,-8.0157,-8.0154,-8.0195,-8.0116,-8.003,-7.9903,-7.9941,-7.9988,-7.9898,-7.9898,-7.9898,-7.9898,-7.9898,-7.9973,-8.0201,-8.0466,-5.099,-5.1061,-5.1138,-5.115,-5.1152,-5.1169,-5.123,-5.1218,-5.1245,-5.1268,-5.1254,-5.1232,-5.1152,-5.1178,-5.1523,-5.205,-5.2833,-5.3898,-5.4783,-5.5416,-5.5465,-5.5861,-5.6652,-5.706,-5.7659,-5.817,-5.9081,-5.9159,-5.9163,-5.9587,-6.0106,-6.0146,-6.0605,-6.1018,-6.1167,-6.1466,-6.1428,-6.1274,-6.1799,-6.2276,-6.2395,-6.2879,-6.3177,-6.3557,-6.3891,-6.4196,-6.427,-6.4568,-6.4576,-6.445,-6.4556,-6.487,-6.5328,-6.5388,-6.5495,-6.5551,-6.5487,-6.5314,-6.5542,-6.5755,-6.6141,-6.7064,-6.6823,-6.7502,-6.8019,-6.8578,-6.8616,-6.9052,-6.9767,-7.0719,-7.2302,-7.2924,-7.389,-7.4976,-7.5255,-7.635,-7.7801,-7.7801,-7.7998,-7.9306,-8.0492,-8.082,-8.0983,-8.1181,-8.0962,-8.0614,-8.0542,-8.0578,-8.0614,-8.0614,-8.0716,-8.0745,-8.0837,-8.09,-8.0862,-8.0767,-8.0605,-8.0465,-8.0315,-8.0157,-8.003,-8.0113,-8.0157,-8.0113,-8.0072,-8.0113,-8.0116,-8.003,-7.9941,-7.9898,-7.9898,-7.9898,-8.0163,-8.0769,-8.0883,-5.1136,-5.1213,-5.1217,-5.1214,-5.1209,-5.123,-5.1258,-5.1297,-5.1316,-5.1328,-5.1361,-5.1279,-5.1295,-5.1541,-5.1992,-5.2724,-5.3742,-5.4744,-5.5446,-5.5377,-5.539,-5.6155,-5.7136,-5.7607,-5.7875,-5.8181,-5.9282,-5.9678,-5.9677,-6.0001,-5.9891,-6.0228,-6.0862,-6.0783,-6.0678,-6.1243,-6.1422,-6.1069,-6.1969,-6.2636,-6.268,-6.3193,-6.349,-6.3631,-6.4085,-6.4382,-6.4382,-6.4493,-6.4621,-6.4849,-6.4425,-6.4284,-6.4367,-6.4668,-6.5047,-6.5283,-6.5465,-6.5608,-6.5705,-6.582,-6.6178,-6.6923,-6.72,-6.7841,-6.8693,-6.8706,-6.8806,-6.9624,-7.0518,-7.1939,-7.3837,-7.4495,-7.5019,-7.6076,-7.6169,-7.7406,-7.8838,-7.8941,-7.9623,-8.0654,-8.1117,-8.1195,-8.1181,-8.1207,-8.09,-8.0685,-8.065,-8.0614,-8.0685,-8.0865,-8.1029,-8.1222,-8.1362,-8.1869,-8.1976,-8.2073,-8.1708,-8.1141,-8.085,-8.0578,-8.041,-8.0532,-8.0654,-8.0392,-8.0276,-8.0354,-8.0314,-8.0116,-8.003,-7.9946,-7.9936,-8.0011,-8.0542,-8.13,-8.13,-5.1191,-5.1209,-5.121,-5.1232,-5.1268,-5.1284,-5.1328,-5.1357,-5.1435,-5.1385,-5.1428,-5.1357,-5.1793,-5.2188,-5.2322,-5.3086,-5.4276,-5.5068,-5.5428,-5.5427,-5.5439,-5.6076,-5.6976,-5.7481,-5.7824,-5.8539,-5.9285,-5.9496,-5.9251,-5.9061,-5.916,-5.9235,-5.9616,-5.9789,-6.0215,-6.0574,-6.141,-6.1565,-6.2284,-6.2891,-6.3221,-6.3556,-6.3698,-6.3602,-6.3862,-6.3899,-6.3862,-6.3825,-6.3877,-6.4102,-6.4162,-6.4326,-6.4634,-6.4989,-6.5276,-6.5456,-6.5597,-6.5756,-6.5905,-6.5895,-6.5958,-6.6266,-6.6882,-6.7218,-6.7782,-6.8202,-6.8971,-6.9997,-7.1503,-7.2996,-7.2635,-7.481,-7.6198,-7.6861,-7.794,-7.9262,-7.9932,-8.0357,-8.0641,-8.1462,-8.154,-8.1497,-8.143,-8.1359,-8.1181,-8.1099,-8.1193,-8.117,-8.1177,-8.1385,-8.1658,-8.1869,-8.2047,-8.267,-8.3249,-8.3409,-8.3277,-8.2446,-8.2023,-8.1651,-8.1532,-8.1418,-8.1306,-8.1269,-8.1003,-8.0812,-8.066,-8.0543,-8.0304,-8.0244,-8.0244,-8.0201,-8.0807,-8.1489,-8.1527,-5.1287,-5.1301,-5.1287,-5.1328,-5.1367,-5.1328,-5.1366,-5.1476,-5.1893,-5.2078,-5.2177,-5.2416,-5.277,-5.321,-5.3507,-5.409,-5.4699,-5.496,-5.5227,-5.5405,-5.5496,-5.6209,-5.7187,-5.7532,-5.7783,-5.8164,-5.8577,-5.8839,-5.8835,-5.8375,-5.8504,-5.9028,-5.921,-5.9578,-6.0359,-6.1189,-6.153,-6.1997,-6.2656,-6.3115,-6.3221,-6.3482,-6.3654,-6.3647,-6.3602,-6.3602,-6.3602,-6.3602,-6.4003,-6.4533,-6.4554,-6.486,-6.5293,-6.5536,-6.5569,-6.5624,-6.5782,-6.5928,-6.608,-6.6052,-6.6183,-6.6675,-6.7358,-6.8001,-6.8539,-6.9283,-6.9886,-7.0953,-7.1698,-7.3403,-7.4345,-7.6034,-7.707,-7.8194,-7.9365,-8.0222,-8.0816,-8.1265,-8.1582,-8.1826,-8.1717,-8.166,-8.166,-8.154,-8.1453,-8.1514,-8.171,-8.1787,-8.1782,-8.2146,-8.2535,-8.2907,-8.3172,-8.3586,-8.412,-8.4147,-8.4193,-8.351,-8.2928,-8.2569,-8.2525,-8.2409,-8.2523,-8.268,-8.2263,-8.192,-8.1767,-8.1879,-8.1258,-8.0737,-8.1041,-8.1262,-8.1338,-8.1527,-8.1755,-5.1323,-5.1389,-5.1365,-5.1347,-5.1385,-5.1551,-5.1662,-5.1826,-5.2602,-5.2958,-5.3005,-5.3422,-5.3744,-5.4142,-5.4514,-5.4891,-5.5191,-5.5044,-5.5282,-5.5751,-5.5867,-5.6657,-5.7634,-5.7866,-5.7784,-5.7888,-5.7336,-5.7638,-5.7884,-5.7757,-5.8333,-5.9291,-5.9454,-6.0277,-6.1485,-6.2464,-6.2138,-6.2345,-6.2966,-6.3382,-6.3103,-6.3275,-6.3647,-6.3602,-6.3602,-6.3647,-6.3786,-6.383,-6.435,-6.4897,-6.5082,-6.5179,-6.6001,-6.6062,-6.5846,-6.5731,-6.5974,-6.6123,-6.614,-6.6367,-6.6607,-6.7012,-6.8103,-6.895,-6.9604,-7.0218,-7.1101,-7.1849,-7.2982,-7.3777,-7.5326,-7.6785,-7.812,-7.9377,-8.0251,-8.0782,-8.1311,-8.1678,-8.1804,-8.1929,-8.1843,-8.1826,-8.1865,-8.2276,-8.23,-8.2376,-8.2583,-8.2902,-8.2946,-8.3319,-8.3716,-8.418,-8.4481,-8.4649,-8.4804,-8.4624,-8.4493,-8.4045,-8.3476,-8.3027,-8.3216,-8.3354,-8.3662,-8.4085,-8.4001,-8.3701,-8.3478,-8.2987,-8.2323,-8.2,-8.2216,-8.2323,-8.2361,-8.2513,-8.274,-5.1367,-5.1296,-5.1297,-5.1265,-5.1364,-5.2108,-5.243,-5.2543,-5.3429,-5.3822,-5.3772,-5.3811,-5.4157,-5.461,-5.4939,-5.5253,-5.5488,-5.55,-5.5763,-5.6368,-5.659,-5.7114,-5.7901,-5.7444,-5.7481,-5.7474,-5.6503,-5.6196,-5.6747,-5.713,-5.8263,-5.9676,-6.1024,-6.2234,-6.288,-6.3557,-6.4085,-6.3461,-6.368,-6.3803,-6.3686,-6.3755,-6.3742,-6.3691,-6.3691,-6.3835,-6.4172,-6.4214,-6.4634,-6.5199,-6.5213,-6.5329,-6.5656,-6.5872,-6.5832,-6.5856,-6.5974,-6.6067,-6.6151,-6.6453,-6.6984,-6.7449,-6.8436,-6.9335,-7.0073,-7.0634,-7.1046,-7.0268,-7.2871,-7.4942,-7.6221,-7.8381,-7.982,-8.0604,-8.1187,-8.1442,-8.1826,-8.1859,-8.2012,-8.2182,-8.2153,-8.2168,-8.2182,-8.2713,-8.3166,-8.3304,-8.3485,-8.3814,-8.4139,-8.4466,-8.4708,-8.5149,-8.5371,-8.5539,-8.5423,-8.5268,-8.4781,-8.4478,-8.4098,-8.3601,-8.3786,-8.4225,-8.5094,-8.5399,-8.5386,-8.5044,-8.442,-8.3811,-8.3307,-8.3031,-8.2937,-8.3081,-8.3347,-8.3536,-8.3688,-5.1351,-5.131,-5.1265,-5.1278,-5.144,-5.22,-5.2636,-5.2947,-5.4078,-5.4663,-5.4699,-5.4865,-5.5161,-5.5506,-5.5908,-5.6011,-5.5955,-5.5882,-5.6215,-5.6769,-5.7032,-5.7484,-5.8077,-5.7942,-5.7737,-5.6708,-5.6075,-5.5812,-5.6116,-5.6937,-5.8151,-6.0127,-6.1382,-6.2401,-6.3557,-6.3973,-6.3654,-6.3221,-6.3201,-6.3467,-6.3766,-6.383,-6.383,-6.3958,-6.3963,-6.4251,-6.452,-6.4626,-6.5103,-6.565,-6.5656,-6.5789,-6.6333,-6.6574,-6.6592,-6.6029,-6.6499,-6.6499,-6.6121,-6.6406,-6.6973,-6.7782,-6.8679,-6.9469,-7.0486,-7.1141,-7.1659,-7.184,-7.4,-7.574,-7.6986,-7.9299,-8.0546,-8.135,-8.1753,-8.1856,-8.1959,-8.2026,-8.2104,-8.2299,-8.2533,-8.2727,-8.2844,-8.313,-8.3725,-8.4132,-8.4435,-8.4864,-8.5251,-8.5613,-8.5831,-8.5978,-8.6184,-8.6285,-8.6057,-8.5844,-8.5151,-8.4821,-8.4824,-8.4477,-8.4542,-8.5024,-8.5849,-8.6601,-8.6776,-8.6214,-8.5317,-8.4664,-8.4126,-8.3771,-8.3498,-8.3688,-8.3915,-8.4218,-8.4248,-5.1314,-5.1284,-5.1259,-5.1412,-5.1761,-5.2582,-5.3097,-5.3473,-5.4837,-5.5518,-5.5769,-5.6028,-5.6213,-5.6179,-5.6456,-5.6444,-5.6287,-5.6251,-5.6694,-5.7081,-5.7413,-5.7845,-5.8227,-5.8245,-5.7547,-5.6224,-5.598,-5.6025,-5.6492,-5.7244,-5.8773,-6.0713,-6.1945,-6.2882,-6.3622,-6.3973,-6.3803,-6.3238,-6.3168,-6.3476,-6.3975,-6.3963,-6.4278,-6.4554,-6.4747,-6.4931,-6.5204,-6.5366,-6.591,-6.6019,-6.5974,-6.6063,-6.6584,-6.6669,-6.6537,-6.6206,-6.6476,-6.6669,-6.6568,-6.6815,-6.7306,-6.8173,-6.9262,-7.0305,-7.1233,-7.1743,-7.2121,-7.2807,-7.5222,-7.687,-7.8285,-7.9961,-8.1195,-8.178,-8.2065,-8.2065,-8.2104,-8.2182,-8.2416,-8.2766,-8.3117,-8.3663,-8.378,-8.3714,-8.4154,-8.4809,-8.5343,-8.5834,-8.6087,-8.6328,-8.6389,-8.6416,-8.6467,-8.6461,-8.6069,-8.5786,-8.527,-8.4937,-8.4975,-8.519,-8.5132,-8.5569,-8.6358,-8.7023,-8.7478,-8.6786,-8.5545,-8.5242,-8.4976,-8.4522,-8.4181,-8.4256,-8.4446,-8.4703,-8.4685,-5.1324,-5.128,-5.1357,-5.1732,-5.2433,-5.3513,-5.4218,-5.4587,-5.563,-5.6371,-5.6744,-5.7041,-5.6791,-5.6507,-5.6444,-5.664,-5.6768,-5.6748,-5.7287,-5.7855,-5.8275,-5.8363,-5.8517,-5.8349,-5.7804,-5.7024,-5.6527,-5.6747,-5.7477,-5.8319,-5.9939,-6.1709,-6.2656,-6.3762,-6.4308,-6.4279,-6.4152,-6.3771,-6.3742,-6.3986,-6.4369,-6.4558,-6.486,-6.5682,-6.5939,-6.614,-6.6509,-6.6518,-6.6307,-6.6283,-6.609,-6.6013,-6.6306,-6.6476,-6.636,-6.6229,-6.6514,-6.683,-6.7051,-6.7502,-6.8227,-6.909,-7.0127,-7.1265,-7.1835,-7.2617,-7.3066,-7.3531,-7.5908,-7.7494,-7.8819,-8.0273,-8.1441,-8.1686,-8.1749,-8.2012,-8.2104,-8.2338,-8.2611,-8.3156,-8.3663,-8.4208,-8.4454,-8.4387,-8.4537,-8.5149,-8.5447,-8.5928,-8.615,-8.6339,-8.6507,-8.6571,-8.6571,-8.6327,-8.5723,-8.5315,-8.4895,-8.4557,-8.4424,-8.5051,-8.5561,-8.6151,-8.6662,-8.6483,-8.6625,-8.6188,-8.5787,-8.5269,-8.4902,-8.493,-8.4854,-8.4826,-8.4816,-8.4919,-8.4782,-5.1293,-5.1305,-5.1316,-5.1491,-5.189,-5.3277,-5.3959,-5.4422,-5.5791,-5.6625,-5.6882,-5.7196,-5.7227,-5.7004,-5.7233,-5.7376,-5.761,-5.7647,-5.7965,-5.8245,-5.8443,-5.8826,-5.89,-5.8708,-5.8194,-5.7794,-5.7444,-5.7594,-5.8355,-5.948,-6.0933,-6.2316,-6.3345,-6.3622,-6.401,-6.4301,-6.422,-6.4281,-6.4291,-6.4483,-6.4628,-6.4807,-6.5285,-6.6383,-6.6506,-6.6748,-6.705,-6.7138,-6.6769,-6.6312,-6.6119,-6.6058,-6.6113,-6.6376,-6.6383,-6.6333,-6.6836,-6.7444,-6.7482,-6.789,-6.8315,-6.9788,-7.0914,-7.1899,-7.239,-7.3018,-7.3787,-7.4856,-7.6337,-7.7728,-7.8372,-7.9781,-8.0954,-8.1056,-8.1269,-8.1625,-8.1983,-8.2234,-8.3039,-8.3663,-8.4156,-8.4702,-8.4855,-8.498,-8.5205,-8.5485,-8.5734,-8.5962,-8.6081,-8.6339,-8.6532,-8.6467,-8.6428,-8.5882,-8.5266,-8.4895,-8.4517,-8.4243,-8.3974,-8.4878,-8.5743,-8.6108,-8.6457,-8.616,-8.5971,-8.5836,-8.5511,-8.4946,-8.4733,-8.4805,-8.5047,-8.531,-8.5259,-8.5197,-8.5056,-5.1296,-5.1278,-5.1186,-5.1511,-5.2146,-5.3464,-5.4179,-5.4651,-5.6191,-5.686,-5.6911,-5.7453,-5.7664,-5.7612,-5.7839,-5.806,-5.8105,-5.8186,-5.8319,-5.8554,-5.8863,-5.9128,-5.9245,-5.9202,-5.888,-5.8555,-5.8666,-5.8887,-5.9774,-6.0739,-6.2011,-6.3119,-6.3705,-6.3873,-6.3647,-6.3873,-6.4172,-6.452,-6.4704,-6.4909,-6.5067,-6.5199,-6.5733,-6.6699,-6.6922,-6.7,-6.7224,-6.7271,-6.6846,-6.6367,-6.6013,-6.6029,-6.6221,-6.6399,-6.6527,-6.6843,-6.7386,-6.8157,-6.8179,-6.8443,-6.9065,-7.0602,-7.1622,-7.2472,-7.3037,-7.3573,-7.4644,-7.5441,-7.6649,-7.7586,-7.8092,-7.9369,-8.0147,-8.0287,-8.0458,-8.0815,-8.1608,-8.2078,-8.3221,-8.4208,-8.4585,-8.4844,-8.477,-8.4743,-8.4514,-8.4862,-8.5413,-8.5565,-8.5669,-8.6068,-8.6571,-8.6401,-8.618,-8.5452,-8.4733,-8.4209,-8.3792,-8.4158,-8.4112,-8.5023,-8.5705,-8.6184,-8.6843,-8.7209,-8.6834,-8.5999,-8.5549,-8.5411,-8.5009,-8.4707,-8.5131,-8.5666,-8.5424,-8.5349,-8.545,-5.1291,-5.1187,-5.1062,-5.1999,-5.349,-5.4295,-5.5084,-5.5776,-5.6836,-5.7267,-5.7292,-5.8016,-5.8171,-5.7994,-5.8097,-5.8179,-5.8223,-5.8349,-5.8517,-5.8789,-5.9233,-5.9233,-5.9307,-5.9375,-5.9575,-5.9218,-5.9587,-6.0507,-6.1408,-6.2247,-6.3256,-6.3871,-6.4292,-6.4253,-6.3698,-6.4004,-6.4521,-6.4985,-6.5085,-6.5329,-6.5559,-6.564,-6.6269,-6.6984,-6.7224,-6.7286,-6.7377,-6.7309,-6.6885,-6.6234,-6.6052,-6.6029,-6.6067,-6.6337,-6.6419,-6.6496,-6.7354,-6.8292,-6.9078,-6.9907,-7.0814,-7.1604,-7.2452,-7.3103,-7.3601,-7.448,-7.5502,-7.6064,-7.7077,-7.7922,-7.8494,-7.891,-7.9219,-7.9758,-7.9991,-8.0489,-8.1321,-8.2195,-8.3377,-8.4182,-8.4532,-8.4766,-8.4621,-8.4398,-8.3889,-8.4111,-8.4868,-8.5204,-8.5294,-8.5875,-8.6467,-8.6036,-8.5671,-8.4703,-8.3937,-8.3334,-8.3135,-8.3601,-8.4294,-8.5128,-8.5991,-8.6682,-8.7345,-8.8007,-8.7496,-8.6377,-8.6115,-8.5977,-8.5244,-8.4529,-8.5483,-8.5917,-8.5729,-8.5545,-8.5544,-5.1862,-5.1892,-5.2291,-5.3183,-5.4307,-5.42,-5.46,-5.5441,-5.663,-5.7505,-5.7759,-5.8068,-5.817,-5.8162,-5.817,-5.8268,-5.8393,-5.848,-5.864,-5.9393,-5.9684,-5.9974,-6.0041,-6.0063,-6.0305,-6.0581,-6.1063,-6.1693,-6.2364,-6.3424,-6.403,-6.4554,-6.4699,-6.4556,-6.4407,-6.4557,-6.4807,-6.5238,-6.5388,-6.5559,-6.5919,-6.6029,-6.6444,-6.7299,-6.7316,-6.7343,-6.7406,-6.7244,-6.6797,-6.6242,-6.6144,-6.6179,-6.6299,-6.6593,-6.7176,-6.7564,-6.8487,-6.9946,-7.0918,-7.1799,-7.2385,-7.2853,-7.315,-7.3891,-7.481,-7.524,-7.592,-7.6454,-7.7116,-7.7741,-7.8046,-7.8209,-7.8665,-7.9796,-8.0262,-8.0784,-8.1515,-8.244,-8.3377,-8.3881,-8.428,-8.3593,-8.3213,-8.3522,-8.3196,-8.3459,-8.4198,-8.4701,-8.4869,-8.5693,-8.6362,-8.5603,-8.4944,-8.3956,-8.3139,-8.2722,-8.2754,-8.3231,-8.4195,-8.5288,-8.6151,-8.6966,-8.7133,-8.7409,-8.7144,-8.6793,-8.6026,-8.5333,-8.4592,-8.4385,-8.5003,-8.5564,-8.5524,-8.5446,-8.5589,-5.2473,-5.3135,-5.3251,-5.4103,-5.5269,-5.4887,-5.5177,-5.6131,-5.7063,-5.7671,-5.7932,-5.7997,-5.807,-5.8153,-5.8252,-5.8312,-5.8523,-5.8609,-5.864,-5.943,-5.9684,-5.9671,-5.9915,-6.0618,-6.0691,-6.1204,-6.1986,-6.2724,-6.3381,-6.4291,-6.4866,-6.5105,-6.5105,-6.5207,-6.5105,-6.5073,-6.5137,-6.5513,-6.5651,-6.5756,-6.599,-6.6196,-6.6471,-6.6879,-6.7054,-6.7095,-6.7172,-6.7017,-6.6748,-6.6436,-6.6436,-6.6611,-6.6898,-6.748,-6.8151,-6.8767,-6.9605,-7.1043,-7.221,-7.2723,-7.3348,-7.4168,-7.4102,-7.4663,-7.5668,-7.598,-7.6387,-7.6843,-7.7194,-7.7663,-7.8046,-7.8131,-7.8859,-7.9971,-8.0203,-8.0698,-8.1625,-8.2507,-8.3038,-8.3525,-8.3675,-8.2825,-8.2182,-8.2266,-8.2418,-8.2999,-8.3592,-8.4095,-8.4714,-8.5655,-8.618,-8.5304,-8.4388,-8.3461,-8.2717,-8.2302,-8.2411,-8.2897,-8.4149,-8.5589,-8.6312,-8.7137,-8.697,-8.6831,-8.7147,-8.6958,-8.545,-8.4514,-8.4174,-8.3914,-8.3934,-8.4509,-8.5038,-8.5372,-8.5595,-5.3028,-5.4648,-5.3863,-5.4802,-5.6474,-5.6295,-5.7,-5.8307,-5.7932,-5.7867,-5.7997,-5.7923,-5.8006,-5.8198,-5.8305,-5.8363,-5.8597,-5.8725,-5.8874,-5.9054,-5.9764,-5.9412,-5.9472,-6.0137,-6.0685,-6.1224,-6.2006,-6.3011,-6.4218,-6.4904,-6.5359,-6.5663,-6.5663,-6.5663,-6.5608,-6.5513,-6.5513,-6.5743,-6.5846,-6.5943,-6.6036,-6.6196,-6.6376,-6.659,-6.6611,-6.6632,-6.6678,-6.6577,-6.6538,-6.6669,-6.7106,-6.7456,-6.7981,-6.8655,-6.9039,-6.9596,-7.0395,-7.178,-7.284,-7.3315,-7.4212,-7.5149,-7.5584,-7.5803,-7.6019,-7.6497,-7.6855,-7.7311,-7.7701,-7.8129,-7.8533,-7.8962,-7.9455,-7.9792,-7.9831,-8.0598,-8.1558,-8.2259,-8.2629,-8.2993,-8.3232,-8.2823,-8.235,-8.2235,-8.2161,-8.3128,-8.3902,-8.4792,-8.541,-8.6029,-8.618,-8.4935,-8.401,-8.2967,-8.2409,-8.2187,-8.2798,-8.3486,-8.4824,-8.6161,-8.6785,-8.7277,-8.7354,-8.7436,-8.775,-8.7135,-8.5504,-8.4571,-8.4131,-8.3945,-8.3945,-8.3834,-8.4555,-8.5298,-8.5595,-5.3569,-5.5115,-5.5175,-5.6227,-5.7732,-5.758,-5.7734,-5.8097,-5.7997,-5.7997,-5.796,-5.75,-5.7684,-5.8309,-5.7876,-5.8122,-5.8688,-5.9176,-5.943,-5.977,-6.0157,-6.0003,-6.0157,-6.046,-6.089,-6.1166,-6.1845,-6.2929,-6.3959,-6.487,-6.5597,-6.5872,-6.5897,-6.5897,-6.591,-6.5781,-6.591,-6.5986,-6.6059,-6.6013,-6.6058,-6.62,-6.632,-6.6474,-6.6495,-6.6609,-6.6736,-6.6672,-6.684,-6.7475,-6.763,-6.7993,-6.8822,-6.9692,-7.0402,-7.126,-7.2021,-7.2885,-7.3432,-7.4408,-7.5305,-7.5846,-7.6326,-7.6622,-7.6761,-7.6897,-7.7295,-7.7712,-7.8207,-7.8636,-7.9298,-7.9844,-8.035,-8.0662,-8.0662,-8.0974,-8.1819,-8.2036,-8.2403,-8.2631,-8.2841,-8.2583,-8.2119,-8.194,-8.2045,-8.3206,-8.4211,-8.5101,-8.5759,-8.6261,-8.5843,-8.4627,-8.3849,-8.2842,-8.2668,-8.2449,-8.3328,-8.4246,-8.5432,-8.647,-8.7069,-8.7497,-8.7771,-8.7695,-8.7286,-8.6567,-8.5403,-8.4779,-8.4503,-8.4555,-8.4614,-8.4183,-8.4109,-8.4963,-8.5595,-5.4043,-5.5919,-5.5962,-5.6859,-5.8039,-5.772,-5.7519,-5.7519,-5.7519,-5.7565,-5.7582,-5.7177,-5.7339,-5.7839,-5.7894,-5.8312,-5.9218,-5.9346,-5.957,-6.0054,-6.0519,-5.9996,-6.0112,-6.0602,-6.083,-6.1127,-6.178,-6.2807,-6.3694,-6.4649,-6.5436,-6.5897,-6.5897,-6.609,-6.6282,-6.6461,-6.6511,-6.6406,-6.626,-6.6113,-6.614,-6.626,-6.6474,-6.6784,-6.6804,-6.7099,-6.745,-6.7372,-6.7837,-6.8437,-6.8603,-6.9194,-7.0052,-7.0954,-7.1792,-7.2567,-7.3236,-7.3861,-7.4486,-7.5149,-7.5852,-7.6425,-7.7028,-7.7441,-7.7336,-7.7306,-7.7634,-7.8051,-7.8597,-7.922,-8.0,-8.0779,-8.1364,-8.1909,-8.1714,-8.1558,-8.1753,-8.1913,-8.2124,-8.2316,-8.2205,-8.1978,-8.1736,-8.1581,-8.2045,-8.3322,-8.4173,-8.4714,-8.5256,-8.5643,-8.5109,-8.3972,-8.3457,-8.2862,-8.2808,-8.3048,-8.3961,-8.4796,-8.556,-8.6499,-8.7194,-8.7718,-8.7976,-8.7317,-8.6417,-8.5729,-8.5152,-8.5131,-8.4963,-8.5112,-8.5186,-8.4852,-8.4666,-8.4963,-8.5446,-5.4537,-5.7069,-5.652,-5.6948,-5.774,-5.7152,-5.6785,-5.6675,-5.6602,-5.6765,-5.697,-5.6934,-5.7106,-5.7724,-5.7983,-5.8609,-5.9223,-5.9465,-5.9582,-6.0145,-6.0229,-5.9888,-5.9814,-6.004,-6.0588,-6.1183,-6.1723,-6.2366,-6.3295,-6.4385,-6.5474,-6.5859,-6.6051,-6.6359,-6.6846,-6.7204,-6.7253,-6.7016,-6.6746,-6.6537,-6.6295,-6.6415,-6.6801,-6.742,-6.7716,-6.8047,-6.8622,-6.8979,-6.9202,-6.9518,-7.0052,-7.0636,-7.163,-7.2333,-7.3119,-7.3588,-7.4173,-7.4759,-7.5305,-7.5852,-7.6471,-7.716,-7.7926,-7.8213,-7.8106,-7.8007,-7.8347,-7.8909,-7.9532,-8.0078,-8.0857,-8.1325,-8.1831,-8.2026,-8.1948,-8.187,-8.1922,-8.1952,-8.1893,-8.1979,-8.1886,-8.1658,-8.1658,-8.1542,-8.1929,-8.336,-8.3979,-8.4289,-8.483,-8.5113,-8.4684,-8.3702,-8.341,-8.3303,-8.3541,-8.3933,-8.4728,-8.5452,-8.6107,-8.6863,-8.7811,-8.8116,-8.8231,-8.7222,-8.6162,-8.5619,-8.5164,-8.5358,-8.5669,-8.5781,-8.5781,-8.5521,-8.5483,-8.5632,-8.5298,-5.4946,-5.6859,-5.7977,-5.7977,-5.7116,-5.6895,-5.6418,-5.5831,-5.5257,-5.5822,-5.6749,-5.662,-5.7047,-5.7988,-5.7955,-5.8396,-5.8958,-5.9694,-5.9584,-5.9928,-6.0071,-6.0085,-5.982,-6.014,-6.0517,-6.0657,-6.1075,-6.2103,-6.3399,-6.4666,-6.5628,-6.5974,-6.6384,-6.6973,-6.7422,-6.7856,-6.7942,-6.7741,-6.7695,-6.7139,-6.6548,-6.6896,-6.7377,-6.7779,-6.8119,-6.8607,-6.9026,-6.9115,-6.955,-7.0071,-7.0959,-7.2127,-7.3543,-7.3978,-7.4173,-7.4369,-7.4993,-7.5618,-7.6086,-7.6555,-7.7206,-7.7777,-7.8425,-7.8789,-7.8964,-7.8993,-7.9283,-7.9895,-8.0428,-8.0974,-8.1481,-8.1831,-8.2104,-8.2104,-8.2104,-8.2104,-8.2104,-8.192,-8.1716,-8.1608,-8.1528,-8.1504,-8.1504,-8.1736,-8.2161,-8.2548,-8.2935,-8.3399,-8.4224,-8.47,-8.4839,-8.4146,-8.3787,-8.3757,-8.4065,-8.4643,-8.5375,-8.6146,-8.6846,-8.7637,-8.8382,-8.8262,-8.8022,-8.7021,-8.6032,-8.5819,-8.5864,-8.6176,-8.6375,-8.6524,-8.6672,-8.6561,-8.6648,-8.6833,-8.5966,-5.4667,-5.63,-5.795,-5.796,-5.6895,-5.6418,-5.5831,-5.5104,-5.4717,-5.5323,-5.6399,-5.6339,-5.6871,-5.8141,-5.8107,-5.8561,-5.9231,-5.9885,-6.0191,-6.0297,-6.0236,-6.0342,-6.0341,-6.0352,-6.0828,-6.0966,-6.1646,-6.2669,-6.3834,-6.4628,-6.5397,-6.6307,-6.7012,-6.7633,-6.8143,-6.8651,-6.8734,-6.8601,-6.8767,-6.8188,-6.7265,-6.7702,-6.8235,-6.8598,-6.8945,-6.9378,-6.9924,-7.0157,-7.0849,-7.1559,-7.2451,-7.3189,-7.4246,-7.4798,-7.5032,-7.5305,-7.5852,-7.6555,-7.6945,-7.7447,-7.8058,-7.862,-7.9383,-7.9939,-8.0113,-8.0168,-8.0324,-8.0818,-8.0623,-8.1013,-8.1636,-8.2065,-8.2104,-8.2104,-8.2052,-8.2052,-8.1968,-8.1815,-8.1652,-8.1577,-8.1504,-8.1504,-8.1504,-8.1542,-8.2122,-8.3257,-8.3399,-8.3927,-8.448,-8.4723,-8.4744,-8.4648,-8.4434,-8.4335,-8.4605,-8.526,-8.5998,-8.6769,-8.7468,-8.7996,-8.8499,-8.815,-8.7683,-8.7079,-8.6702,-8.6669,-8.6747,-8.6858,-8.7155,-8.7378,-8.7601,-8.775,-8.7799,-8.7487,-8.636,-5.4369,-5.5868,-5.7262,-5.7373,-5.6565,-5.5794,-5.506,-5.4553,-5.4764,-5.5336,-5.6232,-5.6537,-5.6989,-5.781,-5.8628,-5.9505,-6.0002,-5.9999,-6.0361,-6.053,-6.0502,-6.0437,-6.0523,-6.0644,-6.1272,-6.208,-6.2836,-6.354,-6.4474,-6.5205,-6.6076,-6.7012,-6.7772,-6.845,-6.9342,-6.9692,-6.9592,-6.9672,-6.9595,-6.9181,-6.8922,-6.8752,-6.9128,-6.9527,-6.9964,-7.0388,-7.1171,-7.1852,-7.2491,-7.3246,-7.3856,-7.4421,-7.4987,-7.554,-7.5852,-7.6164,-7.6789,-7.7609,-7.8227,-7.8487,-7.9049,-7.9695,-8.0524,-8.0931,-8.1064,-8.1208,-8.1364,-8.1325,-8.1091,-8.1208,-8.1792,-8.2104,-8.2104,-8.2091,-8.2039,-8.1998,-8.1869,-8.1755,-8.1646,-8.1504,-8.1504,-8.1504,-8.1542,-8.1542,-8.2329,-8.3528,-8.4429,-8.5175,-8.5622,-8.5565,-8.5544,-8.5475,-8.5298,-8.5298,-8.5267,-8.5652,-8.6351,-8.6978,-8.7602,-8.8156,-8.8557,-8.8393,-8.8162,-8.7754,-8.7444,-8.7129,-8.7155,-8.7267,-8.7638,-8.7861,-8.7746,-8.7618,-8.7332,-8.6915,-8.62,-5.511,-5.661,-5.6932,-5.6565,-5.5757,-5.4987,-5.4509,-5.4589,-5.5354,-5.6182,-5.7126,-5.8124,-5.8765,-5.8802,-5.8974,-5.9433,-5.9773,-5.9895,-5.9885,-5.9982,-6.0514,-6.0512,-6.0797,-6.1502,-6.213,-6.2964,-6.3809,-6.4372,-6.5166,-6.6051,-6.6731,-6.7295,-6.8922,-6.9554,-6.9866,-7.021,-7.0611,-7.0487,-7.0588,-7.0404,-6.9963,-6.9765,-6.9629,-7.0016,-7.0567,-7.1312,-7.2051,-7.2463,-7.3168,-7.4002,-7.4858,-7.5293,-7.5696,-7.6164,-7.6633,-7.6978,-7.7603,-7.8455,-7.9033,-7.937,-7.986,-8.0534,-8.1137,-8.131,-8.1493,-8.1753,-8.187,-8.187,-8.1714,-8.1714,-8.2104,-8.2104,-8.2104,-8.2078,-8.2051,-8.1887,-8.1775,-8.1713,-8.1624,-8.1553,-8.1504,-8.1581,-8.1697,-8.1942,-8.2535,-8.3618,-8.4491,-8.5197,-8.5603,-8.5861,-8.6223,-8.6114,-8.5998,-8.6005,-8.5934,-8.5973,-8.6517,-8.7107,-8.7657,-8.8138,-8.8483,-8.873,-8.8467,-8.7786,-8.7459,-8.7105,-8.723,-8.7155,-8.749,-8.7576,-8.7415,-8.7188,-8.7003,-8.6586,-8.591]}]]